[[[{"header":{"parameterUnit":"kt","parameterCategory":2,"dx":1,"dy":1,"la1":29.587661999999998,"la2":31.0,"lo1":-88.76705300000003,"lo2":-86.6583820000003,"nx":115,"ny":88,"refTime":"2022-10-17T18:00:00:Z","depth":0,"parameterNumber":1,"parameterNumberName":"U-component_of_WINDS"},"data":[22.6427,22.6427,22.6427,22.6427,22.6427,22.6427,22.6427,22.6427,22.6427,22.6427,22.6427,22.6427,22.6427,22.6427,22.6427,22.6427,22.6427,22.6427,22.6427,22.6427,22.6427,22.6427,22.6427,22.6427,22.6427,22.6427,22.6427,22.6427,22.6427,22.6427,22.6502,22.6651,22.8072,22.9268,23.0988,23.2559,23.3905,23.5251,23.5774,23.6372,23.6372,23.6372,23.6372,23.6372,23.6372,23.6372,23.6372,23.6372,23.6372,23.5849,23.4951,23.3889,23.2917,23.1886,23.0764,23.0029,22.973,22.9805,22.973,22.973,22.9655,22.9805,22.9655,22.9268,22.8969,22.8309,22.786,22.6801,22.6651,22.6277,22.6277,22.6128,22.6128,22.5455,22.5081,22.2912,22.0968,22.0145,21.9473,21.9173,21.9173,21.9697,22.0379,22.1791,22.3947,22.5081,22.6053,22.6202,22.6427,22.6427,22.6427,22.6427,22.6427,22.6427,22.6427,22.6427,22.6427,22.6427,22.6427,22.6427,22.6427,22.6427,22.6427,22.6427,22.6427,22.6427,22.6427,22.6427,22.6427,22.6427,22.6427,22.6427,22.6427,22.6427,22.6427,22.6427,22.6427,22.6427,22.6427,22.6427,22.6427,22.6427,22.6427,22.6427,22.6427,22.6427,22.6427,22.6427,22.6427,22.6427,22.6427,22.6427,22.6427,22.6427,22.6427,22.6427,22.6427,22.6427,22.6427,22.6427,22.6427,22.6427,22.6427,22.6427,22.6427,22.6427,22.6502,22.7025,22.7623,22.9343,23.0988,23.2783,23.4353,23.5624,23.6223,23.6372,23.6372,23.6372,23.6372,23.6372,23.6372,23.6372,23.6372,23.6372,23.5774,23.5026,23.359,23.217,23.0614,22.9356,22.8159,22.7935,22.7785,22.7635,22.7785,22.7635,22.7324,22.7025,22.695,22.7025,22.6801,22.6801,22.6502,22.6502,22.6427,22.6427,22.6352,22.6352,22.6128,22.5978,22.5156,22.3585,22.2164,22.1641,22.1118,22.1417,22.194,22.2688,22.3436,22.4782,22.5829,22.6427,22.6427,22.6427,22.6427,22.6427,22.6427,22.6427,22.6427,22.6427,22.6427,22.6427,22.6427,22.6427,22.6427,22.6427,22.6427,22.6427,22.6427,22.6427,22.6427,22.6427,22.6427,22.6427,22.6427,22.6427,22.6427,22.6427,22.6427,22.6427,22.6427,22.6427,22.6427,22.6427,22.6427,22.6427,22.6427,22.6427,22.6427,22.6427,22.6427,22.6427,22.6427,22.6427,22.6427,22.6427,22.6427,22.6427,22.6427,22.6427,22.6427,22.6427,22.6427,22.6427,22.6427,22.6427,22.6427,22.6427,22.6427,22.6427,22.6427,22.6427,22.6576,22.7399,22.9044,23.0689,23.2334,23.3755,23.555,23.6223,23.6372,23.6372,23.6372,23.6372,23.6372,23.6372,23.6372,23.6372,23.6372,23.5998,23.5624,23.4129,23.1886,22.9941,22.8234,22.695,22.6427,22.6427,22.6502,22.6651,22.6651,22.6726,22.6576,22.6576,22.6427,22.6427,22.6427,22.6427,22.6427,22.6427,22.6427,22.6427,22.6427,22.6427,22.6277,22.6202,22.5156,22.381,22.3062,22.2688,22.2987,22.3436,22.3884,22.4545,22.538,22.6427,22.6427,22.6427,22.6427,22.6427,22.6427,22.6427,22.6427,22.6427,22.6427,22.6427,22.6427,22.6427,22.6427,22.6427,22.6427,22.6427,22.6427,22.6427,22.6427,22.6427,22.6427,22.6427,22.6427,22.6427,22.6427,22.6427,22.6427,22.6427,22.6427,22.6427,22.6427,22.6427,22.6427,22.6427,22.6427,22.6427,22.6427,22.6053,22.6053,22.6427,22.6427,22.6427,22.6427,22.6427,22.6427,22.6427,22.6427,22.6427,22.6427,22.6427,22.6427,22.6427,22.6427,22.6427,22.6427,22.6427,22.6427,22.6427,22.6427,22.6427,22.6427,22.6502,22.6875,22.8221,23.0614,23.1886,23.3007,23.4951,23.6297,23.6372,23.6372,23.6372,23.6372,23.6372,23.6372,23.6372,23.6372,23.6372,23.6372,23.6372,23.4802,23.2185,23.0179,22.8309,22.6875,22.6427,22.6427,22.6427,22.6427,22.6427,22.6427,22.6427,22.6427,22.6427,22.6427,22.6427,22.6427,22.6427,22.6427,22.6427,22.6427,22.6427,22.6427,22.6427,22.6427,22.6352,22.5305,22.4171,22.4097,22.4246,22.4632,22.4931,22.5529,22.6202,22.6427,22.6427,22.6427,22.6427,22.6427,22.6427,22.6427,22.6427,22.6427,22.6427,22.6427,22.6427,22.6427,22.6427,22.6427,22.6427,22.6427,22.6427,22.6427,22.6427,22.6427,22.6427,22.6427,22.6427,22.6427,22.6427,22.6427,22.6427,22.6427,22.6427,22.6427,22.6427,22.6427,22.6277,22.6427,22.6202,22.6202,22.6277,22.4931,22.5081,22.6202,22.6427,22.6427,22.6427,22.6427,22.6427,22.6427,22.6427,22.6427,22.6427,22.6427,22.6427,22.6427,22.6427,22.6427,22.6427,22.6427,22.6427,22.6427,22.6427,22.6427,22.6427,22.6427,22.6576,22.7548,23.0016,23.1661,23.2708,23.4578,23.6372,23.6372,23.6372,23.6372,23.6372,23.6372,23.6372,23.6372,23.6372,23.6372,23.6372,23.6148,23.555,23.3306,23.1063,22.8758,22.7324,22.6576,22.6502,22.6427,22.6427,22.6427,22.6427,22.6427,22.6427,22.6427,22.6427,22.6427,22.6427,22.6427,22.6427,22.6427,22.6427,22.6427,22.6427,22.6427,22.6427,22.6427,22.6053,22.538,22.538,22.5455,22.5529,22.5829,22.5754,22.6427,22.6427,22.6427,22.6427,22.6427,22.6427,22.6427,22.6427,22.6427,22.6427,22.6427,22.6427,22.6427,22.6427,22.6427,22.6427,22.6427,22.6427,22.6427,22.6427,22.6427,22.6427,22.6427,22.6427,22.6427,22.6427,22.6427,22.6427,22.6427,22.6427,22.6427,22.6427,22.6277,22.5455,22.5081,22.4856,22.3959,22.351,22.3585,22.3959,22.4408,22.5156,22.6053,22.6427,22.6427,22.6427,22.6427,22.6427,22.6427,22.6427,22.6427,22.6427,22.6427,22.6427,22.6427,22.6427,22.6427,22.6427,22.6427,22.6427,22.6427,22.6427,22.6427,22.6427,22.6427,22.7399,22.9567,23.1287,23.2633,23.4278,23.5849,23.6372,23.6372,23.6372,23.6372,23.6372,23.6372,23.6372,23.6372,23.6372,23.6372,23.6372,23.5924,23.5176,23.3157,23.0988,22.8234,22.7175,22.6502,22.6427,22.6427,22.6427,22.6427,22.6427,22.6427,22.6427,22.6427,22.6427,22.6427,22.6427,22.6427,22.6427,22.6427,22.6427,22.6427,22.6427,22.6427,22.6427,22.6427,22.6427,22.6427,22.6427,22.6427,22.6427,22.6427,22.6427,22.6427,22.6427,22.6427,22.6427,22.6427,22.6427,22.6427,22.6427,22.6427,22.6427,22.6427,22.6427,22.6427,22.6427,22.6427,22.6427,22.6427,22.6427,22.6427,22.6427,22.6427,22.6427,22.6427,22.6427,22.6427,22.6427,22.6427,22.6427,22.6427,22.6427,22.6427,22.6277,22.4782,22.4109,22.3735,22.1267,22.0519,22.0968,22.209,22.3436,22.4183,22.5305,22.5903,22.6427,22.6427,22.6427,22.6427,22.6427,22.6427,22.6427,22.6427,22.6427,22.6427,22.6427,22.6427,22.6427,22.6427,22.6427,22.6427,22.6427,22.6427,22.6427,22.6427,22.6427,22.7548,22.9792,23.0913,23.2334,23.4802,23.5924,23.6372,23.6372,23.6372,23.6372,23.6372,23.6372,23.6372,23.6372,23.6372,23.6372,23.6372,23.6372,23.6223,23.4727,23.2932,22.988,22.7698,22.6427,22.6427,22.6427,22.6427,22.6427,22.6427,22.6427,22.6427,22.6427,22.6427,22.6427,22.6427,22.6427,22.6427,22.6427,22.6427,22.6427,22.6427,22.6427,22.6427,22.6427,22.6427,22.6427,22.6427,22.6427,22.6427,22.6427,22.6427,22.6427,22.6427,22.6427,22.6427,22.6427,22.6427,22.6427,22.6427,22.6427,22.6427,22.6427,22.6427,22.6427,22.6427,22.6427,22.6427,22.6427,22.6427,22.6427,22.6427,22.6427,22.6427,22.6427,22.6427,22.6427,22.6427,22.6427,22.6427,22.6427,22.6427,22.6427,22.6202,22.4782,22.3959,22.3211,21.9099,21.7977,21.9173,21.9323,22.1192,22.4034,22.4183,22.5156,22.6202,22.6427,22.6427,22.6427,22.6427,22.6427,22.6427,22.6427,22.6427,22.6427,22.6427,22.6427,22.6427,22.6427,22.6427,22.6427,22.6427,22.6427,22.6427,22.6427,22.6427,22.7324,22.9268,23.0988,23.2185,23.4278,23.5699,23.6297,23.6372,23.6372,23.6372,23.6372,23.6372,23.6372,23.6372,23.6372,23.6372,23.6372,23.6372,23.5849,23.4802,23.3157,23.1063,22.8221,22.7025,22.6502,22.6427,22.6427,22.6427,22.6427,22.6427,22.6427,22.6427,22.6427,22.6427,22.6427,22.6427,22.6427,22.6427,22.6427,22.6427,22.6427,22.6427,22.6427,22.6427,22.6427,22.6427,22.6427,22.6427,22.6427,22.6427,22.6427,22.6427,22.6427,22.6427,22.6427,22.6427,22.6427,22.6427,22.6427,22.6427,22.6427,22.6427,22.6427,22.6427,22.6427,22.6427,22.6427,22.6427,22.6427,22.6427,22.6427,22.6427,22.6427,22.6427,22.6427,22.6427,22.6427,22.6427,22.6427,22.6427,22.6427,22.4931,22.4632,22.2015,22.0819,22.037,21.7902,21.7005,21.7603,21.8725,22.0295,22.2389,22.3735,22.4931,22.6053,22.6427,22.6427,22.6427,22.6427,22.6427,22.6427,22.6427,22.6427,22.6427,22.6427,22.6427,22.6427,22.6427,22.6427,22.6427,22.6427,22.6427,22.6427,22.6427,22.6427,22.71,22.8595,23.039,23.1811,23.3232,23.5101,23.5849,23.6073,23.6148,23.6148,23.6223,23.6223,23.6297,23.6372,23.6372,23.6372,23.6372,23.6372,23.5849,23.4802,23.3157,23.1512,22.9268,22.7698,22.6726,22.6427,22.6427,22.6427,22.6427,22.6427,22.6427,22.6427,22.6427,22.6427,22.6427,22.6427,22.6427,22.6427,22.6427,22.6427,22.6427,22.6427,22.6427,22.6427,22.6427,22.6427,22.6427,22.6427,22.6427,22.6427,22.6427,22.6427,22.6427,22.6427,22.6427,22.6427,22.6427,22.6427,22.6427,22.6427,22.6427,22.6427,22.6427,22.6427,22.6427,22.6427,22.6427,22.6427,22.6427,22.6427,22.6427,22.6427,22.6427,22.6427,22.6427,22.6427,22.6427,22.6427,22.6427,22.6427,22.6427,22.3286,22.3062,22.022,21.8799,21.8126,21.7154,21.6781,21.7005,21.7902,21.9547,22.1566,22.2688,22.4333,22.5903,22.6427,22.6427,22.6427,22.6427,22.6427,22.6427,22.6427,22.6427,22.6427,22.6427,22.6427,22.6427,22.6427,22.6427,22.6427,22.6427,22.6427,22.6427,22.6427,22.6427,22.6875,22.8147,22.9418,23.0689,23.2185,23.3531,23.4503,23.4578,23.4503,23.4503,23.5101,23.5325,23.5325,23.6148,23.6297,23.6372,23.6372,23.5924,23.5176,23.4727,23.2858,23.0614,22.988,22.8234,22.695,22.6427,22.6427,22.6427,22.6427,22.6427,22.6427,22.6427,22.6427,22.6427,22.6427,22.6427,22.6427,22.6427,22.6427,22.6427,22.6427,22.6427,22.6427,22.6427,22.6427,22.6427,22.6427,22.6427,22.6427,22.6427,22.6427,22.6427,22.6427,22.6427,22.6427,22.6427,22.6427,22.6427,22.6427,22.6427,22.6427,22.6427,22.6427,22.6427,22.6427,22.6427,22.6427,22.6427,22.6427,22.6427,22.6427,22.6427,22.6427,22.6427,22.6427,22.6427,22.6427,22.6427,22.6427,22.6427,22.6427,22.1566,22.1342,21.9697,21.8126,21.693,21.6781,21.6781,21.6855,21.7005,21.8725,22.1417,22.1716,22.351,22.5903,22.6427,22.6427,22.6427,22.6427,22.6427,22.6427,22.6427,22.6427,22.6427,22.6427,22.6427,22.6427,22.6427,22.6427,22.6427,22.6427,22.6427,22.6427,22.6427,22.6427,22.6576,22.8072,22.8894,22.9268,23.0689,23.1512,23.211,23.2259,23.2334,23.2633,23.3306,23.383,23.4054,23.4727,23.5176,23.5251,23.5325,23.4877,23.3905,23.3366,23.1886,22.9506,22.8982,22.801,22.6726,22.6502,22.6427,22.6427,22.6427,22.6427,22.6427,22.6427,22.6427,22.6427,22.6427,22.6427,22.6427,22.6427,22.6427,22.6427,22.6427,22.6427,22.6427,22.6427,22.6427,22.6427,22.6427,22.6427,22.6427,22.6427,22.6427,22.6427,22.6427,22.6427,22.6427,22.6427,22.6427,22.6427,22.6427,22.6427,22.6427,22.6427,22.6427,22.6427,22.6427,22.6427,22.6427,22.6427,22.6427,22.6427,22.6427,22.6427,22.6427,22.6427,22.6427,22.6427,22.6427,22.6427,22.6427,22.6427,22.6427,21.9846,21.9622,21.8126,21.7154,21.6781,21.6781,21.6781,21.6781,21.6781,21.8575,22.1492,22.1716,22.3361,22.5679,22.6427,22.6427,22.6427,22.6427,22.6427,22.6427,22.6427,22.6427,22.6427,22.6427,22.6427,22.6427,22.6427,22.6427,22.6427,22.6427,22.6427,22.6427,22.6427,22.6427,22.6576,22.71,22.7848,22.8745,22.9717,23.0166,23.1362,23.1362,23.1362,23.1437,23.1811,23.2185,23.2409,23.2858,23.3306,23.3306,23.3157,23.2783,23.211,23.1138,23.0029,22.8982,22.801,22.7025,22.6576,22.6427,22.6427,22.6427,22.6427,22.6427,22.6427,22.6427,22.6427,22.6427,22.6427,22.6427,22.6427,22.6427,22.6427,22.6427,22.6427,22.6427,22.6427,22.6427,22.6427,22.6427,22.6427,22.6427,22.6427,22.6427,22.6427,22.6427,22.6427,22.6427,22.6427,22.6427,22.6427,22.6427,22.6427,22.6427,22.6427,22.6427,22.6427,22.6427,22.6427,22.6427,22.6427,22.6427,22.6427,22.6427,22.6427,22.6427,22.6427,22.6427,22.6427,22.6427,22.6427,22.6427,22.6427,22.6427,22.6427,21.8201,21.8126,21.7154,21.6781,21.6781,21.6781,21.6781,21.6781,21.6781,21.7977,21.9697,22.1192,22.3436,22.5754,22.6427,22.6427,22.6427,22.6427,22.6427,22.6427,22.6427,22.6427,22.6427,22.6427,22.6427,22.6427,22.6427,22.6427,22.6427,22.6427,22.6427,22.6427,22.6427,22.6427,22.6427,22.6651,22.71,22.7848,22.8147,22.8371,22.9493,22.9567,22.9567,22.9717,22.9941,23.054,23.0614,23.1063,23.1437,23.1675,23.1661,23.1213,23.054,22.9717,22.8832,22.7935,22.71,22.6576,22.6427,22.6427,22.6427,22.6427,22.6427,22.6427,22.6427,22.6427,22.6427,22.6427,22.6427,22.6427,22.6427,22.6427,22.6427,22.6427,22.6427,22.6427,22.6427,22.6427,22.6427,22.6427,22.6427,22.6427,22.6427,22.6427,22.6427,22.6427,22.6427,22.6427,22.6427,22.6427,22.6427,22.6427,22.6427,22.6427,22.6427,22.6427,22.6427,22.6427,22.6427,22.6427,22.6427,22.6427,22.6427,22.6427,22.6427,22.6427,22.6427,22.6427,22.6427,22.6427,22.6427,22.6427,22.6427,22.6427,22.6427,21.6781,21.6781,21.6781,21.6781,21.6781,21.6781,21.6781,21.6781,21.6781,21.693,21.7678,22.0145,22.3361,22.5754,22.6427,22.6427,22.6427,22.6427,22.6427,22.6427,22.6427,22.6427,22.6427,22.6427,22.6427,22.6427,22.6427,22.6427,22.6427,22.6427,22.6427,22.6427,22.6427,22.6427,22.6427,22.6427,22.6651,22.6726,22.6801,22.6875,22.695,22.695,22.695,22.7175,22.7997,22.882,22.8894,22.9941,23.0465,23.0478,23.0478,22.9941,22.8969,22.8533,22.7935,22.71,22.6502,22.6502,22.6427,22.6427,22.6427,22.6427,22.6427,22.6427,22.6427,22.6427,22.6427,22.6427,22.6427,22.6427,22.6427,22.6427,22.6427,22.6427,22.6427,22.6427,22.6427,22.6427,22.6427,22.6427,22.6427,22.6427,22.6427,22.6427,22.6427,22.6427,22.6427,22.6427,22.6427,22.6427,22.6427,22.6427,22.6427,22.6427,22.6427,22.6427,22.6427,22.6427,22.6427,22.6427,22.6427,22.6427,22.6427,22.6427,22.6427,22.6427,22.6427,22.6427,22.6427,22.6427,22.6427,22.6427,22.6427,22.6427,22.6427,21.6781,21.6781,21.6781,21.6781,21.6781,21.6781,21.6781,21.6781,21.6781,21.6781,21.7678,22.0145,22.3361,22.5829,22.6352,22.6427,22.6427,22.6427,22.6427,22.6427,22.6427,22.6427,22.6427,22.6427,22.6427,22.6427,22.6427,22.6427,22.6427,22.6427,22.6427,22.6427,22.6427,22.6427,22.6427,22.6427,22.6427,22.6427,22.6427,22.6427,22.6427,22.6427,22.6427,22.6576,22.6801,22.71,22.71,22.7773,22.7848,22.7935,22.7997,22.7997,22.7399,22.7324,22.6875,22.6651,22.6427,22.6427,22.6427,22.6427,22.6427,22.6427,22.6427,22.6427,22.6427,22.6427,22.6427,22.6427,22.6427,22.6427,22.6427,22.6427,22.6427,22.6427,22.6427,22.6427,22.6427,22.6427,22.6427,22.6427,22.6427,22.6427,22.6427,22.6427,22.6427,22.6427,22.6427,22.6427,22.6427,22.6427,22.6427,22.6427,22.6427,22.6427,22.6427,22.6427,22.6427,22.6427,22.6427,22.6427,22.6427,22.6427,22.6427,22.6427,22.6427,22.6427,22.6427,22.6427,22.6427,22.6427,22.6427,22.6427,22.6427,22.6427,22.6427,21.6781,21.6781,21.6781,21.6781,21.6781,21.6781,21.6781,21.6781,21.6781,21.6781,21.7379,22.0145,22.2538,22.4258,22.6053,22.6352,22.6427,22.6427,22.6427,22.6427,22.6427,22.6427,22.6427,22.6427,22.6427,22.6427,22.6427,22.6427,22.6427,22.6427,22.6427,22.6427,22.6427,22.6427,22.6427,22.6427,22.6427,22.6427,22.6427,22.6427,22.6427,22.6427,22.6427,22.6427,22.6427,22.6502,22.6502,22.6427,22.6427,22.6427,22.6427,22.6427,22.6427,22.6427,22.6427,22.6427,22.6427,22.6427,22.6427,22.6427,22.6427,22.6427,22.6427,22.6427,22.6427,22.6427,22.6427,22.6427,22.6427,22.6427,22.6427,22.6427,22.6427,22.6427,22.6427,22.6427,22.6427,22.6427,22.6427,22.6427,22.6427,22.6427,22.6427,22.6427,22.6427,22.6427,22.6427,22.6427,22.6427,22.6427,22.6427,22.6427,22.6427,22.6427,22.6427,22.6427,22.6427,22.6427,22.6427,22.6427,22.6427,22.6427,22.6427,22.6427,22.6427,22.6427,22.6427,22.6427,22.6427,22.6427,22.6427,22.6427,22.6427,22.6427,22.6427,21.6781,21.6781,21.6781,21.6781,21.6781,21.6781,21.6781,21.6781,21.6781,21.6781,21.7005,21.9996,22.1641,22.2613,22.5081,22.6352,22.6427,22.6427,22.6427,22.6427,22.6427,22.6427,22.6427,22.6427,22.6427,22.6427,22.6427,22.6427,22.6427,22.6427,22.6427,22.6427,22.6427,22.6427,22.6427,22.6427,22.6427,22.6427,22.6427,22.6427,22.6427,22.6427,22.6427,22.6427,22.6427,22.6427,22.6427,22.6427,22.6427,22.6427,22.6427,22.6427,22.6427,22.6427,22.6427,22.6427,22.6427,22.6427,22.6427,22.6427,22.6427,22.6427,22.6427,22.6427,22.6427,22.6427,22.6427,22.6427,22.6427,22.6427,22.6427,22.6427,22.6427,22.6427,22.6427,22.6427,22.6427,22.6427,22.6427,22.6427,22.6427,22.6427,22.6427,22.6427,22.6427,22.6427,22.6427,22.6427,22.6427,22.6427,22.6427,22.6427,22.6427,22.6427,22.6427,22.6427,22.6427,22.6427,22.6427,22.6427,22.6427,22.6427,22.6427,22.6427,22.6427,22.6427,22.6427,22.6427,22.6427,22.6427,22.6427,22.6427,22.6427,22.6427,22.6427,21.6781,21.6781,21.6781,21.6781,21.6781,21.6781,21.6781,21.6781,21.6781,21.6781,21.7229,21.9921,22.1492,22.2389,22.4557,22.6277,22.6427,22.6352,22.6277,22.6277,22.6352,22.6427,22.6427,22.6427,22.6427,22.6427,22.6427,22.6427,22.6427,22.6427,22.6427,22.6427,22.6427,22.6427,22.6427,22.6427,22.6427,22.6427,22.6427,22.6427,22.6427,22.6427,22.6427,22.6427,22.6427,22.6427,22.6427,22.6427,22.6427,22.6427,22.6427,22.6427,22.6427,22.6427,22.6427,22.6427,22.6427,22.6427,22.6427,22.6427,22.6427,22.6427,22.6427,22.6427,22.6427,22.6427,22.6427,22.6427,22.6427,22.6427,22.6427,22.6427,22.6427,22.6427,22.6427,22.6427,22.6427,22.6427,22.6427,22.6427,22.6427,22.6427,22.6427,22.6427,22.6427,22.6427,22.6427,22.6427,22.6427,22.6427,22.6427,22.6427,22.6427,22.6427,22.6427,22.6427,22.6427,22.6427,22.6427,22.6427,22.6427,22.6427,22.6427,22.6427,22.6427,22.6427,22.6427,22.6427,22.6427,22.6427,22.6427,22.6427,22.6427,22.6427,22.6427,21.6781,21.6781,21.6781,21.6781,21.6781,21.6781,21.6781,21.6781,21.6781,21.6781,21.7528,21.9173,22.037,22.1043,22.3137,22.4109,22.4333,22.4782,22.5305,22.5604,22.6128,22.6427,22.6427,22.6427,22.6427,22.6427,22.6427,22.6427,22.6427,22.6427,22.6427,22.6427,22.6427,22.6427,22.6427,22.6427,22.6427,22.6427,22.6427,22.6427,22.6427,22.6427,22.6427,22.6427,22.6427,22.6427,22.6427,22.6427,22.6427,22.6427,22.6427,22.6427,22.6427,22.6427,22.6427,22.6427,22.6427,22.6427,22.6427,22.6427,22.6427,22.6427,22.6427,22.6427,22.6427,22.6427,22.6427,22.6427,22.6427,22.6427,22.6427,22.6427,22.6427,22.6427,22.6427,22.6427,22.6427,22.6427,22.6427,22.6427,22.6427,22.6427,22.6427,22.6427,22.6427,22.6427,22.6427,22.6427,22.6427,22.6427,22.6427,22.6427,22.6427,22.6427,22.6427,22.6427,22.6427,22.6427,22.6427,22.6427,22.6427,22.6427,22.6427,22.6427,22.6427,22.6427,22.6427,22.6427,22.6427,22.6427,22.6427,22.6427,22.6427,22.6427,22.6427,21.6781,21.6781,21.6781,21.6781,21.6781,21.6781,21.6781,21.6781,21.6781,21.6781,21.7005,21.8426,21.9248,21.9622,22.0893,22.1566,22.2314,22.3062,22.366,22.3959,22.4632,22.5604,22.5679,22.5754,22.5903,22.6128,22.6352,22.6427,22.6427,22.6427,22.6427,22.6427,22.6427,22.6427,22.6427,22.6427,22.6427,22.6427,22.6427,22.6427,22.6427,22.6427,22.6427,22.6427,22.6427,22.6427,22.6427,22.6427,22.6427,22.6427,22.6427,22.6427,22.6427,22.6427,22.6427,22.6427,22.6427,22.6427,22.6427,22.6427,22.6427,22.6427,22.6427,22.6427,22.6427,22.6427,22.6427,22.6427,22.6427,22.6427,22.6427,22.6427,22.6427,22.6427,22.6427,22.6427,22.6427,22.6427,22.6427,22.6427,22.6427,22.6427,22.6427,22.6427,22.6427,22.6427,22.6427,22.6427,22.6427,22.6427,22.6427,22.6427,22.6427,22.6427,22.6427,22.6427,22.6427,22.6427,22.6427,22.6427,22.6427,22.6427,22.6427,22.6427,22.6427,22.6427,22.6427,22.6427,22.6427,22.6427,22.6427,22.6427,22.6427,22.6427,22.6427,21.6781,21.6781,21.6781,21.6781,21.6781,21.6781,21.6781,21.6781,21.6781,21.6781,21.708,21.8426,21.8874,21.9323,22.0669,22.1492,22.1566,22.1865,22.194,22.2015,22.2613,22.3436,22.4183,22.4333,22.4333,22.4632,22.5679,22.6352,22.6427,22.6427,22.6427,22.6427,22.6427,22.6427,22.6427,22.6427,22.6427,22.6427,22.6427,22.6427,22.6427,22.6427,22.6427,22.6427,22.6427,22.6427,22.6427,22.6427,22.6427,22.6427,22.6427,22.6427,22.6427,22.6427,22.6427,22.6427,22.6427,22.6427,22.6427,22.6427,22.6427,22.6427,22.6427,22.6427,22.6427,22.6427,22.6427,22.6427,22.6427,22.6427,22.6427,22.6427,22.6427,22.6427,22.6427,22.6427,22.6427,22.6427,22.6427,22.6427,22.6427,22.6427,22.6427,22.6427,22.6427,22.6427,22.6427,22.6427,22.6427,22.6427,22.6427,22.6427,22.6427,22.6427,22.6427,22.6427,22.6427,22.6427,22.6427,22.6427,22.6427,22.6427,22.6427,22.6427,22.6427,22.6427,22.6427,22.6427,22.6427,22.6427,22.6427,22.6427,22.6427,22.6427,22.6427,21.5958,21.6781,21.6781,21.6781,21.6781,21.6781,21.6781,21.6781,21.6781,21.6781,21.693,21.7453,21.7827,21.7977,21.865,21.9024,21.9024,21.9024,21.9473,22.037,22.1267,22.194,22.2688,22.2015,22.2538,22.4183,22.4931,22.5754,22.6277,22.6427,22.6427,22.6427,22.6427,22.6427,22.6427,22.6427,22.6427,22.6427,22.6427,22.6427,22.6427,22.6427,22.6427,22.6427,22.6427,22.6427,22.6427,22.6427,22.6427,22.6427,22.6427,22.6427,22.6427,22.6427,22.6427,22.6427,22.6427,22.6427,22.6427,22.6427,22.6427,22.6427,22.6427,22.6427,22.6427,22.6427,22.6427,22.6427,22.6427,22.6427,22.6427,22.6427,22.6427,22.6427,22.6427,22.6427,22.6427,22.6427,22.6427,22.6427,22.6427,22.6427,22.6427,22.6427,22.6427,22.6427,22.6427,22.6427,22.6427,22.6427,22.6427,22.6427,22.6427,22.6427,22.6427,22.6427,22.6427,22.6427,22.6427,22.6427,22.6427,22.6427,22.6427,22.6427,22.6427,22.6427,22.6427,22.6427,22.6427,22.6427,22.6427,22.6427,22.6427,22.6427,22.6427,21.4388,21.5659,21.5659,21.5659,21.5659,21.5659,21.5584,21.5659,21.5958,21.6033,21.6257,21.6631,21.6855,21.6855,21.7005,21.6781,21.708,21.7154,21.7304,21.8725,22.0071,22.0519,22.0295,21.9846,22.0669,22.2464,22.3585,22.4707,22.5754,22.6128,22.6427,22.6427,22.6427,22.6427,22.6427,22.6427,22.6427,22.6427,22.6427,22.6427,22.6427,22.6427,22.6427,22.6427,22.6427,22.6427,22.6427,22.6427,22.6427,22.6427,22.6427,22.6427,22.6427,22.6427,22.6427,22.6427,22.6427,22.6427,22.6427,22.6427,22.6427,22.6427,22.6427,22.6427,22.6427,22.6427,22.6427,22.6427,22.6427,22.6427,22.6427,22.6427,22.6427,22.6427,22.6427,22.6427,22.6427,22.6427,22.6427,22.6427,22.6427,22.6427,22.6427,22.6427,22.6427,22.6427,22.6427,22.6427,22.6427,22.6427,22.6427,22.6427,22.6427,22.6427,22.6427,22.6427,22.6427,22.6427,22.6427,22.6427,22.6427,22.6427,22.6427,22.6427,22.6427,22.6427,22.6427,22.6427,22.6427,22.6427,22.6427,22.6427,22.6427,22.6427,22.6427,21.1995,21.2219,21.2219,21.2219,21.2369,21.2219,21.2593,21.2593,21.3864,21.4462,21.4762,21.6033,21.6257,21.6781,21.6108,21.6631,21.6556,21.6407,21.6781,21.7005,21.7453,21.7528,21.7678,21.8052,21.9173,22.0295,22.2912,22.3884,22.4483,22.5754,22.6277,22.6202,22.6352,22.6427,22.6427,22.6427,22.6427,22.6427,22.6427,22.6427,22.6427,22.6427,22.6427,22.6427,22.6427,22.6427,22.6427,22.6427,22.6277,22.6352,22.6427,22.6128,22.6202,22.6277,22.6277,22.6128,22.5903,22.5978,22.6277,22.5978,22.6202,22.6053,22.6128,22.6427,22.6053,22.5903,22.5829,22.5829,22.6352,22.6202,22.6202,22.6427,22.6427,22.6352,22.6202,22.6352,22.6427,22.6427,22.6427,22.6427,22.6427,22.6427,22.6427,22.6427,22.6427,22.6427,22.6427,22.6427,22.6427,22.6053,22.5903,22.5903,22.5978,22.6202,22.6053,22.6053,22.5903,22.6053,22.5903,22.5679,22.5604,22.5679,22.6053,22.6427,22.6427,22.6427,22.6427,22.6427,22.6427,22.6427,22.6427,22.6427,22.6427,22.6427,22.6427,21.0873,21.1696,21.1696,21.1696,21.1696,21.1696,21.1696,21.1845,21.2443,21.2743,21.2892,21.3565,21.3789,21.3789,21.3864,21.3864,21.3939,21.4836,21.521,21.5435,21.6182,21.6108,21.5584,21.5808,21.7304,21.9024,22.0519,22.1716,22.2763,22.4258,22.5006,22.523,22.5978,22.6427,22.6352,22.6427,22.6427,22.6427,22.6427,22.6427,22.6427,22.6427,22.6427,22.6427,22.6427,22.6427,22.6427,22.6427,22.5455,22.4034,22.366,22.366,22.3648,22.366,22.366,22.3648,22.3648,22.3648,22.3648,22.3648,22.3648,22.3648,22.3648,22.3573,22.3648,22.3585,22.3671,22.3884,22.4632,22.5006,22.5305,22.5978,22.6352,22.6053,22.4707,22.3585,22.3585,22.3735,22.4034,22.4782,22.5156,22.538,22.6352,22.6427,22.6427,22.6352,22.6128,22.6128,22.6053,22.5455,22.4931,22.4483,22.4333,22.3884,22.366,22.3735,22.3585,22.4632,22.4707,22.4258,22.4183,22.4109,22.4557,22.5156,22.5978,22.6427,22.6427,22.6427,22.6128,22.5829,22.6352,22.6427,22.6427,22.6427,22.6427,20.9377,21.035,21.0424,21.0424,21.0424,21.0424,21.035,21.0424,21.0798,21.1097,21.1247,21.1471,21.1845,21.1696,21.177,21.1696,21.2144,21.3042,21.3565,21.3789,21.4911,21.4612,21.3789,21.4014,21.5509,21.7528,21.8799,21.9697,22.0968,22.2613,22.3436,22.351,22.4931,22.5754,22.5978,22.6202,22.6427,22.6427,22.6427,22.6427,22.6427,22.6427,22.6427,22.6352,22.5978,22.5754,22.5829,22.5455,22.3959,22.1791,22.1566,22.1566,22.1791,22.1791,22.1865,22.1865,22.1705,22.163,22.163,22.1705,22.163,22.1555,22.194,22.1555,22.1555,22.1651,22.1576,22.1875,22.2613,22.3436,22.3648,22.4396,22.5006,22.4856,22.3211,22.1865,22.1791,22.1566,22.21,22.3147,22.3436,22.3872,22.4545,22.4931,22.4931,22.4931,22.4856,22.4782,22.4333,22.3884,22.3436,22.2987,22.2538,22.1791,22.1417,22.1492,22.1854,22.305,22.2901,22.2538,22.2538,22.2538,22.2987,22.351,22.4109,22.4258,22.4782,22.538,22.5156,22.447,22.4782,22.4856,22.523,22.5903,22.5829,20.7059,20.7134,20.7134,20.7359,20.7359,20.7359,20.7508,20.7508,20.8779,20.9452,20.9751,21.0649,21.1397,21.1471,21.1172,21.1172,21.1621,21.177,21.1845,21.177,21.1845,21.192,21.1845,21.2967,21.3939,21.5061,21.7453,21.8799,21.9024,22.0819,22.1716,22.1865,22.3361,22.4258,22.4408,22.5679,22.6053,22.5978,22.6202,22.6202,22.6128,22.6277,22.6277,22.6128,22.4931,22.4183,22.3959,22.2688,22.1716,22.1566,22.1118,22.1127,22.1427,22.1576,22.1202,22.1127,22.1427,22.1277,22.1352,22.1053,22.1127,22.1053,22.1053,22.1576,22.1118,22.0978,22.0903,22.1053,22.1501,22.1726,22.1705,22.2153,22.2078,22.1929,22.1342,22.1118,22.1417,22.1352,22.1277,22.1576,22.1716,22.1929,22.2228,22.2303,22.2303,22.2228,22.2389,22.2538,22.2314,22.2239,22.1865,22.1492,22.1202,22.0604,21.9996,22.0145,22.0445,22.1118,22.0744,22.0669,22.0744,22.0968,22.1342,22.1641,22.209,22.2015,22.2239,22.2763,22.2751,22.2975,22.3137,22.2987,22.3436,22.4333,22.4782,20.6835,20.6835,20.6835,20.6835,20.6835,20.6835,20.6835,20.6985,20.7508,20.7732,20.7882,20.8405,20.863,20.863,20.863,20.863,20.8779,20.9751,20.9677,20.8779,20.863,20.863,20.8929,21.035,21.1546,21.2892,21.4911,21.6033,21.6182,21.8575,21.9996,22.0295,22.1716,22.2538,22.2613,22.3137,22.3361,22.3585,22.4408,22.4483,22.381,22.4408,22.4483,22.351,22.2837,22.2538,22.2314,21.9921,21.8575,21.8575,21.85,21.85,21.85,21.8575,21.85,21.85,21.85,21.8575,21.85,21.865,21.85,21.85,21.85,21.8575,21.8575,21.85,21.85,21.8808,21.9407,22.008,22.0145,22.0819,22.0519,21.879,21.8725,21.8575,21.8575,21.8575,21.8958,21.9856,21.9921,22.0519,22.1267,22.1566,22.1555,22.1555,22.1566,22.1566,22.1417,22.0594,22.022,21.9846,21.9473,21.9099,21.8725,21.8874,21.9099,21.9024,21.8799,21.9024,21.9024,21.9323,21.9547,21.9846,22.0594,22.0594,22.0744,22.0968,22.0883,22.1566,22.194,22.194,22.209,22.2912,22.4034,20.6835,20.6835,20.6835,20.6835,20.6835,20.6835,20.6835,20.6835,20.6835,20.6835,20.6835,20.6835,20.6835,20.6835,20.6835,20.6835,20.691,20.7882,20.8032,20.7059,20.691,20.691,20.7134,20.8032,20.9377,21.1023,21.2593,21.3715,21.4537,21.6481,21.7902,21.8575,21.9996,22.0744,22.0819,22.1342,22.1566,22.1716,22.2763,22.2763,22.1865,22.2763,22.2763,22.1641,22.1043,22.0519,21.9996,21.7977,21.6855,21.6855,21.6781,21.6781,21.6781,21.6781,21.6781,21.6781,21.6781,21.6781,21.6781,21.6855,21.693,21.6781,21.6855,21.6781,21.6781,21.6855,21.693,21.7005,21.7678,21.8351,21.85,21.9482,21.9108,21.7005,21.6781,21.693,21.708,21.693,21.7229,21.8126,21.8351,21.8808,21.9706,21.9921,21.9772,21.9772,21.9846,21.9846,21.9846,21.8874,21.8351,21.8351,21.7678,21.7229,21.7528,21.7827,21.7977,21.7827,21.7678,21.7678,21.7528,21.7603,21.7753,21.8201,21.9099,21.9631,21.9697,21.9697,21.9473,21.9697,21.9921,22.037,22.0893,22.1865,22.3137,20.6835,20.6835,20.6835,20.6835,20.6835,20.6835,20.6835,20.6835,20.6835,20.6835,20.6835,20.6835,20.6835,20.6835,20.6835,20.6835,20.6835,20.6985,20.6985,20.6835,20.6835,20.6835,20.6835,20.7059,20.7957,20.9377,21.0873,21.2443,21.3939,21.4462,21.5584,21.693,21.85,21.9099,21.9099,22.037,22.1342,22.1267,22.1417,22.1492,22.1566,22.1492,22.1492,22.1118,21.9846,21.85,21.708,21.6855,21.6781,21.6781,21.6781,21.6781,21.6781,21.6781,21.6781,21.6781,21.6781,21.6781,21.6781,21.6781,21.6781,21.6781,21.6781,21.6781,21.6781,21.6781,21.6781,21.6781,21.693,21.693,21.693,21.7154,21.708,21.6781,21.6781,21.6781,21.6781,21.6781,21.6781,21.693,21.7005,21.6855,21.6855,21.7304,21.7528,21.7453,21.7379,21.7453,21.7528,21.7379,21.693,21.6855,21.6855,21.6781,21.6781,21.6781,21.6781,21.6855,21.6781,21.6781,21.6781,21.6781,21.7154,21.7229,21.8126,21.8201,21.8276,21.8276,21.8052,21.7977,21.7603,21.7827,21.9248,22.0893,22.2164,20.6835,20.6835,20.6835,20.6835,20.6835,20.6835,20.6835,20.6835,20.6835,20.6835,20.6835,20.6835,20.6835,20.6835,20.6835,20.6835,20.6835,20.6835,20.6835,20.6835,20.6835,20.6835,20.6835,20.6835,20.7134,20.7658,20.8256,20.9826,21.2294,21.364,21.5061,21.6706,21.7229,21.7528,21.7603,21.7977,21.8351,21.85,21.9398,21.9323,21.8575,21.9323,21.9398,21.8426,21.7827,21.7229,21.6855,21.6781,21.6781,21.6781,21.6781,21.6781,21.6781,21.6781,21.6781,21.6781,21.6781,21.6781,21.6781,21.6781,21.6781,21.6781,21.6781,21.6781,21.6781,21.6781,21.6781,21.6781,21.6781,21.6781,21.6781,21.6781,21.6781,21.6781,21.6781,21.6781,21.6781,21.6781,21.6781,21.6781,21.6781,21.6781,21.6781,21.6781,21.6781,21.6781,21.6781,21.6781,21.6781,21.6781,21.6781,21.6781,21.6781,21.6781,21.6781,21.6781,21.6781,21.6781,21.6781,21.6781,21.6781,21.6781,21.6855,21.6781,21.6855,21.6781,21.6781,21.6855,21.6855,21.693,21.6855,21.693,21.8052,21.9772,22.1267,20.6835,20.6835,20.6835,20.6835,20.6835,20.6835,20.6835,20.6835,20.6835,20.6835,20.6835,20.6835,20.6835,20.6835,20.6835,20.6835,20.6835,20.6835,20.6835,20.6835,20.6835,20.6835,20.6835,20.6835,20.6835,20.6835,20.6835,20.848,21.1546,21.3416,21.5061,21.6481,21.6781,21.6781,21.6781,21.6781,21.6781,21.6855,21.7678,21.7753,21.7005,21.7678,21.7753,21.6855,21.6781,21.6481,21.5883,21.5808,21.5509,21.4986,21.4911,21.4986,21.4903,21.4911,21.5135,21.5808,21.6407,21.6781,21.6781,21.6781,21.6781,21.6781,21.6781,21.6781,21.6781,21.6781,21.6781,21.6781,21.6781,21.6781,21.6781,21.6781,21.6781,21.6781,21.6781,21.6781,21.6781,21.6781,21.6781,21.6781,21.6781,21.6781,21.6781,21.6781,21.6781,21.6781,21.6781,21.6781,21.6781,21.6781,21.6781,21.6781,21.6781,21.6781,21.6781,21.6781,21.6781,21.6781,21.6781,21.6781,21.6781,21.6781,21.6781,21.6781,21.6781,21.6781,21.6781,21.6781,21.6781,21.6781,21.6781,21.6855,21.6781,21.9622,22.1043,20.6611,20.6536,20.6536,20.6461,20.6536,20.6461,20.6536,20.6536,20.6611,20.676,20.6835,20.6835,20.676,20.6611,20.6536,20.6686,20.6835,20.6835,20.6835,20.6835,20.6835,20.6835,20.6835,20.6835,20.6835,20.6835,20.6835,20.8331,21.1247,21.3116,21.4986,21.6631,21.6781,21.6781,21.6781,21.6781,21.6781,21.6781,21.6855,21.6781,21.6781,21.6706,21.6631,21.6481,21.6481,21.5584,21.4313,21.4088,21.3416,21.1838,21.192,21.1845,21.1838,21.1845,21.2593,21.4006,21.5659,21.6631,21.6706,21.6781,21.6781,21.6781,21.6781,21.6781,21.6781,21.6781,21.6781,21.6781,21.6407,21.6182,21.6182,21.5874,21.6108,21.6182,21.6332,21.6332,21.6332,21.6033,21.6481,21.6481,21.6407,21.6481,21.6781,21.6781,21.6781,21.6781,21.6781,21.6781,21.6781,21.6781,21.6781,21.6781,21.6781,21.6781,21.6781,21.6781,21.6781,21.6781,21.6781,21.6781,21.6781,21.6781,21.6781,21.6781,21.6781,21.6781,21.6781,21.6781,21.6781,21.6781,21.6781,21.6781,21.6781,21.9473,22.1043,20.3246,20.3321,20.3321,20.3321,20.3321,20.3321,20.3919,20.4891,20.504,20.5713,20.676,20.6835,20.6162,20.5115,20.4966,20.5713,20.676,20.6835,20.6835,20.6835,20.6835,20.6835,20.6835,20.6835,20.6835,20.6835,20.6835,20.7359,20.8331,21.0948,21.3864,21.6407,21.6781,21.6781,21.6781,21.6781,21.6781,21.6781,21.6781,21.6781,21.6556,21.5584,21.4911,21.4762,21.3715,21.2892,21.2369,21.2369,21.2144,21.1702,21.1621,21.1621,21.1702,21.1702,21.1926,21.2518,21.4014,21.5435,21.6706,21.6781,21.6781,21.6781,21.6781,21.6781,21.6781,21.6781,21.6781,21.6481,21.4529,21.3183,21.3025,21.3025,21.3025,21.3025,21.3025,21.3034,21.3191,21.3042,21.364,21.4694,21.4918,21.5285,21.6407,21.6631,21.6631,21.6631,21.6706,21.6781,21.6781,21.6781,21.6781,21.6781,21.6781,21.6781,21.6781,21.6781,21.6781,21.6781,21.6781,21.6781,21.6781,21.6781,21.6781,21.6781,21.6781,21.6781,21.6781,21.6781,21.6781,21.6781,21.6781,21.6781,21.6781,21.8351,21.9996,20.1975,20.1975,20.1975,20.1975,20.1975,20.1975,20.2498,20.3321,20.3321,20.3919,20.4816,20.4891,20.4293,20.3321,20.3321,20.3844,20.4816,20.4816,20.519,20.5788,20.5788,20.6162,20.676,20.6835,20.6835,20.6835,20.6835,20.7134,20.8032,20.9751,21.2443,21.5435,21.6407,21.6781,21.6781,21.6781,21.6781,21.6781,21.6781,21.6033,21.4762,21.3715,21.3191,21.3042,21.2219,21.1397,21.0798,21.0724,21.035,20.9757,20.9677,20.9677,20.9682,20.9682,21.0056,21.0724,21.1696,21.2892,21.4529,21.4762,21.4687,21.4687,21.4604,21.4678,21.4678,21.4687,21.4687,21.4462,21.2892,21.1614,21.1688,21.1614,21.1614,21.1688,21.1688,21.1688,21.1696,21.1696,21.192,21.2973,21.3198,21.3565,21.4379,21.4678,21.4903,21.565,21.6407,21.6781,21.6781,21.6781,21.6781,21.6781,21.6781,21.6781,21.6781,21.6781,21.6781,21.6781,21.6781,21.6781,21.6781,21.6781,21.6781,21.6781,21.6781,21.6781,21.6631,21.6781,21.6781,21.6781,21.6781,21.6781,21.6781,21.7977,21.9173,20.1451,20.1526,20.1376,20.1526,20.1376,20.1376,20.1526,20.1675,20.1675,20.1675,20.1526,20.1451,20.1526,20.1675,20.175,20.19,20.2124,20.1975,20.2797,20.3994,20.4218,20.5115,20.6461,20.676,20.6835,20.6835,20.6835,20.7583,20.8779,20.9303,21.0873,21.364,21.5584,21.6481,21.6481,21.6481,21.6481,21.6556,21.6332,21.4836,21.1845,21.1546,21.1471,21.1471,21.1322,21.0574,20.9153,20.9153,20.8405,20.6985,20.676,20.6611,20.6611,20.6461,20.7059,20.8474,20.8779,20.9527,21.0784,21.109,21.1247,21.1247,21.124,21.1307,21.1531,21.0948,21.058,21.0654,21.0654,21.028,21.0729,21.0654,21.0505,21.035,21.0724,21.1247,21.1023,21.1247,21.1322,21.1403,21.1477,21.1621,21.1987,21.2137,21.2511,21.3781,21.5285,21.6182,21.6257,21.6481,21.6706,21.6257,21.6182,21.6108,21.6033,21.6257,21.58,21.5949,21.6182,21.5883,21.5734,21.5808,21.6182,21.5285,21.5883,21.5808,21.5883,21.6257,21.6033,21.5584,21.5734,21.6108,21.6407,21.7229,21.8276,19.8086,19.8086,19.8086,19.8086,19.8011,19.8011,19.8834,20.003,20.003,19.9283,19.8161,19.8086,19.8759,19.9956,19.9956,20.0703,20.1825,20.1975,20.2124,20.2573,20.3694,20.4517,20.4966,20.6237,20.6835,20.6835,20.6835,20.7059,20.7508,20.8705,20.9751,21.0649,21.3341,21.4762,21.4762,21.4762,21.4762,21.4687,21.349,21.2443,21.1696,21.0499,20.9901,20.9826,20.863,20.7732,20.7433,20.7433,20.7209,20.6835,20.5564,20.4891,20.4812,20.3769,20.3242,20.361,20.4737,20.5559,20.6008,20.7129,20.7882,20.7887,20.7876,20.8474,20.9228,20.5498,20.3101,20.4218,20.4438,20.4438,20.4587,20.5335,20.5933,20.6008,20.7134,20.7882,20.7957,20.7957,20.8331,20.9682,20.9906,21.0355,21.1328,21.1702,21.1696,21.2294,21.3715,21.4687,21.4911,21.5958,21.5435,21.3789,21.2817,21.3042,21.2884,21.2876,21.3034,21.2801,21.2876,21.3109,21.3116,21.2967,21.2892,21.3042,21.3042,21.3116,21.2967,21.2967,21.3042,21.3183,21.3183,21.3042,21.3191,21.4388,21.5584,19.5095,19.5843,19.5843,19.6291,19.689,19.689,19.7413,19.8236,19.831,19.7787,19.6964,19.689,19.7413,19.8236,19.831,19.8759,19.9656,19.9656,20.003,20.0853,20.1675,20.2498,20.3321,20.4891,20.5713,20.5713,20.6461,20.6835,20.691,20.7732,20.8555,20.9452,21.1097,21.2369,21.2967,21.3042,21.3042,21.2967,21.0649,20.9452,20.9452,20.863,20.8181,20.8181,20.7359,20.6536,20.5713,20.5639,20.534,20.4667,20.3694,20.2872,20.2124,20.1302,20.0554,19.9874,19.9953,20.003,20.0032,20.0177,20.0554,20.1302,20.2127,20.1827,19.9721,19.7675,19.7291,19.8751,19.965,20.0256,20.1002,20.175,20.242,20.3167,20.4064,20.4587,20.4592,20.4592,20.4966,20.5713,20.5938,20.6536,20.8106,20.8331,20.8854,21.0574,21.1397,21.2369,21.3042,21.3946,21.3877,21.2313,21.1782,21.1702,21.1696,21.1696,21.1614,21.1688,21.1688,21.1614,21.1696,21.1696,21.1696,21.1696,21.1696,21.1696,21.1696,21.1621,21.1696,21.1614,21.1696,21.1696,21.1696,21.2369,21.2817,19.2926,19.4198,19.4198,19.502,19.6291,19.6516,19.6591,19.6591,19.6366,19.6217,19.6217,19.6217,19.6291,19.6217,19.6217,19.6366,19.6591,19.6591,19.7488,19.9058,19.9357,20.018,20.1675,20.3246,20.3994,20.4068,20.5414,20.6237,20.6461,20.6461,20.7359,20.8779,20.9004,20.9826,21.1247,21.1322,21.1247,21.0948,20.8256,20.6686,20.6536,20.6461,20.6386,20.6162,20.6087,20.5414,20.4068,20.3994,20.3321,20.1975,20.1526,20.0554,19.9209,19.8386,19.7413,19.5989,19.4123,19.307,19.2831,19.1354,19.113,19.2797,19.4714,19.3066,18.6945,18.8922,19.148,19.3485,19.4763,19.6454,19.7784,19.8237,19.9058,20.0248,20.0921,20.1298,20.1302,20.1227,20.1376,20.1827,20.1526,20.2348,20.3994,20.4363,20.5559,20.7732,20.856,20.9458,21.0509,21.0965,21.0817,21.1037,21.0892,21.0738,21.0131,21.043,20.9751,21.035,20.9901,20.9602,20.9452,20.9452,20.9527,21.0051,20.9602,20.9751,20.9826,21.0275,20.9751,20.9602,20.9452,20.9677,20.9527,20.9761,20.9312,19.2253,19.2478,19.2478,19.2627,19.3001,19.4347,19.502,19.4871,19.3525,0.0,0.0,19.2926,19.2926,19.2926,19.2926,19.3674,19.4945,19.4945,19.5843,19.7413,19.8834,19.9582,19.9956,20.1601,20.2348,20.2348,20.2648,20.347,20.4741,20.4741,20.5564,20.7134,20.7284,20.8106,20.9677,20.9751,20.9078,20.7732,20.7134,20.6162,20.4816,20.4741,20.4143,20.2872,20.2797,20.2722,20.2348,20.2348,20.2276,20.1902,19.9283,19.7637,19.7264,19.3748,19.0833,18.9189,18.646,18.4273,18.2886,18.1203,18.1064,18.2811,18.5691,18.4802,17.8677,17.9824,18.2736,18.7078,18.7472,18.8223,18.9832,19.2093,19.3673,19.3969,19.6213,19.7787,19.7787,19.7787,19.8162,19.9584,19.9658,20.0556,20.2052,20.2423,20.2947,20.3775,20.5048,20.6468,20.7586,20.6359,20.5425,20.6478,20.6725,20.6381,20.587,20.519,20.3915,20.4288,20.4064,20.369,20.3694,20.3694,20.3694,20.4296,20.3694,20.3997,20.3847,20.4146,20.3694,20.3694,20.3694,20.362,20.3772,20.3924,20.399,18.7542,18.8365,18.9188,19.0085,0.0,19.2553,19.188,18.9561,18.9561,18.9561,18.9561,18.9561,19.001,19.0758,19.0758,19.173,19.33,19.4198,19.4945,19.5768,19.7413,19.8161,19.8236,19.9881,20.0703,20.0703,20.1526,20.2348,20.3096,20.3096,20.3545,20.4367,20.4367,20.519,20.676,20.676,20.6013,20.4367,20.4367,20.3994,20.3171,20.3096,20.2722,20.1975,20.1975,0.0,0.0,0.0,0.0,0.0,0.0,0.0,0.0,18.8365,0.0,18.1524,17.6796,17.3469,17.1818,16.9494,16.9232,17.1716,17.3474,17.1367,16.4345,16.9068,17.3713,17.6906,17.9429,18.1383,18.2943,18.5054,18.6701,18.7471,18.9559,19.0969,19.1044,19.1718,19.2767,19.4254,19.4629,19.5612,19.8012,19.846,19.934,20.1127,20.2321,20.3579,20.4933,20.3637,20.274,20.4014,20.4089,20.3863,20.3454,20.2652,20.2274,20.2121,20.2195,20.2276,20.2201,20.2345,20.249,20.249,20.249,20.249,20.2415,20.2415,20.2415,20.249,20.249,20.166,19.8116,19.906,20.025,18.2906,18.4252,18.5673,18.7019,18.8141,18.8589,18.6645,18.3355,18.4701,18.5374,18.5299,18.5299,18.5972,18.7243,18.7542,18.8589,19.0234,19.2253,19.33,19.3674,19.5245,19.5992,19.6067,19.7413,19.8236,19.861,19.9881,20.0853,20.1526,20.1526,20.1675,20.1975,20.1975,20.2573,20.3769,0.0,0.0,0.0,20.1825,20.1825,20.1526,20.1526,20.1302,20.1002,20.0703,0.0,19.8535,19.689,19.5319,19.3674,19.2029,0.0,0.0,0.0,0.0,0.0,0.0,0.0,0.0,0.0,0.0,0.0,15.6996,15.3592,14.8799,15.616,16.2761,16.6211,17.0464,17.3724,17.5431,17.7057,17.8523,17.9616,18.1364,18.2426,18.2379,18.4104,18.5893,18.7503,18.8282,18.975,19.2477,19.3873,19.5529,19.7966,19.9455,20.0362,20.1218,20.014,20.0333,20.1987,20.1716,20.1456,20.117,20.069,20.0032,20.0481,20.0556,20.0553,20.0434,20.0688,20.0975,20.0825,20.105,20.09,20.09,20.1125,20.0674,20.105,20.0975,19.9589,19.4645,19.5573,19.7274,18.2233,18.2458,18.2682,18.2906,18.2757,17.8719,17.7447,17.8195,17.8494,17.8569,17.8569,17.8569,17.8644,17.8943,18.0364,18.1859,18.3579,18.672,18.8888,19.0234,19.188,19.2702,19.2702,19.2852,19.3749,19.517,19.5394,19.6964,19.9731,19.9806,20.0479,20.19,20.1975,20.2049,20.2124,19.9357,19.846,19.9808,20.1227,20.1302,19.9806,19.9806,19.9058,19.7637,19.6217,19.5394,19.517,19.3525,19.188,19.0232,18.8664,18.5676,18.1123,17.6535,17.0692,0.0,15.6626,0.0,0.0,0.0,0.0,0.0,0.0,0.0,0.0,13.9732,14.728,15.7526,16.0199,16.262,16.5638,16.7178,16.8106,16.8425,17.0826,17.2544,17.2566,17.5219,17.7733,17.9369,18.2129,18.4678,18.6712,18.9634,19.166,19.266,19.4719,19.5639,19.4274,19.3616,19.4499,19.7527,19.7679,19.7237,19.6747,19.5591,19.4794,19.441,19.4704,19.4232,19.4809,19.4767,19.4691,19.4691,19.4993,19.4842,19.4487,19.4691,19.4691,19.4993,19.4744,19.4368,19.3892,19.4204,19.4572,17.5354,17.5354,17.5354,17.3709,17.1166,16.9895,16.982,17.0493,17.0493,17.0493,17.0418,16.9521,16.9596,17.0568,17.2213,17.4307,17.6924,18.0139,18.3056,18.5449,18.7169,18.8888,19.0608,19.0683,19.1506,19.3151,19.3151,19.3899,19.5319,19.5319,19.5693,19.6441,19.6441,19.5095,19.2692,19.292,19.3372,19.4193,19.6666,19.7937,19.8011,19.8011,19.7264,19.5693,19.4945,19.4123,19.3151,19.0683,18.8589,18.6869,18.3649,17.9242,17.3579,16.7065,15.9807,0.0,0.0,0.0,0.0,0.0,0.0,0.0,0.0,0.0,0.0,0.0,13.2318,14.1114,14.8396,15.3485,15.5734,15.7445,15.83,15.8242,15.9406,16.0507,16.1291,16.4307,16.771,17.1043,17.4392,17.7362,17.999,18.3429,18.6001,18.7255,18.7351,18.7452,18.7891,18.8148,18.9318,19.2525,19.298,19.2657,19.2347,19.2229,19.225,19.2116,19.2909,19.3689,19.375,19.3826,19.3892,19.3892,19.3892,19.3892,19.3892,19.3892,19.3892,19.3406,19.1111,18.9306,19.0028,19.1003,19.19,16.8474,16.7876,16.4735,16.1295,15.8005,16.0024,16.1146,16.152,16.152,16.152,16.1445,15.9725,15.965,16.0996,16.2941,16.5259,16.7876,17.2363,17.5877,17.8719,18.163,18.4472,18.724,18.776,18.8807,19.0379,19.0379,19.0603,19.0978,19.0978,19.0828,19.0304,18.8054,18.5345,18.2466,18.5786,18.8034,18.8784,19.1872,19.4496,19.6291,19.6366,19.5618,19.3973,19.3226,19.2179,19.0907,18.7393,18.4327,18.1789,17.7208,17.1147,16.355,15.5896,0.0,0.0,0.0,0.0,0.0,0.0,0.0,0.0,0.0,10.2184,10.547,0.0,11.8405,0.0,13.571,14.3301,14.5274,14.6915,0.0,0.0,14.752,14.8183,14.9274,15.2751,15.667,16.1131,16.5247,16.9001,17.2214,17.6408,17.9238,17.9394,17.8648,17.9146,18.1986,18.2866,18.4287,18.6868,18.7374,18.736,18.7102,18.7982,18.8615,18.8926,19.0223,19.1451,19.1846,19.2093,19.2152,19.2152,19.2076,19.2152,19.1925,19.2076,19.1805,19.0758,18.7107,18.4211,18.5766,18.7011,18.8312,16.4511,16.2043,15.0079,14.4844,14.477,14.7761,15.0004,15.1425,15.1425,15.1425,15.1275,14.963,14.8957,14.9256,15.2397,0.0,15.4565,16.2417,16.6829,16.8773,17.5103,17.9062,18.0859,18.2488,18.4052,18.5627,18.5627,18.6376,18.7801,18.7876,18.7126,18.5402,17.6796,17.2874,17.4168,17.8688,18.2516,18.5442,18.8634,19.1801,19.487,19.4871,19.3973,19.2253,18.9337,18.7767,18.7393,18.2981,17.8201,17.3573,16.8838,16.1147,15.032,0.0,0.0,0.0,0.0,0.0,0.0,0.0,0.0,0.0,0.0,0.0,0.0,0.0,0.0,11.1162,12.2249,0.0,13.3411,13.5215,0.0,0.0,0.0,13.6156,13.6231,14.0488,14.4751,14.8037,0.0,0.0,16.2625,16.871,17.1186,16.6966,17.0205,17.3654,17.5477,17.7072,17.8666,18.0489,18.0749,18.0758,18.0544,18.0744,18.1323,18.2567,18.2991,18.3815,18.5248,18.5568,18.5585,18.5644,18.5661,18.5644,18.5661,18.5417,18.4642,18.1606,18.0565,18.0706,18.215,18.2641,18.3233,14.8957,13.9685,13.3553,13.1534,13.2656,13.4899,13.6768,13.8264,13.8264,13.8264,13.8114,13.5497,13.4375,13.4375,13.4675,0.0,0.0,0.0,15.3203,15.8724,16.3425,16.8114,17.2596,17.4381,17.6092,17.7605,17.7605,17.7455,17.708,17.7202,17.2573,16.3367,0.0,16.1464,16.3152,16.9786,17.5755,18.0902,18.504,18.8634,19.1797,19.2699,19.1876,18.9188,18.7842,18.5299,18.1336,17.7447,17.1698,16.386,15.8034,14.9243,0.0,0.0,0.0,0.0,0.0,0.0,0.0,0.0,0.0,0.0,0.0,8.0943,8.3297,0.0,0.0,0.0,10.8885,11.6934,12.4224,12.5447,0.0,0.0,0.0,0.0,0.0,0.0,0.0,13.6125,14.3405,14.9775,15.4098,15.6146,15.8035,16.0115,16.3856,16.7428,17.0086,0.0,17.206,17.3807,17.3952,17.3862,17.3862,17.3786,17.4364,17.6033,17.7087,17.8074,17.8797,17.8873,17.9253,18.0088,18.0392,18.0695,18.1758,17.6899,17.243,17.1225,17.0997,17.1908,17.4475,17.5001,17.5836,13.0637,0.0,0.0,0.0,0.0,12.1514,12.3308,12.4804,12.4804,12.4505,12.3907,12.114,0.0,0.0,0.0,0.0,0.0,0.0,13.9417,14.656,15.1482,15.6988,16.2892,16.4654,16.6436,16.8012,16.7562,16.6661,16.5364,16.0436,15.2521,14.217,0.0,0.0,0.0,0.0,16.8842,17.6052,18.1376,18.6166,19.0641,19.0739,19.015,18.8664,18.5823,18.1485,17.5354,17.0194,16.2941,15.31,14.5286,0.0,0.0,0.0,0.0,0.0,0.0,0.0,0.0,0.0,0.0,0.0,0.0,0.0,0.0,0.0,0.0,0.0,0.0,0.0,11.1999,11.5018,11.6128,0.0,0.0,0.0,0.0,0.0,0.0,0.0,0.0,0.0,14.1639,14.3502,14.7079,0.0,0.0,16.2113,16.4999,16.6214,16.7277,16.8491,16.8112,0.0,16.7808,16.7352,16.7425,16.8671,16.9844,17.0618,17.0618,17.0618,17.1073,17.2212,17.2895,17.2364,17.0314,16.4011,15.9607,15.9304,15.9683,16.105,16.3708,16.515,16.6517,0.0,0.0,0.0,0.0,10.4539,0.0,0.0,0.0,11.1344,11.0447,0.0,10.7306,0.0,0.0,0.0,0.0,11.1985,11.993,0.0,0.0,13.9841,14.6542,15.1246,15.3092,15.4885,15.6465,15.4974,15.4038,15.295,13.6552,0.0,0.0,0.0,0.0,0.0,0.0,16.1778,17.1344,17.7758,18.4784,19.2192,18.9366,18.8953,19.1431,18.2682,17.5354,17.0044,16.0772,15.1067,14.122,13.0308,0.0,0.0,0.0,0.0,0.0,0.0,0.0,0.0,0.0,0.0,0.0,0.0,0.0,0.0,0.0,0.0,0.0,0.0,0.0,0.0,10.3115,0.0,0.0,0.0,0.0,0.0,0.0,0.0,0.0,0.0,12.4983,12.392,13.1741,14.0245,14.6927,0.0,0.0,0.0,0.0,16.5075,16.515,16.3784,16.2721,16.2721,16.1354,16.0367,16.0367,0.0,0.0,16.0443,16.0367,16.0367,16.0519,16.1734,15.938,14.837,14.6016,14.5636,14.5636,14.6851,14.8522,15.042,15.285,15.5431,0.0,0.0,0.0,0.0,0.0,0.0,0.0,0.0,0.0,9.6015,9.5342,9.3771,0.0,0.0,0.0,0.0,0.0,0.0,0.0,0.0,12.448,13.0122,13.4976,13.6711,13.7729,0.0,13.7843,13.2068,0.0,0.0,0.0,0.0,0.0,0.0,0.0,0.0,15.4764,16.9418,17.5222,18.1657,18.9184,18.8294,18.7899,18.8664,18.2383,17.3036,16.0622,15.1799,14.0582,0.0,0.0,0.0,0.0,0.0,0.0,0.0,0.0,0.0,0.0,0.0,0.0,0.0,0.0,0.0,0.0,0.0,0.0,0.0,0.0,0.0,0.0,0.0,9.8407,0.0,0.0,0.0,0.0,0.0,0.0,0.0,0.0,0.0,11.458,12.2097,13.0981,13.9789,14.6775,15.2394,15.6115,0.0,0.0,0.0,0.0,0.0,0.0,0.0,15.4824,15.3685,15.2622,15.1103,14.8977,14.7686,14.7307,14.837,0.0,0.0,13.2652,13.1209,13.1969,13.1969,13.2424,13.3639,13.6448,13.7891,13.9789,0.0,0.0,0.0,0.0,0.0,0.0,0.0,0.0,0.0,8.3377,8.2779,0.0,0.0,0.0,0.0,0.0,0.0,0.0,0.0,0.0,0.0,0.0,11.9863,12.1025,0.0,0.0,0.0,0.0,0.0,0.0,0.0,0.0,0.0,0.0,0.0,0.0,14.8946,16.5581,17.2894,18.0264,18.7828,18.7804,18.7576,18.7165,18.1859,17.2213,15.8005,0.0,0.0,0.0,0.0,0.0,0.0,0.0,0.0,0.0,0.0,0.0,0.0,0.0,0.0,0.0,0.0,0.0,0.0,0.0,0.0,0.0,0.0,0.0,0.0,0.0,8.9903,0.0,0.0,0.0,0.0,0.0,0.0,0.0,0.0,0.0,0.0,11.3441,12.2173,13.2728,13.9941,14.6168,15.1711,15.4368,15.6039,0.0,0.0,0.0,0.0,0.0,0.0,0.0,0.0,0.0,0.0,0.0,0.0,0.0,0.0,12.6274,11.739,11.6175,11.6554,11.6554,0.0,0.0,0.0,0.0,0.0,0.0,0.0,0.0,0.0,0.0,0.0,0.0,0.0,0.0,0.0,7.1114,0.0,0.0,6.9123,0.0,0.0,0.0,0.0,0.0,0.0,0.0,0.0,0.0,0.0,0.0,0.0,0.0,0.0,0.0,0.0,0.0,0.0,0.0,0.0,0.0,0.0,14.4678,15.9667,17.0926,18.0429,18.8108,18.7963,18.7619,18.7075,18.0657,17.2437,16.2342,0.0,0.0,0.0,0.0,0.0,0.0,0.0,0.0,0.0,0.0,0.0,0.0,0.0,0.0,0.0,0.0,0.0,0.0,0.0,0.0,0.0,0.0,0.0,0.0,0.0,0.0,8.6865,9.0282,9.089,0.0,0.0,0.0,0.0,0.0,0.0,0.0,0.0,0.0,12.5742,13.3032,13.9713,14.6471,15.0268,15.2926,15.452,15.3457,15.1938,15.0192,14.7155,14.3738,0.0,0.0,0.0,0.0,0.0,0.0,0.0,0.0,0.0,0.0,0.0,0.0,0.0,0.0,0.0,0.0,0.0,0.0,0.0,0.0,0.0,0.0,0.0,0.0,0.0,0.0,0.0,0.0,0.0,0.0,0.0,0.0,0.0,0.0,0.0,0.0,0.0,0.0,0.0,0.0,0.0,0.0,0.0,0.0,0.0,0.0,0.0,0.0,0.0,0.0,0.0,0.0,0.0,0.0,14.0098,15.9575,16.9864,17.8939,18.6737,18.7527,18.663,18.393,17.7433,16.8624,0.0,0.0,0.0,0.0,0.0,0.0,0.0,0.0,0.0,0.0,0.0,0.0,0.0,0.0,0.0,0.0,0.0,0.0,0.0,0.0,0.0,0.0,0.0,0.0,0.0,0.0,0.0,0.0,8.3448,8.5043,8.4056,0.0,0.0,0.0,0.0,0.0,0.0,0.0,0.0,0.0,0.0,13.331,14.1129,14.5099,14.7914,14.9509,14.9357,14.8446,14.6775,14.3662,13.9941,13.5537,0.0,0.0,0.0,0.0,0.0,0.0,0.0,0.0,0.0,0.0,0.0,0.0,0.0,0.0,0.0,0.0,0.0,0.0,0.0,0.0,0.0,0.0,0.0,0.0,0.0,0.0,0.0,0.0,0.0,0.0,0.0,0.0,0.0,0.0,0.0,0.0,0.0,0.0,0.0,0.0,0.0,0.0,0.0,0.0,0.0,0.0,0.0,0.0,0.0,0.0,0.0,0.0,0.0,13.759,15.765,16.8232,17.7154,18.4229,18.577,18.4633,18.094,17.3706,16.4009,0.0,0.0,0.0,0.0,0.0,0.0,0.0,0.0,0.0,0.0,0.0,0.0,0.0,0.0,0.0,0.0,0.0,0.0,0.0,0.0,0.0,0.0,0.0,0.0,0.0,0.0,0.0,0.0,7.7981,8.0107,8.1398,0.0,0.0,0.0,0.0,0.0,0.0,0.0,0.0,0.0,0.0,12.6718,13.5019,13.9018,0.0,0.0,14.4573,14.4042,14.2371,13.9334,13.5234,12.9615,12.3996,0.0,0.0,0.0,0.0,0.0,0.0,0.0,0.0,0.0,0.0,0.0,0.0,0.0,0.0,0.0,0.0,0.0,0.0,0.0,0.0,0.0,0.0,0.0,0.0,0.0,0.0,0.0,0.0,0.0,0.0,0.0,0.0,0.0,0.0,0.0,0.0,0.0,0.0,0.0,0.0,0.0,0.0,0.0,0.0,0.0,0.0,0.0,0.0,0.0,0.0,0.0,0.0,13.6357,15.4401,16.626,17.542,18.1685,18.3134,18.1818,17.8017,16.9807,15.8951,0.0,0.0,0.0,0.0,0.0,0.0,0.0,0.0,0.0,0.0,0.0,0.0,0.0,0.0,0.0,0.0,0.0,0.0,0.0,0.0,0.0,0.0,0.0,0.0,0.0,0.0,0.0,0.0,0.0,0.0,0.0,0.0,0.0,0.0,0.0,0.0,0.0,0.0,0.0,0.0,0.0,11.9959,12.8407,13.2185,13.5385,0.0,13.9106,13.8575,13.6828,13.3943,12.9615,12.2857,0.0,0.0,0.0,0.0,0.0,0.0,0.0,0.0,0.0,0.0,0.0,0.0,0.0,0.0,0.0,0.0,0.0,0.0,0.0,0.0,0.0,0.0,0.0,0.0,0.0,0.0,0.0,0.0,0.0,0.0,0.0,0.0,0.0,0.0,0.0,0.0,0.0,0.0,0.0,0.0,0.0,0.0,0.0,0.0,0.0,0.0,0.0,0.0,0.0,0.0,0.0,0.0,0.0,0.0,15.2808,16.5812,17.5498,18.1734,18.3281,18.1091,17.4864,16.7679,0.0,0.0,0.0,0.0,0.0,0.0,0.0,0.0,0.0,0.0,0.0,0.0,0.0,0.0,0.0,0.0,0.0,0.0,0.0,0.0,0.0,0.0,0.0,0.0,0.0,0.0,0.0,6.1884,0.0,0.0,0.0,0.0,0.0,0.0,0.0,0.0,0.0,0.0,0.0,0.0,0.0,0.0,11.4802,12.317,12.6111,12.8248,0.0,0.0,13.007,12.84,12.635,12.2705,0.0,0.0,0.0,0.0,0.0,0.0,0.0,0.0,0.0,0.0,0.0,0.0,0.0,0.0,0.0,0.0,0.0,0.0,0.0,0.0,0.0,0.0,0.0,0.0,0.0,0.0,0.0,0.0,0.0,0.0,0.0,0.0,0.0,0.0,0.0,0.0,0.0,0.0,0.0,0.0,0.0,0.0,0.0,0.0,0.0,0.0,0.0,0.0,0.0,0.0,0.0,0.0,0.0,0.0,13.1888,14.9997,16.3468,17.3512,17.9746,18.1446,17.9272,17.3008,16.5522,15.3252,0.0,0.0,0.0,0.0,0.0,0.0,0.0,0.0,0.0,0.0,0.0,0.0,0.0,0.0,0.0,0.0,0.0,0.0,0.0,0.0,0.0,0.0,0.0,0.0,0.0,0.0,0.0,0.0,0.0,0.0,0.0,0.0,0.0,0.0,0.0,0.0,0.0,0.0,0.0,0.0,0.0,0.0,11.6028,11.8519,0.0,0.0,0.0,12.1794,12.0807,0.0,0.0,0.0,0.0,0.0,0.0,0.0,0.0,0.0,0.0,0.0,0.0,0.0,0.0,0.0,0.0,0.0,0.0,0.0,0.0,0.0,0.0,0.0,0.0,0.0,0.0,0.0,0.0,0.0,0.0,0.0,0.0,0.0,0.0,0.0,0.0,0.0,0.0,0.0,0.0,0.0,0.0,0.0,0.0,0.0,0.0,0.0,0.0,0.0,0.0,0.0,0.0,0.0,0.0,0.0,0.0,0.0,14.6623,16.0388,17.0573,17.7147,17.8966,17.7171,17.1833,16.3734,15.125,0.0,0.0,0.0,0.0,0.0,0.0,0.0,0.0,0.0,0.0,0.0,0.0,0.0,0.0,0.0,0.0,0.0,0.0,0.0,0.0,0.0,0.0,0.0,0.0,0.0,0.0,0.0,0.0,0.0,0.0,0.0,0.0,0.0,0.0,0.0,0.0,0.0,0.0,0.0,0.0,0.0,10.3242,10.827,11.0315,11.1923,0.0,0.0,11.3593,11.3364,11.0632,0.0,0.0,0.0,0.0,0.0,0.0,0.0,0.0,0.0,0.0,0.0,0.0,0.0,0.0,0.0,0.0,0.0,0.0,0.0,0.0,0.0,0.0,0.0,0.0,0.0,0.0,0.0,0.0,0.0,0.0,0.0,0.0,0.0,0.0,0.0,0.0,0.0,0.0,0.0,0.0,0.0,0.0,0.0,0.0,0.0,0.0,0.0,0.0,0.0,0.0,0.0,0.0,0.0,0.0,0.0,0.0,14.3282,15.8035,16.9424,17.7147,17.9044,17.6716,17.0299,16.3258,15.0357,0.0,0.0,0.0,0.0,0.0,0.0,0.0,0.0,0.0,0.0,0.0,0.0,0.0,0.0,0.0,0.0,0.0,0.0,0.0,0.0,0.0,0.0,0.0,0.0,0.0,0.0,0.0,0.0,0.0,0.0,0.0,0.0,0.0,0.0,0.0,0.0,0.0,0.0,0.0,0.0,0.0,9.8,10.2998,10.4122,0.0,0.0,0.0,0.0,10.3155,10.1362,0.0,0.0,0.0,0.0,0.0,0.0,0.0,0.0,0.0,0.0,0.0,0.0,0.0,0.0,0.0,0.0,0.0,0.0,0.0,0.0,0.0,0.0,0.0,0.0,0.0,0.0,0.0,0.0,0.0,0.0,0.0,0.0,0.0,0.0,0.0,0.0,0.0,0.0,0.0,0.0,0.0,0.0,0.0,0.0,0.0,0.0,0.0,0.0,0.0,0.0,0.0,0.0,0.0,0.0,0.0,0.0,13.7663,15.4127,16.6637,17.4767,17.8259,17.6707,16.9924,16.2493,14.9447,0.0,0.0,0.0,0.0,0.0,0.0,0.0,0.0,0.0,0.0,0.0,0.0,0.0,0.0,0.0,0.0,0.0,0.0,0.0,0.0,0.0,0.0,0.0,0.0,0.0,0.0,0.0,0.0,0.0,0.0,0.0,0.0,0.0,0.0,0.0,0.0,0.0,0.0,0.0,0.0,8.8222,9.2284,9.5757,0.0,0.0,0.0,0.0,0.0,0.0,9.3718,9.1259,0.0,0.0,0.0,0.0,0.0,0.0,0.0,0.0,0.0,0.0,0.0,0.0,0.0,0.0,0.0,0.0,0.0,0.0,0.0,0.0,0.0,0.0,0.0,0.0,0.0,0.0,0.0,0.0,0.0,0.0,0.0,0.0,0.0,0.0,0.0,0.0,0.0,0.0,0.0,0.0,0.0,0.0,0.0,0.0,0.0,0.0,0.0,0.0,0.0,0.0,0.0,0.0,0.0,0.0,0.0,13.2044,14.9964,16.348,17.2212,17.7375,17.6757,16.9995,16.1851,14.868,13.0148,0.0,0.0,0.0,0.0,0.0,0.0,0.0,0.0,0.0,0.0,0.0,0.0,0.0,0.0,0.0,0.0,0.0,0.0,0.0,0.0,0.0,0.0,0.0,0.0,0.0,0.0,0.0,0.0,0.0,0.0,0.0,0.0,0.0,0.0,0.0,0.0,0.0,0.0,0.0,8.3123,8.6465,0.0,0.0,0.0,0.0,0.0,0.0,0.0,0.0,8.4922,0.0,0.0,0.0,0.0,0.0,0.0,0.0,0.0,0.0,0.0,0.0,0.0,0.0,0.0,0.0,0.0,0.0,0.0,0.0,0.0,0.0,0.0,0.0,0.0,0.0,0.0,0.0,0.0,0.0,0.0,0.0,0.0,0.0,0.0,0.0,0.0,0.0,0.0,0.0,0.0,0.0,0.0,0.0,0.0,0.0,0.0,0.0,0.0,0.0,0.0,0.0,0.0,0.0,0.0,0.0,0.0,14.7079,16.1126,17.1984,17.7375,17.6757,16.9995,16.1787,14.8158,12.8544,0.0,0.0,0.0,0.0,0.0,0.0,0.0,0.0,0.0,0.0,0.0,0.0,0.0,0.0,0.0,0.0,0.0,0.0,0.0,0.0,0.0,0.0,0.0,0.0,0.0,0.0,0.0,0.0,0.0,0.0,0.0,0.0,0.0,0.0,0.0,0.0,0.0,0.0,6.8232,7.5782,0.0,0.0,0.0,0.0,0.0,0.0,0.0,0.0,8.1978,0.0,0.0,0.0,0.0,0.0,0.0,0.0,0.0,0.0,0.0,0.0,0.0,0.0,0.0,0.0,0.0,0.0,0.0,0.0,0.0,0.0,0.0,0.0,0.0,0.0,0.0,0.0,0.0,0.0,0.0,0.0,0.0,0.0,0.0,0.0,0.0,0.0,0.0,0.0,0.0,0.0,0.0,0.0,0.0,0.0,0.0,0.0,0.0,0.0,0.0,0.0,0.0,0.0,0.0,0.0,0.0,0.0,0.0,15.6646,16.8188,17.5173,17.5931,16.999,16.0196,14.5476,0.0,0.0,0.0,0.0,0.0,0.0,0.0,0.0,0.0,0.0,0.0,0.0,0.0,0.0,0.0,0.0,0.0,0.0,0.0,0.0,0.0,0.0,0.0,0.0,0.0,0.0,0.0,0.0,0.0,0.0,0.0,0.0,0.0,0.0,0.0,0.0,0.0,0.0,0.0,0.0,0.0,0.0,0.0,0.0,0.0,0.0,0.0,0.0,0.0,0.0,0.0,0.0,0.0,0.0,0.0,0.0,0.0,0.0,0.0,0.0,0.0,0.0,0.0,0.0,0.0,0.0,0.0,0.0,0.0,0.0,0.0,0.0,0.0,0.0,0.0,0.0,0.0,0.0,0.0,0.0,0.0,0.0,0.0,0.0,0.0,0.0,0.0,0.0,0.0,0.0,0.0,0.0,0.0,0.0,0.0,0.0,0.0,0.0,0.0,0.0,0.0,0.0,0.0,0.0,0.0,0.0,0.0,0.0,15.1938,16.4239,17.2668,17.4566,16.963,15.8165,14.2447,0.0,0.0,0.0,0.0,0.0,0.0,0.0,0.0,0.0,0.0,0.0,0.0,0.0,0.0,0.0,0.0,0.0,0.0,0.0,0.0,0.0,0.0,0.0,0.0,0.0,0.0,0.0,0.0,0.0,0.0,0.0,0.0,0.0,0.0,0.0,0.0,0.0,0.0,0.0,0.0,0.0,0.0,0.0,0.0,0.0,0.0,0.0,0.0,7.3847,0.0,0.0,0.0,0.0,0.0,0.0,0.0,0.0,0.0,0.0,0.0,0.0,0.0,0.0,0.0,0.0,0.0,0.0,0.0,0.0,0.0,0.0,0.0,0.0,0.0,0.0,0.0,0.0,0.0,0.0,0.0,0.0,0.0,0.0,0.0,0.0,0.0,0.0,0.0,0.0,0.0,0.0,0.0,0.0,0.0,0.0,0.0,0.0,0.0,0.0,0.0,0.0,0.0,0.0,0.0,0.0,0.0,0.0,0.0,14.7914,16.2493,17.0921,17.2895,16.7732,15.6418,14.0245,0.0,0.0,0.0,0.0,0.0,0.0,0.0,0.0,0.0,0.0,0.0,0.0,0.0,0.0,0.0,0.0,0.0,0.0,0.0,0.0,0.0,0.0,0.0,0.0,0.0,0.0,0.0,0.0,0.0,0.0,0.0,0.0,0.0,0.0,0.0,0.0,0.0,0.0,0.0,0.0,0.0,0.0,0.0,0.0,0.0,0.0,0.0,0.0,0.0,0.0,0.0,0.0,0.0,0.0,0.0,0.0,0.0,0.0,0.0,0.0,0.0,0.0,0.0,0.0,0.0,0.0,0.0,0.0,0.0,0.0,0.0,0.0,0.0,0.0,0.0,0.0,0.0,0.0,0.0,0.0,0.0,0.0,0.0,0.0,0.0,0.0,0.0,0.0,0.0,0.0,0.0,0.0,0.0,0.0,0.0,0.0,0.0,0.0,0.0,0.0,0.0,0.0,0.0,0.0,0.0,0.0,0.0,0.0,13.9106,15.5052,16.5378,16.7352,16.0443,15.0799,13.5006,0.0,0.0,0.0,0.0,0.0,0.0,0.0,0.0,0.0,0.0,0.0,0.0,0.0,0.0,0.0,0.0,0.0,0.0,0.0,0.0,0.0,0.0,0.0,0.0,0.0,0.0,0.0,0.0,0.0,0.0,0.0,0.0,0.0,0.0,0.0,0.0,0.0,0.0,0.0,0.0,0.0,0.0,0.0,0.0,0.0,0.0,0.0,0.0,0.0,0.0,0.0,0.0,0.0,0.0,0.0,0.0,0.0,0.0,0.0,0.0,0.0,0.0,0.0,0.0,0.0,0.0,0.0,0.0,0.0,0.0,0.0,0.0,0.0,0.0,0.0,0.0,0.0,0.0,0.0,0.0,0.0,0.0,0.0,0.0,0.0,0.0,0.0,0.0,0.0,0.0,0.0,0.0,0.0,0.0,0.0,0.0,0.0,0.0,0.0,0.0,0.0,0.0,0.0,0.0,0.0,0.0,0.0,0.0,0.0,14.6851,15.5431,15.695,15.1103,14.2523,12.7489,0.0,0.0,0.0,0.0,0.0,0.0,0.0,0.0,0.0,0.0,0.0,0.0,0.0,0.0,0.0,0.0,0.0,0.0,0.0,0.0,0.0,0.0,0.0,0.0,0.0,0.0,0.0,0.0,0.0,0.0,0.0,0.0,0.0,0.0,0.0,0.0,0.0,0.0,0.0,0.0,0.0,0.0,0.0,0.0,0.0,0.0,0.0,0.0,0.0,0.0,0.0,0.0,0.0,0.0,0.0,0.0,0.0,0.0,0.0,0.0,0.0,0.0,0.0,0.0,0.0,0.0,0.0,0.0,0.0,0.0,0.0,0.0,0.0,0.0,0.0,0.0,0.0,0.0,0.0,0.0,0.0,0.0,0.0,0.0,0.0,0.0,0.0,0.0,0.0,0.0,0.0,0.0,0.0,0.0,0.0,0.0,0.0,0.0,0.0,0.0,0.0,0.0,0.0,0.0,0.0,0.0,0.0,0.0,0.0,14.0245,13.9562,13.9713,14.0473,13.1133,11.7238,0.0,0.0,0.0,0.0,0.0,0.0,0.0,0.0,0.0,0.0,0.0,0.0,0.0,0.0,0.0,0.0,0.0,0.0,0.0,0.0,0.0,0.0,0.0,0.0,0.0,0.0,0.0,0.0,0.0,0.0,0.0,0.0,0.0,0.0,0.0,0.0,0.0,0.0,0.0,0.0,0.0,0.0,0.0,0.0,0.0,0.0,0.0,0.0,0.0,0.0,0.0,0.0,0.0,0.0,0.0,0.0,0.0,0.0,0.0,0.0,0.0,0.0,0.0,0.0,0.0,0.0,0.0,0.0,0.0,0.0,0.0,0.0,0.0,0.0,0.0,0.0,0.0,0.0,0.0,0.0,0.0,0.0,0.0,0.0,0.0,0.0,0.0,0.0,0.0,0.0,0.0,0.0,0.0,0.0,0.0,0.0,0.0,0.0,0.0,0.0,0.0,0.0,0.0,0.0,0.0,0.0,0.0,0.0,0.0,11.7845,12.4527,12.7337,12.5818,11.8149,10.6304,9.0206,0.0,0.0,0.0,0.0,0.0,0.0,0.0,0.0,0.0,0.0,0.0,0.0,0.0,0.0,0.0,0.0,0.0,0.0,0.0,0.0,0.0,0.0,0.0,0.0,0.0,0.0,0.0,0.0,0.0,0.0,0.0,0.0,0.0,0.0,0.0,0.0,0.0,0.0,0.0,0.0,0.0,0.0,0.0,0.0,0.0,0.0,0.0,0.0,0.0,0.0,0.0,0.0,0.0,0.0,0.0,0.0,0.0,0.0,0.0,0.0,0.0,0.0,0.0,0.0,0.0,0.0,0.0,0.0,0.0,0.0,0.0,0.0,0.0,0.0,0.0,0.0,0.0,0.0,0.0,0.0,0.0,0.0,0.0,0.0,0.0,0.0,0.0,0.0,0.0,0.0,0.0,0.0,0.0,0.0,0.0,0.0,0.0,0.0,0.0,0.0,0.0,0.0,0.0,0.0,0.0,0.0,0.0,0.0,9.947,10.8506,11.2302,11.0404,10.395,9.461,0.0,0.0,0.0,0.0,0.0,0.0,0.0,0.0,0.0,0.0,0.0,0.0,0.0,0.0,0.0,0.0,0.0,0.0,0.0,0.0,0.0,0.0,0.0,0.0,0.0,0.0,0.0,0.0,0.0,0.0,0.0,0.0,0.0,0.0,0.0,0.0,0.0,0.0,0.0,0.0,0.0,0.0,0.0,0.0,0.0,0.0,0.0,0.0,0.0,0.0,0.0,0.0,0.0,0.0,0.0,0.0,0.0,0.0,0.0,0.0,0.0,0.0,0.0,0.0,0.0,0.0,0.0,0.0,0.0,0.0,0.0,0.0,0.0,0.0,0.0,0.0,0.0,0.0,0.0,0.0,0.0,0.0,0.0,0.0,0.0,0.0,0.0,0.0,0.0,0.0,0.0,0.0,0.0,0.0,0.0,0.0,0.0,0.0,0.0,0.0,0.0,0.0,0.0,0.0,0.0,0.0,0.0,0.0,7.4413,8.7093,9.1269,9.4231,9.5066,8.8915,8.2082,0.0,0.0,0.0,0.0,0.0,0.0,0.0,0.0,0.0,0.0,0.0,0.0,0.0,0.0,0.0,0.0,0.0,0.0,0.0,0.0,0.0,0.0,0.0,0.0,0.0,0.0,0.0,0.0,0.0,0.0,0.0,0.0,0.0,0.0,0.0,0.0,0.0,0.0,0.0,0.0,0.0,0.0,0.0,0.0,0.0,0.0,0.0,0.0,0.0,0.0,0.0,0.0,0.0,0.0,0.0,0.0,0.0,0.0,0.0,0.0,0.0,0.0,0.0,0.0,0.0,0.0,0.0,0.0,0.0,0.0,0.0,0.0,0.0,0.0,0.0,0.0,0.0,0.0,0.0,0.0,0.0,0.0,0.0,0.0,0.0,0.0,0.0,0.0,0.0,0.0,0.0,0.0,0.0,0.0,0.0,0.0,0.0,0.0,0.0,0.0,0.0,0.0,0.0,0.0,0.0,0.0,0.0,0.0,0.0,7.5552,0.0,8.5423,0.0,7.95,7.4413,0.0,0.0,0.0,0.0,0.0,0.0,0.0,0.0,0.0,0.0,0.0,0.0,0.0,0.0,0.0,0.0,0.0,0.0,0.0,0.0,0.0,0.0,0.0,0.0,0.0,0.0,0.0,0.0,0.0,0.0,0.0,0.0,0.0,0.0,0.0,0.0,0.0,0.0,0.0,0.0,0.0,0.0,0.0,0.0,0.0,0.0,0.0,0.0,0.0,0.0,0.0,0.0,0.0,0.0,0.0,0.0,0.0,0.0,0.0,0.0,0.0,0.0,0.0,0.0,0.0,0.0,0.0,0.0,0.0,0.0,0.0,0.0,0.0,0.0,0.0,0.0,0.0,0.0,0.0,0.0,0.0,0.0,0.0,0.0,0.0,0.0,0.0,0.0,0.0,0.0,0.0,0.0,0.0,0.0,0.0,0.0,0.0,0.0,0.0,0.0,0.0,0.0,0.0,0.0,0.0,0.0,0.0,0.0,0.0,6.8262,7.3957,7.6842,7.6311,7.2135,6.8794,0.0,0.0,0.0,0.0,0.0,0.0,0.0,0.0,0.0,0.0,0.0,0.0,0.0,0.0,0.0,0.0,0.0,0.0,0.0,0.0,0.0,0.0,0.0,0.0,0.0,0.0,0.0,0.0,0.0,0.0,0.0,0.0,0.0,0.0,0.0,0.0,0.0,0.0,0.0,0.0,0.0,0.0,0.0,0.0,0.0,0.0,0.0,0.0,0.0,0.0,0.0,0.0,0.0,0.0,0.0,0.0,0.0,0.0,0.0,0.0,0.0,0.0,0.0,0.0,0.0,0.0,0.0,0.0,0.0,0.0,0.0,0.0,0.0,0.0,0.0,0.0,0.0,0.0,0.0,0.0,0.0,0.0,0.0,0.0,0.0,0.0,0.0,0.0,0.0,0.0,0.0,0.0,0.0,0.0,0.0,0.0,0.0,0.0,0.0,0.0,0.0,0.0,0.0,0.0,0.0,0.0,0.0,0.0,0.0,0.0,6.6592,6.8186,6.9781,6.6592,6.4845,0.0,0.0,0.0,0.0,0.0,0.0,0.0,0.0,0.0,0.0,0.0,0.0,0.0,0.0,0.0,0.0,0.0,0.0,0.0,0.0,0.0,0.0,0.0,0.0,0.0,0.0,0.0,0.0,0.0,0.0,0.0,0.0,0.0,0.0,0.0,0.0,0.0,0.0,0.0,0.0,0.0,0.0,0.0,0.0,0.0,0.0,0.0,0.0,0.0,0.0,0.0,0.0,0.0,0.0,0.0,0.0,0.0,0.0,0.0,0.0,0.0,0.0,0.0,0.0,0.0,0.0,0.0,0.0,0.0,0.0,0.0,0.0,0.0,0.0,0.0,0.0,0.0,0.0,0.0,0.0,0.0,0.0,0.0,0.0,0.0,0.0,0.0,0.0,0.0,0.0,0.0,0.0,0.0,0.0,0.0,0.0,0.0,0.0,0.0,0.0,0.0,0.0,0.0,0.0,0.0,0.0,0.0,0.0,0.0,0.0,6.4769,6.5832,6.6212,6.4314,6.3251,6.3251,0.0,0.0,0.0,0.0,0.0,0.0,0.0,0.0,0.0,0.0,0.0,0.0,0.0,0.0,0.0,0.0,0.0,0.0,0.0,0.0,0.0,0.0,0.0,0.0,0.0,0.0,0.0,0.0,0.0,0.0,0.0,0.0,0.0,0.0,0.0,0.0,0.0,0.0,0.0,0.0,0.0,0.0,0.0,0.0,0.0,0.0,0.0,0.0,0.0,0.0,0.0,0.0,0.0,0.0,0.0,0.0,0.0,0.0,0.0,0.0,0.0,0.0,0.0,0.0,0.0,0.0,0.0,0.0,0.0,0.0,0.0,0.0,0.0,0.0,0.0,0.0,0.0,0.0,0.0,0.0,0.0,0.0,0.0,0.0,0.0,0.0,0.0,0.0,0.0,0.0,0.0,0.0,0.0,0.0,0.0,0.0,0.0,0.0,0.0,0.0,0.0,0.0,0.0,0.0,0.0,0.0,0.0,0.0,0.0,0.0,6.4314,6.4921,6.401,6.2947,0.0,0.0,0.0,0.0,0.0,0.0,0.0,0.0,0.0,0.0,0.0,0.0,0.0,0.0,0.0,0.0,0.0,0.0,0.0,0.0,0.0,0.0,0.0,0.0,0.0,0.0,0.0,0.0,0.0,0.0,0.0,0.0,0.0,0.0,0.0,0.0,0.0,0.0,0.0,0.0,0.0,0.0,0.0,0.0,0.0,0.0,0.0,0.0,0.0,0.0,0.0,0.0,0.0,0.0,0.0,0.0,0.0,0.0,0.0,0.0,0.0,0.0,0.0,0.0,0.0,0.0,0.0,0.0,0.0,0.0,0.0,0.0,0.0,0.0,0.0,0.0,0.0,0.0,0.0,0.0,0.0,0.0,0.0,0.0,0.0,0.0,0.0,0.0,0.0,0.0,0.0,0.0,0.0,0.0,0.0,0.0,0.0,0.0,0.0,0.0,0.0,0.0,0.0,0.0,0.0,0.0,0.0,0.0,0.0,0.0,0.0,6.3023,6.439,6.4466,0.0,5.991,0.0,0.0,0.0,0.0,0.0,0.0,0.0,0.0,0.0,0.0,0.0,0.0,0.0,0.0,0.0,0.0,0.0,0.0,0.0,0.0,0.0,0.0,0.0,0.0,0.0,0.0,0.0,0.0,0.0,0.0,0.0,0.0,0.0,0.0,0.0,0.0,0.0,0.0,0.0,0.0,0.0,0.0,0.0,0.0,0.0,0.0,0.0,0.0,0.0,0.0,0.0,0.0,0.0,0.0,0.0,0.0,0.0,0.0,0.0,0.0,0.0,0.0,0.0,0.0,0.0,0.0,0.0,0.0,0.0,0.0,0.0,0.0,0.0,0.0,0.0,0.0,0.0,0.0,0.0,0.0,0.0,0.0,0.0,0.0,0.0,0.0,0.0,0.0,0.0,0.0,0.0,0.0,0.0,0.0,0.0,0.0,0.0,0.0,0.0,0.0,0.0,0.0,0.0,0.0,0.0,0.0,0.0,0.0,0.0,0.0,0.0,0.0,6.1201,6.0213,5.8163,0.0,0.0,0.0,0.0,0.0,0.0,0.0,0.0,0.0,0.0,0.0,0.0,0.0,0.0,0.0,0.0,0.0,0.0,0.0,0.0,0.0,0.0,0.0,0.0,0.0,0.0,0.0,0.0,0.0,0.0,0.0,0.0,0.0,0.0,0.0,0.0,0.0,0.0,0.0,0.0,0.0,0.0,0.0,0.0,0.0,0.0,0.0,0.0,0.0,0.0,0.0,0.0,0.0,0.0,0.0,0.0,0.0,0.0,0.0,0.0,0.0,0.0,0.0,0.0,0.0,0.0,0.0,0.0,0.0,0.0,0.0,0.0,0.0,0.0,0.0,0.0,0.0,0.0,0.0,0.0,0.0,0.0,0.0,0.0,0.0,0.0,0.0,0.0,0.0,0.0,0.0,0.0,0.0,0.0,0.0,0.0,0.0,0.0,0.0,0.0,0.0,0.0,0.0,0.0,0.0,0.0,0.0,0.0,0.0,0.0,6.006,6.006,6.006,5.93,5.7554,0.0,0.0,0.0,0.0,0.0,0.0,0.0,0.0,0.0,0.0,0.0,0.0,0.0,0.0,0.0,0.0,0.0,0.0,0.0,0.0,0.0,0.0,0.0,0.0,0.0,0.0,0.0,0.0,0.0,0.0,0.0,0.0,0.0,0.0,0.0,0.0,0.0,0.0,0.0,0.0,0.0,0.0,0.0,0.0,0.0,0.0,0.0,0.0,0.0,0.0,0.0,0.0,0.0,0.0,0.0,0.0,0.0,0.0,0.0,0.0,0.0,0.0,0.0,0.0,0.0,0.0,0.0,0.0,0.0,0.0,0.0,0.0,0.0,0.0,0.0,0.0,0.0,0.0,0.0,0.0,0.0,0.0,0.0,0.0,0.0,0.0,0.0,0.0,0.0,0.0,0.0,0.0,0.0,0.0,0.0,0.0,0.0,0.0,0.0,0.0,0.0,0.0,0.0,0.0,0.0,0.0,0.0,0.0,0.0,0.0,0.0,0.0,0.0,0.0,5.7239,0.0,0.0,0.0,0.0,0.0,0.0,0.0,0.0,0.0,0.0,0.0,0.0,0.0,0.0,0.0,0.0,0.0,0.0,0.0,0.0,0.0,0.0,0.0,0.0,0.0,0.0,0.0,0.0,0.0,0.0,0.0,0.0,0.0,0.0,0.0,0.0,0.0,0.0,0.0,0.0,0.0,0.0,0.0,0.0,0.0,0.0,0.0,0.0,0.0,0.0,0.0,0.0,0.0,0.0,0.0,0.0,0.0,0.0,0.0,0.0,0.0,0.0,0.0,0.0,0.0,0.0,0.0,0.0,0.0,0.0,0.0,0.0,0.0,0.0,0.0,0.0,0.0,0.0,0.0,0.0,0.0,0.0,0.0,0.0,0.0,0.0,0.0,0.0,0.0,0.0,0.0,0.0,0.0,0.0,0.0,0.0,0.0,0.0,0.0,0.0,0.0,0.0,0.0,0.0,0.0,0.0,0.0,0.0,0.0,0.0,0.0,0.0,0.0,0.0,0.0,0.0,0.0,0.0,0.0,0.0,0.0,0.0,0.0,0.0,0.0,0.0,0.0,0.0,0.0,0.0,0.0,0.0,0.0,0.0,0.0,0.0,0.0,0.0,0.0,0.0,0.0,0.0,0.0,0.0,0.0,0.0,0.0,0.0,0.0,0.0,0.0,0.0,0.0,0.0,0.0,0.0,0.0,0.0,0.0,0.0,0.0,0.0,0.0,0.0,0.0,0.0,0.0,0.0,0.0,0.0,0.0,0.0,0.0,0.0,0.0,0.0,0.0,0.0,0.0,0.0,0.0,0.0,0.0,0.0,0.0,0.0,0.0,0.0,0.0,0.0,0.0,0.0,0.0,0.0,0.0,0.0,0.0,0.0,0.0,0.0,0.0,0.0,0.0,0.0,0.0,0.0,0.0,0.0,0.0,0.0,0.0,0.0,0.0,0.0,0.0,0.0,0.0,0.0,0.0,0.0,0.0,0.0,0.0,0.0,0.0,0.0,0.0,0.0,0.0,0.0,0.0,0.0,0.0,0.0,0.0,0.0,0.0,0.0,0.0,0.0,0.0,0.0,0.0,0.0,0.0,0.0,0.0,0.0,0.0,0.0,0.0,0.0,0.0,0.0,0.0,0.0,0.0,0.0,0.0,0.0,0.0,0.0,0.0,0.0,0.0,0.0,0.0,0.0,0.0,0.0,0.0,0.0,0.0,0.0,0.0,0.0,0.0,0.0,0.0,0.0,0.0,0.0,0.0,0.0,0.0,0.0,0.0,0.0,0.0,0.0,0.0,0.0,0.0,0.0,0.0,0.0,0.0,0.0,0.0,0.0,0.0,0.0,0.0,0.0,0.0,0.0,0.0,0.0,0.0,0.0,0.0,0.0,0.0,0.0,0.0,0.0,0.0,0.0,0.0,0.0,0.0,0.0,0.0,0.0,0.0,0.0,0.0,0.0,0.0,0.0,0.0,0.0,0.0,0.0,0.0,0.0,0.0,0.0,0.0,0.0,0.0,0.0,0.0,0.0,0.0,0.0,0.0,0.0,0.0,0.0,0.0,0.0,0.0,0.0,0.0,0.0,0.0,0.0,0.0,0.0,0.0,0.0,0.0,0.0,0.0,0.0,0.0,0.0,0.0,0.0,0.0,0.0,0.0,0.0,0.0,0.0,0.0,0.0,0.0,0.0,0.0,0.0,0.0,0.0,0.0,0.0,0.0,0.0,0.0,0.0,0.0,0.0,0.0,0.0,0.0,0.0,0.0,0.0,0.0,0.0,0.0,0.0,0.0,0.0,0.0,0.0,0.0,0.0,0.0,0.0,0.0,0.0,0.0,0.0,0.0,0.0,0.0,0.0,0.0,0.0,0.0,0.0,0.0,0.0,0.0,0.0,0.0,0.0,0.0,0.0,0.0,0.0,0.0,0.0,0.0,0.0,0.0,0.0,0.0,0.0,0.0,0.0,0.0,0.0,0.0,0.0,0.0,0.0,0.0,0.0,0.0,0.0,0.0,0.0,0.0,0.0,0.0,0.0,0.0,0.0,0.0,0.0,0.0,0.0,0.0,0.0,0.0,0.0,0.0,0.0,0.0,0.0,0.0,0.0,0.0,0.0,0.0,0.0,0.0,0.0,0.0,0.0,0.0,0.0,0.0,0.0,0.0,0.0,0.0,0.0,0.0,0.0,0.0,0.0,0.0,0.0,0.0,0.0,0.0,0.0,0.0,0.0,0.0,0.0,0.0,0.0,0.0,0.0,0.0,0.0,0.0,0.0,0.0,0.0,0.0,0.0,0.0,0.0,0.0,0.0,0.0,0.0,0.0,0.0,0.0,0.0,0.0,0.0,0.0,0.0,0.0,0.0,0.0,0.0,0.0,0.0,0.0,0.0,0.0,0.0,0.0,0.0,0.0,0.0,0.0,0.0,0.0,0.0,0.0,0.0,0.0,0.0,0.0,0.0,0.0,0.0,0.0,0.0,0.0,0.0,0.0,0.0,0.0,0.0,0.0,0.0,0.0,0.0,0.0,0.0,0.0,0.0,0.0,0.0,0.0,0.0,0.0,0.0,0.0,0.0,0.0,0.0,0.0,0.0,0.0,0.0,0.0,0.0,0.0,0.0,0.0,0.0,0.0,0.0,0.0,0.0,0.0,0.0,0.0,0.0,0.0,0.0,0.0,0.0,0.0,0.0,0.0,0.0,0.0,0.0,0.0,0.0,0.0,0.0,0.0,0.0,0.0,0.0,0.0,0.0,0.0,0.0,0.0,0.0,0.0,0.0,0.0,0.0,0.0,0.0,0.0,0.0,0.0,0.0,0.0,0.0,0.0,0.0,0.0,0.0,0.0,0.0,0.0,0.0,0.0,0.0,0.0,0.0,0.0,0.0,0.0,0.0,0.0,0.0,0.0,0.0,0.0,0.0,0.0,0.0,0.0,0.0,0.0,0.0,0.0,0.0,0.0,0.0,0.0,0.0,0.0,0.0,0.0,0.0,0.0,0.0,0.0,0.0,0.0,0.0,0.0,0.0,0.0,0.0,0.0,0.0,0.0,0.0,0.0,0.0,0.0,0.0,0.0,0.0,0.0,0.0,0.0,0.0,0.0,0.0,0.0,0.0,0.0,0.0,0.0,0.0,0.0,0.0,0.0,0.0,0.0,0.0,0.0,0.0,0.0,0.0,0.0,0.0,0.0,0.0,0.0,0.0,0.0,0.0,0.0,0.0,0.0,0.0,0.0,0.0,0.0,0.0,0.0,0.0,0.0,0.0,0.0,0.0,0.0,0.0,0.0,0.0,0.0,0.0,0.0,0.0,0.0,0.0,0.0,0.0,0.0,0.0,0.0,0.0,0.0,0.0,0.0,0.0,0.0,0.0,0.0,0.0,0.0,0.0,0.0,0.0,0.0,0.0,0.0,0.0,0.0,0.0,0.0,0.0,0.0,0.0,0.0,0.0,0.0,0.0,0.0,0.0,0.0,0.0,0.0,0.0,0.0,0.0,0.0,0.0,0.0,0.0,0.0,0.0,0.0,0.0,0.0,0.0,0.0,0.0,0.0,0.0,0.0,0.0,0.0,0.0,0.0,0.0,0.0,0.0,0.0,0.0,0.0,0.0,0.0,0.0,0.0,0.0,0.0,0.0,0.0,0.0,0.0,0.0,0.0,0.0,0.0,0.0,0.0,0.0,0.0,0.0,0.0,0.0,0.0,0.0,0.0,0.0,0.0,0.0,0.0,0.0,0.0,0.0,0.0,0.0,0.0,0.0,0.0,0.0,0.0,0.0,0.0,0.0,0.0,0.0,0.0,0.0,0.0,0.0,0.0,0.0,0.0,0.0,0.0,0.0,0.0,0.0,0.0,0.0,0.0,0.0,0.0,0.0,0.0,0.0,0.0,0.0,0.0,0.0,0.0,0.0,0.0,0.0,0.0,0.0,0.0,0.0,0.0,0.0,0.0,0.0,0.0,0.0,0.0,0.0,0.0,0.0,0.0,0.0,0.0,0.0,0.0,0.0,0.0,0.0,0.0,0.0,0.0,0.0,0.0,0.0,0.0,0.0,0.0,0.0,0.0,0.0,0.0,0.0,0.0,0.0,0.0,0.0,0.0,0.0,0.0,0.0,0.0,0.0,0.0,0.0,0.0,0.0,0.0,0.0,0.0,0.0,0.0,0.0,0.0,0.0,0.0,0.0,0.0,0.0,0.0,0.0,0.0,0.0,0.0,0.0,0.0,0.0,0.0,0.0,0.0,0.0,0.0,0.0,0.0,0.0,0.0,0.0,0.0,0.0,0.0,0.0,0.0,0.0,0.0,0.0,0.0,0.0,0.0,0.0,0.0,0.0,0.0,0.0,0.0,0.0,0.0,0.0,0.0,0.0,0.0,0.0]}],[{"header":{"parameterUnit":"kt","parameterCategory":2,"dx":1,"dy":1,"la1":29.587661999999998,"la2":31.0,"lo1":-88.76705300000003,"lo2":-86.6583820000003,"nx":115,"ny":88,"refTime":"2022-10-17T18:00:00:Z","depth":0,"parameterNumber":2,"parameterNumberName":"V-component_of_WINDS"},"data":[3.9925,3.9925,3.9925,3.9925,3.9925,3.9925,3.9925,3.9925,3.9925,3.9925,3.9925,3.9925,3.9925,3.9925,3.9925,3.9925,3.9925,3.9925,3.9925,3.9925,3.9925,3.9925,3.9925,3.9925,3.9925,3.9925,3.9925,3.9925,3.9925,3.9925,3.9938,3.9965,4.0215,4.0426,4.0729,4.1006,4.1244,4.1481,4.1573,4.1679,4.1679,4.1679,4.1679,4.1679,4.1679,4.1679,4.1679,4.1679,4.1679,4.1587,4.1428,4.1767,4.1594,4.0888,4.069,4.0043,3.9991,4.0004,3.9991,3.9991,3.9978,4.0004,3.9978,4.0426,4.0373,3.9744,3.9665,3.9991,3.9965,3.9899,3.9899,3.9872,3.9872,3.9754,3.9688,3.9305,3.8963,3.8818,3.8699,3.8646,3.8646,3.8738,3.8363,3.9108,3.9992,3.9688,3.9859,3.9886,3.9925,3.9925,3.9925,3.9925,3.9925,3.9925,3.9925,3.9925,3.9925,3.9925,3.9925,3.9925,3.9925,3.9925,3.9925,3.9925,3.9925,3.9925,3.9925,3.9925,3.9925,3.9925,3.9925,3.9925,3.9925,3.9925,3.9925,3.9925,3.9925,3.9925,3.9925,3.9925,3.9925,3.9925,3.9925,3.9925,3.9925,3.9925,3.9925,3.9925,3.9925,3.9925,3.9925,3.9925,3.9925,3.9925,3.9925,3.9925,3.9925,3.9925,3.9925,3.9925,3.9925,3.9925,3.9925,3.9925,3.9925,3.9925,3.9938,4.0031,4.0136,4.0439,4.0729,4.1046,4.1323,4.1547,4.1652,4.1679,4.1679,4.1679,4.1679,4.1679,4.1679,4.1679,4.1679,4.1679,4.1573,4.1441,4.1714,4.146,4.0664,3.9926,3.9718,3.9678,3.9652,3.9626,3.9652,3.9626,4.0083,4.0031,4.0017,4.0031,3.9991,3.9991,3.9938,3.9938,3.9925,3.9925,3.9912,3.9912,3.9872,3.9846,3.9701,3.9424,3.9174,3.9081,3.8989,3.9042,3.9134,3.9266,3.9398,3.9635,3.982,3.9925,3.9925,3.9925,3.9925,3.9925,3.9925,3.9925,3.9925,3.9925,3.9925,3.9925,3.9925,3.9925,3.9925,3.9925,3.9925,3.9925,3.9925,3.9925,3.9925,3.9925,3.9925,3.9925,3.9925,3.9925,3.9925,3.9925,3.9925,3.9925,3.9925,3.9925,3.9925,3.9925,3.9925,3.9925,3.9925,3.9925,3.9925,3.9925,3.9925,3.9925,3.9925,3.9925,3.9925,3.9925,3.9925,3.9925,3.9925,3.9925,3.9925,3.9925,3.9925,3.9925,3.9925,3.9925,3.9925,3.9925,3.9925,3.9925,3.9925,3.9925,3.9952,4.0097,4.0387,4.0677,4.0967,4.1217,4.1534,4.1652,4.1679,4.1679,4.1679,4.1679,4.1679,4.1679,4.1679,4.1679,4.1679,4.1613,4.1547,4.1283,4.0888,4.0545,3.9731,4.0017,3.9925,3.9925,3.9938,3.9965,3.9965,3.9978,3.9952,3.9952,3.9925,3.9925,3.9925,3.9925,3.9925,3.9925,3.9925,3.9925,3.9925,3.9925,3.9899,3.9886,3.9701,3.9464,3.9332,3.9266,3.9319,3.9398,3.9477,4.0099,3.9741,3.9925,3.9925,3.9925,3.9925,3.9925,3.9925,3.9925,3.9925,3.9925,3.9925,3.9925,3.9925,3.9925,3.9925,3.9925,3.9925,3.9925,3.9925,3.9925,3.9925,3.9925,3.9925,3.9925,3.9925,3.9925,3.9925,3.9925,3.9925,3.9925,3.9925,3.9925,3.9925,3.9925,3.9925,3.9925,3.9925,3.9925,3.9925,3.9859,3.9859,3.9925,3.9925,3.9925,3.9925,3.9925,3.9925,3.9925,3.9925,3.9925,3.9925,3.9925,3.9925,3.9925,3.9925,3.9925,3.9925,3.9925,3.9925,3.9925,3.9925,3.9925,3.9925,3.9938,4.0004,4.0242,4.0664,4.0888,4.1085,4.1428,4.1666,4.1679,4.1679,4.1679,4.1679,4.1679,4.1679,4.1679,4.1679,4.1679,4.1679,4.1679,4.1402,4.094,4.0069,3.9744,4.0004,3.9925,3.9925,3.9925,3.9925,3.9925,3.9925,3.9925,3.9925,3.9925,3.9925,3.9925,3.9925,3.9925,3.9925,3.9925,3.9925,3.9925,3.9925,3.9925,3.9925,3.9912,3.9727,4.0032,4.0019,4.0045,3.9609,3.9661,3.9767,3.9886,3.9925,3.9925,3.9925,3.9925,3.9925,3.9925,3.9925,3.9925,3.9925,3.9925,3.9925,3.9925,3.9925,3.9925,3.9925,3.9925,3.9925,3.9925,3.9925,3.9925,3.9925,3.9925,3.9925,3.9925,3.9925,3.9925,3.9925,3.9925,3.9925,3.9925,3.9925,3.9925,3.9925,3.9899,3.9925,3.9886,3.9886,3.9899,3.9661,3.9688,3.9886,3.9925,3.9925,3.9925,3.9925,3.9925,3.9925,3.9925,3.9925,3.9925,3.9925,3.9925,3.9925,3.9925,3.9925,3.9925,3.9925,3.9925,3.9925,3.9925,3.9925,3.9925,3.9925,3.9952,4.0123,4.0558,4.0848,4.1033,4.1362,4.1679,4.1679,4.1679,4.1679,4.1679,4.1679,4.1679,4.1679,4.1679,4.1679,4.1679,4.1639,4.1534,4.1138,4.0743,3.9822,4.0083,3.9952,3.9938,3.9925,3.9925,3.9925,3.9925,3.9925,3.9925,3.9925,3.9925,3.9925,3.9925,3.9925,3.9925,3.9925,3.9925,3.9925,3.9925,3.9925,3.9925,3.9925,3.9859,3.9741,3.9741,3.9754,3.9767,3.982,3.9806,3.9925,3.9925,3.9925,3.9925,3.9925,3.9925,3.9925,3.9925,3.9925,3.9925,3.9925,3.9925,3.9925,3.9925,3.9925,3.9925,3.9925,3.9925,3.9925,3.9925,3.9925,3.9925,3.9925,3.9925,3.9925,3.9925,3.9925,3.9925,3.9925,3.9925,3.9925,3.9925,3.9899,3.9754,3.9688,3.9648,3.949,3.9411,3.9424,3.949,3.9569,3.9701,3.9859,3.9925,3.9925,3.9925,3.9925,3.9925,3.9925,3.9925,3.9925,3.9925,3.9925,3.9925,3.9925,3.9925,3.9925,3.9925,3.9925,3.9925,3.9925,3.9925,3.9925,3.9925,3.9925,4.0097,4.0479,4.0782,4.102,4.131,4.1587,4.1679,4.1679,4.1679,4.1679,4.1679,4.1679,4.1679,4.1679,4.1679,4.1679,4.1679,4.16,4.1468,4.1112,4.0729,3.9731,4.0057,3.9938,3.9925,3.9925,3.9925,3.9925,3.9925,3.9925,3.9925,3.9925,3.9925,3.9925,3.9925,3.9925,3.9925,3.9925,3.9925,3.9925,3.9925,3.9925,3.9925,3.9925,3.9925,3.9925,3.9925,3.9925,3.9925,3.9925,3.9925,3.9925,3.9925,3.9925,3.9925,3.9925,3.9925,3.9925,3.9925,3.9925,3.9925,3.9925,3.9925,3.9925,3.9925,3.9925,3.9925,3.9925,3.9925,3.9925,3.9925,3.9925,3.9925,3.9925,3.9925,3.9925,3.9925,3.9925,3.9925,3.9925,3.9925,3.9925,3.9899,3.9635,3.9516,3.945,3.9015,3.8884,3.8963,3.916,3.9398,3.953,3.9727,3.9833,3.9925,3.9925,3.9925,3.9925,3.9925,3.9925,3.9925,3.9925,3.9925,3.9925,3.9925,3.9925,3.9925,3.9925,3.9925,3.9925,3.9925,3.9925,3.9925,3.9925,3.9925,4.0123,4.0518,4.0716,4.0967,4.1402,4.16,4.1679,4.1679,4.1679,4.1679,4.1679,4.1679,4.1679,4.1679,4.1679,4.1679,4.1679,4.1679,4.1652,4.1389,4.1072,4.0017,4.0149,3.9925,3.9925,3.9925,3.9925,3.9925,3.9925,3.9925,3.9925,3.9925,3.9925,3.9925,3.9925,3.9925,3.9925,3.9925,3.9925,3.9925,3.9925,3.9925,3.9925,3.9925,3.9925,3.9925,3.9925,3.9925,3.9925,3.9925,3.9925,3.9925,3.9925,3.9925,3.9925,3.9925,3.9925,3.9925,3.9925,3.9925,3.9925,3.9925,3.9925,3.9925,3.9925,3.9925,3.9925,3.9925,3.9925,3.9925,3.9925,3.9925,3.9925,3.9925,3.9925,3.9925,3.9925,3.9925,3.9925,3.9925,3.9925,3.9925,3.9886,3.9635,3.949,3.9358,3.8633,3.8435,3.8646,3.8673,3.9002,3.9503,3.953,3.9701,3.9886,3.9925,3.9925,3.9925,3.9925,3.9925,3.9925,3.9925,3.9925,3.9925,3.9925,3.9925,3.9925,3.9925,3.9925,3.9925,3.9925,3.9925,3.9925,3.9925,3.9925,4.0083,4.0426,4.0729,4.094,4.131,4.156,4.1666,4.1679,4.1679,4.1679,4.1679,4.1679,4.1679,4.1679,4.1679,4.1679,4.1679,4.1679,4.1587,4.1402,4.1112,4.0743,4.0242,4.0031,3.9938,3.9925,3.9925,3.9925,3.9925,3.9925,3.9925,3.9925,3.9925,3.9925,3.9925,3.9925,3.9925,3.9925,3.9925,3.9925,3.9925,3.9925,3.9925,3.9925,3.9925,3.9925,3.9925,3.9925,3.9925,3.9925,3.9925,3.9925,3.9925,3.9925,3.9925,3.9925,3.9925,3.9925,3.9925,3.9925,3.9925,3.9925,3.9925,3.9925,3.9925,3.9925,3.9925,3.9925,3.9925,3.9925,3.9925,3.9925,3.9925,3.9925,3.9925,3.9925,3.9925,3.9925,3.9925,3.9925,3.9925,3.9661,3.9609,3.9147,3.8936,3.8857,3.8422,3.8264,3.8369,3.8567,3.8844,3.9213,3.945,3.9661,3.9859,3.9925,3.9925,3.9925,3.9925,3.9925,3.9925,3.9925,3.9925,3.9925,3.9925,3.9925,3.9925,3.9925,3.9925,3.9925,3.9925,3.9925,3.9925,3.9925,3.9925,4.0044,4.0308,4.0624,4.0875,4.1125,4.1455,4.1587,4.1626,4.1639,4.1639,4.1652,4.1652,4.1666,4.1679,4.1679,4.1679,4.1679,4.1679,4.1587,4.1402,4.1112,4.0822,4.0426,4.0149,3.9978,3.9925,3.9925,3.9925,3.9925,3.9925,3.9925,3.9925,3.9925,3.9925,3.9925,3.9925,3.9925,3.9925,3.9925,3.9925,3.9925,3.9925,3.9925,3.9925,3.9925,3.9925,3.9925,3.9925,3.9925,3.9925,3.9925,3.9925,3.9925,3.9925,3.9925,3.9925,3.9925,3.9925,3.9925,3.9925,3.9925,3.9925,3.9925,3.9925,3.9925,3.9925,3.9925,3.9925,3.9925,3.9925,3.9925,3.9925,3.9925,3.9925,3.9925,3.9925,3.9925,3.9925,3.9925,3.9925,3.9925,3.9371,3.9332,3.8831,3.858,3.8462,3.829,3.8224,3.8264,3.8422,3.8712,3.9068,3.9266,3.9556,3.9833,3.9925,3.9925,3.9925,3.9925,3.9925,3.9925,3.9925,3.9925,3.9925,3.9925,3.9925,3.9925,3.9925,3.9925,3.9925,3.9925,3.9925,3.9925,3.9925,3.9925,4.0004,4.0228,4.0453,4.0677,4.094,4.1178,4.1349,4.1362,4.1349,4.1349,4.1455,4.1494,4.1494,4.1639,4.1666,4.1679,4.1679,4.16,4.1468,4.1389,4.1059,4.0664,4.0017,3.9731,4.0017,3.9925,3.9925,3.9925,3.9925,3.9925,3.9925,3.9925,3.9925,3.9925,3.9925,3.9925,3.9925,3.9925,3.9925,3.9925,3.9925,3.9925,3.9925,3.9925,3.9925,3.9925,3.9925,3.9925,3.9925,3.9925,3.9925,3.9925,3.9925,3.9925,3.9925,3.9925,3.9925,3.9925,3.9925,3.9925,3.9925,3.9925,3.9925,3.9925,3.9925,3.9925,3.9925,3.9925,3.9925,3.9925,3.9925,3.9925,3.9925,3.9925,3.9925,3.9925,3.9925,3.9925,3.9925,3.9925,3.9925,3.9068,3.9029,3.8738,3.8462,3.8251,3.8224,3.8224,3.8237,3.8264,3.8567,3.9042,3.9094,3.9411,3.9833,3.9925,3.9925,3.9925,3.9925,3.9925,3.9925,3.9925,3.9925,3.9925,3.9925,3.9925,3.9925,3.9925,3.9925,3.9925,3.9925,3.9925,3.9925,3.9925,3.9925,3.9952,4.0215,4.036,4.0426,4.0677,4.0822,4.0927,4.0954,4.0967,4.102,4.1138,4.1231,4.127,4.1389,4.1468,4.1481,4.1494,4.1415,4.1244,4.1674,4.0888,3.9952,3.9861,3.9692,3.9978,3.9938,3.9925,3.9925,3.9925,3.9925,3.9925,3.9925,3.9925,3.9925,3.9925,3.9925,3.9925,3.9925,3.9925,3.9925,3.9925,3.9925,3.9925,3.9925,3.9925,3.9925,3.9925,3.9925,3.9925,3.9925,3.9925,3.9925,3.9925,3.9925,3.9925,3.9925,3.9925,3.9925,3.9925,3.9925,3.9925,3.9925,3.9925,3.9925,3.9925,3.9925,3.9925,3.9925,3.9925,3.9925,3.9925,3.9925,3.9925,3.9925,3.9925,3.9925,3.9925,3.9925,3.9925,3.9925,3.9925,3.8765,3.8725,3.8462,3.829,3.8224,3.8224,3.8224,3.8224,3.8224,3.8541,3.9055,3.9094,3.9385,3.9793,3.9925,3.9925,3.9925,3.9925,3.9925,3.9925,3.9925,3.9925,3.9925,3.9925,3.9925,3.9925,3.9925,3.9925,3.9925,3.9925,3.9925,3.9925,3.9925,3.9925,3.9952,4.0044,4.0176,4.0334,4.0505,4.0584,4.0795,4.0795,4.0795,4.0809,4.0875,4.094,4.098,4.1059,4.1138,4.1138,4.1112,4.1046,4.0927,4.0756,4.0043,3.9861,3.9692,4.0031,3.9952,3.9925,3.9925,3.9925,3.9925,3.9925,3.9925,3.9925,3.9925,3.9925,3.9925,3.9925,3.9925,3.9925,3.9925,3.9925,3.9925,3.9925,3.9925,3.9925,3.9925,3.9925,3.9925,3.9925,3.9925,3.9925,3.9925,3.9925,3.9925,3.9925,3.9925,3.9925,3.9925,3.9925,3.9925,3.9925,3.9925,3.9925,3.9925,3.9925,3.9925,3.9925,3.9925,3.9925,3.9925,3.9925,3.9925,3.9925,3.9925,3.9925,3.9925,3.9925,3.9925,3.9925,3.9925,3.9925,3.9925,3.8475,3.8462,3.829,3.8224,3.8224,3.8224,3.8224,3.8224,3.8224,3.8435,3.8738,3.9002,3.9398,3.9806,3.9925,3.9925,3.9925,3.9925,3.9925,3.9925,3.9925,3.9925,3.9925,3.9925,3.9925,3.9925,3.9925,3.9925,3.9925,3.9925,3.9925,3.9925,3.9925,3.9925,3.9925,3.9965,4.0044,4.0176,4.0228,4.0268,4.0466,4.0479,4.0479,4.0505,4.0545,4.065,4.0664,4.0743,4.0809,4.033,4.0848,4.0769,4.065,4.0505,3.9835,3.9678,4.0044,3.9952,3.9925,3.9925,3.9925,3.9925,3.9925,3.9925,3.9925,3.9925,3.9925,3.9925,3.9925,3.9925,3.9925,3.9925,3.9925,3.9925,3.9925,3.9925,3.9925,3.9925,3.9925,3.9925,3.9925,3.9925,3.9925,3.9925,3.9925,3.9925,3.9925,3.9925,3.9925,3.9925,3.9925,3.9925,3.9925,3.9925,3.9925,3.9925,3.9925,3.9925,3.9925,3.9925,3.9925,3.9925,3.9925,3.9925,3.9925,3.9925,3.9925,3.9925,3.9925,3.9925,3.9925,3.9925,3.9925,3.9925,3.9925,3.8224,3.8224,3.8224,3.8224,3.8224,3.8224,3.8224,3.8224,3.8224,3.8251,3.8382,3.8818,3.9385,3.9806,3.9925,3.9925,3.9925,3.9925,3.9925,3.9925,3.9925,3.9925,3.9925,3.9925,3.9925,3.9925,3.9925,3.9925,3.9925,3.9925,3.9925,3.9925,3.9925,3.9925,3.9925,3.9925,3.9965,3.9978,3.9991,4.0004,4.0017,4.0017,4.0017,4.0057,4.0202,4.0347,4.036,4.0545,4.0637,4.0121,4.0121,4.0545,4.0373,3.9783,3.9678,4.0044,3.9938,3.9938,3.9925,3.9925,3.9925,3.9925,3.9925,3.9925,3.9925,3.9925,3.9925,3.9925,3.9925,3.9925,3.9925,3.9925,3.9925,3.9925,3.9925,3.9925,3.9925,3.9925,3.9925,3.9925,3.9925,3.9925,3.9925,3.9925,3.9925,3.9925,3.9925,3.9925,3.9925,3.9925,3.9925,3.9925,3.9925,3.9925,3.9925,3.9925,3.9925,3.9925,3.9925,3.9925,3.9925,3.9925,3.9925,3.9925,3.9925,3.9925,3.9925,3.9925,3.9925,3.9925,3.9925,3.9925,3.9925,3.9925,3.9925,3.8224,3.8224,3.8224,3.8224,3.8224,3.8224,3.8224,3.8224,3.8224,3.8224,3.8382,3.8818,3.9385,3.982,3.9912,3.9925,3.9925,3.9925,3.9925,3.9925,3.9925,3.9925,3.9925,3.9925,3.9925,3.9925,3.9925,3.9925,3.9925,3.9925,3.9925,3.9925,3.9925,3.9925,3.9925,3.9925,3.9925,3.9925,3.9925,3.9925,3.9925,3.9925,3.9925,3.9952,3.9991,4.0044,4.0044,4.0162,4.0176,3.9678,4.0202,4.0202,4.0097,4.0083,4.0004,3.9965,3.9925,3.9925,3.9925,3.9925,3.9925,3.9925,3.9925,3.9925,3.9925,3.9925,3.9925,3.9925,3.9925,3.9925,3.9925,3.9925,3.9925,3.9925,3.9925,3.9925,3.9925,3.9925,3.9925,3.9925,3.9925,3.9925,3.9925,3.9925,3.9925,3.9925,3.9925,3.9925,3.9925,3.9925,3.9925,3.9925,3.9925,3.9925,3.9925,3.9925,3.9925,3.9925,3.9925,3.9925,3.9925,3.9925,3.9925,3.9925,3.9925,3.9925,3.9925,3.9925,3.9925,3.9925,3.9925,3.9925,3.9925,3.9925,3.9925,3.8224,3.8224,3.8224,3.8224,3.8224,3.8224,3.8224,3.8224,3.8224,3.8224,3.833,3.8818,3.924,3.9543,3.9859,3.9912,3.9925,3.9925,3.9925,3.9925,3.9925,3.9925,3.9925,3.9925,3.9925,3.9925,3.9925,3.9925,3.9925,3.9925,3.9925,3.9925,3.9925,3.9925,3.9925,3.9925,3.9925,3.9925,3.9925,3.9925,3.9925,3.9925,3.9925,3.9925,3.9925,3.9938,3.9938,3.9925,3.9925,3.9925,3.9925,3.9925,3.9925,3.9925,3.9925,3.9925,3.9925,3.9925,3.9925,3.9925,3.9925,3.9925,3.9925,3.9925,3.9925,3.9925,3.9925,3.9925,3.9925,3.9925,3.9925,3.9925,3.9925,3.9925,3.9925,3.9925,3.9925,3.9925,3.9925,3.9925,3.9925,3.9925,3.9925,3.9925,3.9925,3.9925,3.9925,3.9925,3.9925,3.9925,3.9925,3.9925,3.9925,3.9925,3.9925,3.9925,3.9925,3.9925,3.9925,3.9925,3.9925,3.9925,3.9925,3.9925,3.9925,3.9925,3.9925,3.9925,3.9925,3.9925,3.9925,3.9925,3.9925,3.9925,3.9925,3.8224,3.8224,3.8224,3.8224,3.8224,3.8224,3.8224,3.8224,3.8224,3.8224,3.8264,3.8791,3.9081,3.9253,3.9688,3.9912,3.9925,3.9925,3.9925,3.9925,3.9925,3.9925,3.9925,3.9925,3.9925,3.9925,3.9925,3.9925,3.9925,3.9925,3.9925,3.9925,3.9925,3.9925,3.9925,3.9925,3.9925,3.9925,3.9925,3.9925,3.9925,3.9925,3.9925,3.9925,3.9925,3.9925,3.9925,3.9925,3.9925,3.9925,3.9925,3.9925,3.9925,3.9925,3.9925,3.9925,3.9925,3.9925,3.9925,3.9925,3.9925,3.9925,3.9925,3.9925,3.9925,3.9925,3.9925,3.9925,3.9925,3.9925,3.9925,3.9925,3.9925,3.9925,3.9925,3.9925,3.9925,3.9925,3.9925,3.9925,3.9925,3.9925,3.9925,3.9925,3.9925,3.9925,3.9925,3.9925,3.9925,3.9925,3.9925,3.9925,3.9925,3.9925,3.9925,3.9925,3.9925,3.9925,3.9925,3.9925,3.9925,3.9925,3.9925,3.9925,3.9925,3.9925,3.9925,3.9925,3.9925,3.9925,3.9925,3.9925,3.9925,3.9925,3.9925,3.8224,3.8224,3.8224,3.8224,3.8224,3.8224,3.8224,3.8224,3.8224,3.8224,3.8303,3.8778,3.9055,3.9213,3.9596,3.9899,3.9925,3.9912,3.9899,3.9899,3.9912,3.9925,3.9925,3.9925,3.9925,3.9925,3.9925,3.9925,3.9925,3.9925,3.9925,3.9925,3.9925,3.9925,3.9925,3.9925,3.9925,3.9925,3.9925,3.9925,3.9925,3.9925,3.9925,3.9925,3.9925,3.9925,3.9925,3.9925,3.9925,3.9925,3.9925,3.9925,3.9925,3.9925,3.9925,3.9925,3.9925,3.9925,3.9925,3.9925,3.9925,3.9925,3.9925,3.9925,3.9925,3.9925,3.9925,3.9925,3.9925,3.9925,3.9925,3.9925,3.9925,3.9925,3.9925,3.9925,3.9925,3.9925,3.9925,3.9925,3.9925,3.9925,3.9925,3.9925,3.9925,3.9925,3.9925,3.9925,3.9925,3.9925,3.9925,3.9925,3.9925,3.9925,3.9925,3.9925,3.9925,3.9925,3.9925,3.9925,3.9925,3.9925,3.9925,3.9925,3.9925,3.9925,3.9925,3.9925,3.9925,3.9925,3.9925,3.9925,3.9925,3.9925,3.9925,3.8224,3.8224,3.8224,3.8224,3.8224,3.8224,3.8224,3.8224,3.8224,3.8224,3.8356,3.8646,3.8857,3.8976,3.9345,3.9516,3.9556,3.9635,3.9727,3.978,3.9872,3.9925,3.9925,3.9925,3.9925,3.9925,3.9925,3.9925,3.9925,3.9925,3.9925,3.9925,3.9925,3.9925,3.9925,3.9925,3.9925,3.9925,3.9925,3.9925,3.9925,3.9925,3.9925,3.9925,3.9925,3.9925,3.9925,3.9925,3.9925,3.9925,3.9925,3.9925,3.9925,3.9925,3.9925,3.9925,3.9925,3.9925,3.9925,3.9925,3.9925,3.9925,3.9925,3.9925,3.9925,3.9925,3.9925,3.9925,3.9925,3.9925,3.9925,3.9925,3.9925,3.9925,3.9925,3.9925,3.9925,3.9925,3.9925,3.9925,3.9925,3.9925,3.9925,3.9925,3.9925,3.9925,3.9925,3.9925,3.9925,3.9925,3.9925,3.9925,3.9925,3.9925,3.9925,3.9925,3.9925,3.9925,3.9925,3.9925,3.9925,3.9925,3.9925,3.9925,3.9925,3.9925,3.9925,3.9925,3.9925,3.9925,3.9925,3.9925,3.9925,3.9925,3.9925,3.8224,3.8224,3.8224,3.8224,3.8224,3.8224,3.8224,3.8224,3.8224,3.8224,3.8264,3.8514,3.8659,3.8725,3.8949,3.9068,3.92,3.9332,3.9437,3.949,3.9609,3.978,3.9793,3.9806,3.9833,3.9872,3.9912,3.9925,3.9925,3.9925,3.9925,3.9925,3.9925,3.9925,3.9925,3.9925,3.9925,3.9925,3.9925,3.9925,3.9925,3.9925,3.9925,3.9925,3.9925,3.9925,3.9925,3.9925,3.9925,3.9925,3.9925,3.9925,3.9925,3.9925,3.9925,3.9925,3.9925,3.9925,3.9925,3.9925,3.9925,3.9925,3.9925,3.9925,3.9925,3.9925,3.9925,3.9925,3.9925,3.9925,3.9925,3.9925,3.9925,3.9925,3.9925,3.9925,3.9925,3.9925,3.9925,3.9925,3.9925,3.9925,3.9925,3.9925,3.9925,3.9925,3.9925,3.9925,3.9925,3.9925,3.9925,3.9925,3.9925,3.9925,3.9925,3.9925,3.9925,3.9925,3.9925,3.9925,3.9925,3.9925,3.9925,3.9925,3.9925,3.9925,3.9925,3.9925,3.9925,3.9925,3.9925,3.9925,3.9925,3.9925,3.9925,3.8224,3.8224,3.8224,3.8224,3.8224,3.8224,3.8224,3.8224,3.8224,3.8224,3.8277,3.8514,3.8593,3.8673,3.891,3.9055,3.9068,3.9121,3.9134,3.9147,3.9253,3.9398,3.953,3.9556,3.9556,3.9609,3.9793,3.9912,3.9925,3.9925,3.9925,3.9925,3.9925,3.9925,3.9925,3.9925,3.9925,3.9925,3.9925,3.9925,3.9925,3.9925,3.9925,3.9925,3.9925,3.9925,3.9925,3.9925,3.9925,3.9925,3.9925,3.9925,3.9925,3.9925,3.9925,3.9925,3.9925,3.9925,3.9925,3.9925,3.9925,3.9925,3.9925,3.9925,3.9925,3.9925,3.9925,3.9925,3.9925,3.9925,3.9925,3.9925,3.9925,3.9925,3.9925,3.9925,3.9925,3.9925,3.9925,3.9925,3.9925,3.9925,3.9925,3.9925,3.9925,3.9925,3.9925,3.9925,3.9925,3.9925,3.9925,3.9925,3.9925,3.9925,3.9925,3.9925,3.9925,3.9925,3.9925,3.9925,3.9925,3.9925,3.9925,3.9925,3.9925,3.9925,3.9925,3.9925,3.9925,3.9925,3.9925,3.9925,3.9925,3.9925,3.9925,3.8079,3.8224,3.8224,3.8224,3.8224,3.8224,3.8224,3.8224,3.8224,3.8224,3.8251,3.8343,3.8409,3.8435,3.8554,3.862,3.862,3.862,3.8699,3.8857,3.9015,3.9134,3.9266,3.9147,3.924,3.953,3.9661,3.9806,3.9899,3.9925,3.9925,3.9925,3.9925,3.9925,3.9925,3.9925,3.9925,3.9925,3.9925,3.9925,3.9925,3.9925,3.9925,3.9925,3.9925,3.9925,3.9925,3.9925,3.9925,3.9925,3.9925,3.9925,3.9925,3.9925,3.9925,3.9925,3.9925,3.9925,3.9925,3.9925,3.9925,3.9925,3.9925,3.9925,3.9925,3.9925,3.9925,3.9925,3.9925,3.9925,3.9925,3.9925,3.9925,3.9925,3.9925,3.9925,3.9925,3.9925,3.9925,3.9925,3.9925,3.9925,3.9925,3.9925,3.9925,3.9925,3.9925,3.9925,3.9925,3.9925,3.9925,3.9925,3.9925,3.9925,3.9925,3.9925,3.9925,3.9925,3.9925,3.9925,3.9925,3.9925,3.9925,3.9925,3.9925,3.9925,3.9925,3.9925,3.9925,3.9925,3.9925,3.9925,3.9925,3.9925,3.9925,3.7802,3.8026,3.8026,3.8026,3.8026,3.8026,3.8013,3.8026,3.8079,3.8092,3.8132,3.8198,3.8237,3.8237,3.8264,3.8224,3.8277,3.829,3.8317,3.8567,3.8804,3.8884,3.8844,3.8765,3.891,3.9226,3.9424,3.9622,3.9806,3.9872,3.9925,3.9925,3.9925,3.9925,3.9925,3.9925,3.9925,3.9925,3.9925,3.9925,3.9925,3.9925,3.9925,3.9925,3.9925,3.9925,3.9925,3.9925,3.9925,3.9925,3.9925,3.9925,3.9925,3.9925,3.9925,3.9925,3.9925,3.9925,3.9925,3.9925,3.9925,3.9925,3.9925,3.9925,3.9925,3.9925,3.9925,3.9925,3.9925,3.9925,3.9925,3.9925,3.9925,3.9925,3.9925,3.9925,3.9925,3.9925,3.9925,3.9925,3.9925,3.9925,3.9925,3.9925,3.9925,3.9925,3.9925,3.9925,3.9925,3.9925,3.9925,3.9925,3.9925,3.9925,3.9925,3.9925,3.9925,3.9925,3.9925,3.9925,3.9925,3.9925,3.9925,3.9925,3.9925,3.9925,3.9925,3.9925,3.9925,3.9925,3.9925,3.9925,3.9925,3.9925,3.9925,3.738,3.742,3.742,3.742,3.7446,3.742,3.7486,3.7486,3.771,3.7816,3.7868,3.8092,3.8132,3.8224,3.8106,3.8198,3.8185,3.8158,3.8224,3.8264,3.8343,3.8356,3.8382,3.8448,3.8646,3.8844,3.9305,3.9477,3.9582,3.9806,3.9899,3.9886,3.9912,3.9925,3.9925,3.9925,3.9925,3.9925,3.9925,3.9925,3.9925,3.9925,3.9925,3.9925,3.9925,3.9925,3.9925,3.9925,3.9899,3.9912,3.9925,3.9872,3.9886,3.9899,3.9899,3.9872,3.9833,3.9846,3.9899,3.9846,3.9886,3.9859,3.9872,3.9925,3.9859,3.9833,3.982,3.982,3.9912,3.9886,3.9886,3.9925,3.9925,3.9912,3.9886,3.9912,3.9925,3.9925,3.9925,3.9925,3.9925,3.9925,3.9925,3.9925,3.9925,3.9925,3.9925,3.9925,3.9925,3.9859,3.9833,3.9833,3.9846,3.9886,3.9859,3.9859,3.9833,3.9859,3.9833,3.9793,3.978,3.9793,3.9859,3.9925,3.9925,3.9925,3.9925,3.9925,3.9925,3.9925,3.9925,3.9925,3.9925,3.9925,3.9925,3.7183,3.7328,3.7328,3.7328,3.7328,3.7328,3.7328,3.7354,3.746,3.7512,3.7539,3.7657,3.7697,3.7697,3.771,3.771,3.7723,3.7881,3.7947,3.7987,3.8119,3.8106,3.8013,3.8053,3.8317,3.862,3.8884,3.9094,3.9279,3.9543,3.9675,3.9714,3.9846,3.9925,3.9912,3.9925,3.9925,3.9925,3.9925,3.9925,3.9925,3.9925,3.9925,3.9925,3.9925,3.9925,3.9925,3.9925,3.9754,3.9503,3.9437,3.9437,3.9939,3.9437,3.9437,3.9939,3.9939,3.9939,3.9939,3.9939,3.9939,3.9939,3.9939,3.9925,3.9939,3.9424,3.8936,3.9477,3.9609,3.9675,3.9727,3.9846,3.9912,3.9859,3.9622,3.9424,3.9424,3.945,3.9503,3.9635,3.9701,3.9741,3.9912,3.9925,3.9925,3.9912,3.9872,3.9872,3.9859,3.9754,3.9661,3.9582,3.9556,3.9477,3.9437,3.945,3.9424,3.9609,3.9622,3.9543,3.953,3.9516,3.9596,3.9701,3.9846,3.9925,3.9925,3.9925,3.9872,3.982,3.9912,3.9925,3.9925,3.9925,3.9925,3.6919,3.709,3.7104,3.7104,3.7104,3.7104,3.709,3.7104,3.7169,3.7222,3.7249,3.7288,3.7354,3.7328,3.7341,3.7328,3.7407,3.7565,3.7657,3.7697,3.7895,3.7842,3.7697,3.7736,3.8,3.8356,3.858,3.8738,3.8963,3.9253,3.9398,3.9411,3.9661,3.9806,3.9846,3.9886,3.9925,3.9925,3.9925,3.9925,3.9925,3.9925,3.9925,3.9912,3.9846,3.9806,3.982,3.9754,3.949,3.9108,3.9068,3.9068,3.9108,3.9108,3.9121,3.9121,3.9591,3.9578,3.9578,3.9591,3.9578,3.9565,3.9134,3.9565,3.9565,3.8585,3.8572,3.8624,3.9253,3.9398,3.9939,4.0072,3.9675,3.9648,3.9358,3.9121,3.9108,3.9068,3.8663,3.8845,3.9398,3.9979,4.0099,3.9661,3.9661,3.9661,3.9648,3.9635,3.9556,3.9477,3.9398,3.9319,3.924,3.9108,3.9042,3.9055,3.9618,3.9832,3.9805,3.924,3.924,3.924,3.9319,3.9411,3.9516,3.9543,3.9635,3.9741,3.9701,4.0085,3.9635,3.9648,3.9714,3.9833,3.982,3.651,3.6523,3.6523,3.6563,3.6563,3.6563,3.6589,3.6589,3.6813,3.6932,3.6985,3.7143,3.7275,3.7288,3.7235,3.7235,3.7314,3.7341,3.7354,3.7341,3.7354,3.7367,3.7354,3.7552,3.7723,3.7921,3.8343,3.858,3.862,3.8936,3.9094,3.9121,3.9385,3.9543,3.9569,3.9793,3.9859,3.9846,3.9886,3.9886,3.9872,3.9899,3.9899,3.9872,3.9661,3.953,3.949,3.9266,3.9094,3.9068,3.8989,3.8493,3.8546,3.8572,3.8507,3.8493,3.8546,3.852,3.8533,3.848,3.8493,3.848,3.848,3.8572,3.8989,3.8467,3.8454,3.848,3.8559,3.8598,3.9591,3.9672,3.9658,3.9631,3.9029,3.8989,3.9042,3.8533,3.852,3.8572,3.9094,3.9631,3.9685,3.9698,3.9698,3.9685,3.9213,3.924,3.92,3.9187,3.9121,3.9055,3.8507,3.8402,3.8791,3.8818,3.887,3.8989,3.8923,3.891,3.8923,3.8963,3.9029,3.9081,3.916,3.9147,3.9187,3.9279,3.9778,3.9818,3.9345,3.9319,3.9398,3.9556,3.9635,3.6471,3.6471,3.6471,3.6471,3.6471,3.6471,3.6471,3.6497,3.6589,3.6629,3.6655,3.6747,3.6787,3.6787,3.6787,3.6787,3.6813,3.6985,3.6972,3.6813,3.6787,3.6787,3.684,3.709,3.7301,3.7539,3.7895,3.8092,3.8119,3.8541,3.8791,3.8844,3.9094,3.924,3.9253,3.9345,3.9385,3.9424,3.9569,3.9582,3.9464,3.9569,3.9582,3.9411,3.9292,3.924,3.92,3.8778,3.8541,3.8541,3.8528,3.8528,3.8528,3.8541,3.8528,3.8528,3.8528,3.8541,3.8528,3.8554,3.8528,3.8528,3.8528,3.8541,3.8541,3.8528,3.8528,3.809,3.8194,3.8311,3.8818,3.8936,3.8884,3.9071,3.8567,3.8541,3.8541,3.8541,3.8116,3.8272,3.8778,3.8884,3.9015,3.9068,3.9565,3.9565,3.9068,3.9068,3.9042,3.8897,3.8831,3.8765,3.8699,3.8633,3.8567,3.8593,3.8633,3.862,3.858,3.862,3.862,3.8673,3.8712,3.8765,3.8897,3.8897,3.8923,3.8963,3.9445,3.9068,3.9134,3.9134,3.916,3.9305,3.9503,3.6471,3.6471,3.6471,3.6471,3.6471,3.6471,3.6471,3.6471,3.6471,3.6471,3.6471,3.6471,3.6471,3.6471,3.6471,3.6471,3.6484,3.6655,3.6682,3.651,3.6484,3.6484,3.6523,3.6682,3.6919,3.7209,3.7486,3.7684,3.7829,3.8172,3.8422,3.8541,3.8791,3.8923,3.8936,3.9029,3.9068,3.9094,3.9279,3.9279,3.9121,3.9279,3.9279,3.9081,3.8976,3.8884,3.8791,3.8435,3.8237,3.8237,3.8224,3.8224,3.8224,3.8224,3.8224,3.8224,3.8224,3.8224,3.8224,3.8237,3.8251,3.8224,3.8237,3.8224,3.8224,3.8237,3.8251,3.8264,3.8382,3.8501,3.8528,3.8207,3.8142,3.8264,3.8224,3.8251,3.8277,3.8251,3.8303,3.8462,3.8501,3.809,3.8246,3.8778,3.8752,3.8752,3.8765,3.8765,3.8765,3.8593,3.8501,3.8501,3.8382,3.8303,3.8356,3.8409,3.8435,3.8409,3.8382,3.8382,3.8356,3.8369,3.8396,3.8475,3.8633,3.8233,3.8738,3.8738,3.8699,3.8738,3.8778,3.8857,3.8949,3.9121,3.9345,3.6471,3.6471,3.6471,3.6471,3.6471,3.6471,3.6471,3.6471,3.6471,3.6471,3.6471,3.6471,3.6471,3.6471,3.6471,3.6471,3.6471,3.6497,3.6497,3.6471,3.6471,3.6471,3.6471,3.651,3.6668,3.6919,3.7183,3.746,3.7723,3.7816,3.8013,3.8251,3.8528,3.8633,3.8633,3.8857,3.9029,3.9015,3.9042,3.9055,3.9068,3.9055,3.9055,3.8989,3.8765,3.8528,3.8277,3.8237,3.8224,3.8224,3.8224,3.8224,3.8224,3.8224,3.8224,3.8224,3.8224,3.8224,3.8224,3.8224,3.8224,3.8224,3.8224,3.8224,3.8224,3.8224,3.8224,3.8224,3.8251,3.8251,3.8251,3.829,3.8277,3.8224,3.8224,3.8224,3.8224,3.8224,3.8224,3.8251,3.8264,3.8237,3.8237,3.8317,3.8356,3.8343,3.833,3.8343,3.8356,3.833,3.8251,3.8237,3.8237,3.8224,3.8224,3.8224,3.8224,3.8237,3.8224,3.8224,3.8224,3.8224,3.829,3.8303,3.8462,3.8475,3.8488,3.8488,3.8448,3.8435,3.8369,3.8409,3.8659,3.8949,3.9174,3.6471,3.6471,3.6471,3.6471,3.6471,3.6471,3.6471,3.6471,3.6471,3.6471,3.6471,3.6471,3.6471,3.6471,3.6471,3.6471,3.6471,3.6471,3.6471,3.6471,3.6471,3.6471,3.6471,3.6471,3.6523,3.6616,3.6721,3.6998,3.7433,3.767,3.7921,3.8211,3.8303,3.8356,3.8369,3.8435,3.8501,3.8528,3.8686,3.8673,3.8541,3.8673,3.8686,3.8514,3.8409,3.8303,3.8237,3.8224,3.8224,3.8224,3.8224,3.8224,3.8224,3.8224,3.8224,3.8224,3.8224,3.8224,3.8224,3.8224,3.8224,3.8224,3.8224,3.8224,3.8224,3.8224,3.8224,3.8224,3.8224,3.8224,3.8224,3.8224,3.8224,3.8224,3.8224,3.8224,3.8224,3.8224,3.8224,3.8224,3.8224,3.8224,3.8224,3.8224,3.8224,3.8224,3.8224,3.8224,3.8224,3.8224,3.8224,3.8224,3.8224,3.8224,3.8224,3.8224,3.8224,3.8224,3.8224,3.8224,3.8224,3.8224,3.8237,3.8224,3.8237,3.8224,3.8224,3.8237,3.8237,3.8251,3.8237,3.8251,3.8448,3.8752,3.9015,3.6471,3.6471,3.6471,3.6471,3.6471,3.6471,3.6471,3.6471,3.6471,3.6471,3.6471,3.6471,3.6471,3.6471,3.6471,3.6471,3.6471,3.6471,3.6471,3.6471,3.6471,3.6471,3.6471,3.6471,3.6471,3.6471,3.6471,3.6761,3.7301,3.7631,3.7921,3.8172,3.8224,3.8224,3.8224,3.8224,3.8224,3.8237,3.8382,3.8396,3.8264,3.8382,3.8396,3.8237,3.8224,3.8172,3.8066,3.8053,3.8,3.7908,3.7895,3.7908,3.8377,3.7895,3.7934,3.8053,3.8158,3.8224,3.8224,3.8224,3.8224,3.8224,3.8224,3.8224,3.8224,3.8224,3.8224,3.8224,3.8224,3.8224,3.8224,3.8224,3.8224,3.8224,3.8224,3.8224,3.8224,3.8224,3.8224,3.8224,3.8224,3.8224,3.8224,3.8224,3.8224,3.8224,3.8224,3.8224,3.8224,3.8224,3.8224,3.8224,3.8224,3.8224,3.8224,3.8224,3.8224,3.8224,3.8224,3.8224,3.8224,3.8224,3.8224,3.8224,3.8224,3.8224,3.8224,3.8224,3.8224,3.8224,3.8224,3.8237,3.8224,3.8725,3.8976,3.6431,3.6418,3.6418,3.6405,3.6418,3.6405,3.6418,3.6418,3.6431,3.6457,3.6471,3.6471,3.6457,3.6431,3.6418,3.6444,3.6471,3.6471,3.6471,3.6471,3.6471,3.6471,3.6471,3.6471,3.6471,3.6471,3.6471,3.6734,3.7249,3.7578,3.7908,3.8198,3.8224,3.8224,3.8224,3.8224,3.8224,3.8224,3.8237,3.8224,3.8224,3.8211,3.8198,3.8172,3.8172,3.8013,3.7789,3.775,3.7631,3.7829,3.7367,3.7354,3.7829,3.7354,3.7486,3.8217,3.8026,3.8198,3.8211,3.8224,3.8224,3.8224,3.8224,3.8224,3.8224,3.8224,3.8224,3.8224,3.8158,3.8119,3.8119,3.855,3.8106,3.8119,3.8145,3.8145,3.8145,3.8092,3.8172,3.8172,3.8158,3.8172,3.8224,3.8224,3.8224,3.8224,3.8224,3.8224,3.8224,3.8224,3.8224,3.8224,3.8224,3.8224,3.8224,3.8224,3.8224,3.8224,3.8224,3.8224,3.8224,3.8224,3.8224,3.8224,3.8224,3.8224,3.8224,3.8224,3.8224,3.8224,3.8224,3.8224,3.8224,3.8699,3.8976,3.5838,3.5851,3.5851,3.5851,3.5851,3.5851,3.5956,3.6128,3.6154,3.6273,3.6457,3.6471,3.6352,3.6167,3.6141,3.6273,3.6457,3.6471,3.6471,3.6471,3.6471,3.6471,3.6471,3.6471,3.6471,3.6471,3.6471,3.6563,3.6734,3.7196,3.771,3.8158,3.8224,3.8224,3.8224,3.8224,3.8224,3.8224,3.8224,3.8224,3.8185,3.8013,3.7895,3.7868,3.7684,3.7539,3.7446,3.7446,3.7407,3.6853,3.7314,3.7314,3.6853,3.6853,3.6892,3.7473,3.7736,3.7987,3.8211,3.8224,3.8224,3.8224,3.8224,3.8224,3.8224,3.8224,3.8224,3.8172,3.831,3.807,3.8521,3.8521,3.8521,3.8521,3.8521,3.8043,3.7591,3.7565,3.767,3.7374,3.7413,3.7961,3.8158,3.8198,3.8198,3.8198,3.8211,3.8224,3.8224,3.8224,3.8224,3.8224,3.8224,3.8224,3.8224,3.8224,3.8224,3.8224,3.8224,3.8224,3.8224,3.8224,3.8224,3.8224,3.8224,3.8224,3.8224,3.8224,3.8224,3.8224,3.8224,3.8224,3.8224,3.8501,3.8791,3.5614,3.5614,3.5614,3.5614,3.5614,3.5614,3.5706,3.5851,3.5851,3.5956,3.6115,3.6128,3.6022,3.5851,3.5851,3.5943,3.6115,3.6115,3.6181,3.6286,3.6286,3.6352,3.6457,3.6471,3.6471,3.6471,3.6471,3.6523,3.6682,3.6985,3.746,3.7987,3.8158,3.8224,3.8224,3.8224,3.8224,3.8224,3.8224,3.8092,3.7868,3.7684,3.7591,3.7565,3.742,3.7275,3.7169,3.7156,3.709,3.6514,3.6972,3.6972,3.6501,3.6501,3.6566,3.7156,3.7328,3.7539,3.831,3.7868,3.7855,3.7855,3.8323,3.8337,3.8337,3.7855,3.7855,3.7816,3.7539,3.7789,3.7803,3.7789,3.7789,3.7803,3.7803,3.7803,3.7328,3.7328,3.7367,3.7074,3.7113,3.7657,3.8283,3.8337,3.8377,3.851,3.8158,3.8224,3.8224,3.8224,3.8224,3.8224,3.8224,3.8224,3.8224,3.8224,3.8224,3.8224,3.8224,3.8224,3.8224,3.8224,3.8224,3.8224,3.8224,3.8224,3.8198,3.8224,3.8224,3.8224,3.8224,3.8224,3.8224,3.8435,3.8646,3.5521,3.5534,3.5508,3.5534,3.5508,3.5508,3.5534,3.5561,3.5561,3.5561,3.5534,3.5521,3.5534,3.5561,3.5574,3.56,3.564,3.5614,3.5759,3.597,3.6009,3.6167,3.6405,3.6457,3.6471,3.6471,3.6471,3.6602,3.6813,3.6906,3.7183,3.767,3.8013,3.8172,3.8172,3.8172,3.8172,3.8185,3.8145,3.7881,3.7354,3.7301,3.7288,3.7288,3.7262,3.713,3.6879,3.6879,3.6747,3.6497,3.6457,3.6431,3.6431,3.6405,3.651,3.7229,3.6813,3.6945,3.8116,3.7696,3.7249,3.7249,3.7723,3.821,3.8251,3.7196,3.6657,3.667,3.667,3.6605,3.6683,3.667,3.6644,3.709,3.7156,3.7249,3.7209,3.7249,3.7262,3.6801,3.6814,3.7314,3.7856,3.7883,3.795,3.8177,3.7961,3.8119,3.8132,3.8172,3.8211,3.8132,3.8119,3.8106,3.8092,3.8132,3.8537,3.8564,3.8119,3.8066,3.804,3.8053,3.8119,3.7961,3.8066,3.8053,3.8066,3.8132,3.8092,3.8013,3.804,3.8106,3.8158,3.8303,3.8488,3.4928,3.4928,3.4928,3.4928,3.4915,3.4915,3.506,3.5271,3.5271,3.5139,3.4941,3.4928,3.5047,3.5258,3.5258,3.5389,3.5587,3.5614,3.564,3.5719,3.5917,3.6062,3.6141,3.6365,3.6471,3.6471,3.6471,3.651,3.6589,3.68,3.6985,3.7143,3.7618,3.7868,3.7868,3.7868,3.7868,3.7855,3.7644,3.746,3.7328,3.7117,3.7011,3.6998,3.6787,3.6629,3.6576,3.6576,3.6537,3.6471,3.6246,3.6128,3.6575,3.593,3.6294,3.6819,3.6561,3.6708,3.6788,3.6989,3.6655,3.6189,3.7122,3.7229,3.6893,3.4389,3.3988,3.6009,3.6508,3.6508,3.6535,3.6668,3.6775,3.6788,3.6523,3.6655,3.6668,3.6668,3.6734,3.6501,3.654,3.6618,3.6788,3.6853,3.7328,3.7433,3.7684,3.7855,3.7895,3.8079,3.7987,3.7697,3.7525,3.7565,3.8016,3.8494,3.8043,3.8481,3.8494,3.8056,3.7578,3.7552,3.7539,3.7565,3.7565,3.7578,3.7552,3.7552,3.7565,3.807,3.807,3.7565,3.7591,3.7802,3.8013,3.4401,3.4532,3.4532,3.4611,3.4717,3.4717,3.4809,3.4954,3.4967,3.4875,3.473,3.4717,3.4809,3.4954,3.4967,3.5047,3.5205,3.5205,3.5271,3.5416,3.5561,3.5706,3.5851,3.6128,3.6273,3.6273,3.6405,3.6471,3.6484,3.6629,3.6774,3.6932,3.7222,3.7446,3.7552,3.7565,3.7565,3.7552,3.7143,3.6932,3.6932,3.6787,3.6708,3.6708,3.6563,3.6418,3.6273,3.626,3.6207,3.6088,3.5917,3.5772,3.564,3.5495,3.5363,3.6143,3.5707,3.5271,3.4821,3.5747,3.5363,3.3235,3.5186,3.5134,3.2079,3.0425,2.9925,3.2369,3.2515,3.3511,3.5442,3.5574,3.6148,3.6281,3.6441,3.6535,3.6075,3.6075,3.6141,3.6273,3.6312,3.6418,3.6695,3.6734,3.6827,3.713,3.7275,3.7446,3.7565,3.7243,3.6751,3.5529,3.6391,3.6853,3.7328,3.7328,3.7789,3.7803,3.7803,3.7789,3.7328,3.7328,3.7328,3.7328,3.7328,3.7328,3.7328,3.7314,3.7328,3.7789,3.7328,3.7328,3.7328,3.7446,3.7525,3.4018,3.4242,3.4242,3.4387,3.4611,3.4651,3.4664,3.4664,3.4625,3.4598,3.4598,3.4598,3.4611,3.4598,3.4598,3.4625,3.4664,3.4664,3.4822,3.5099,3.5152,3.5297,3.5561,3.5838,3.597,3.5983,3.622,3.6365,3.6405,3.6405,3.6563,3.6813,3.6853,3.6998,3.7249,3.7262,3.7249,3.7196,3.6721,3.6444,3.6418,3.6405,3.6391,3.6352,3.6339,3.622,3.5983,3.597,3.5851,3.5614,3.5534,3.5363,3.4678,3.4535,3.4809,3.5441,3.4229,3.2742,3.1404,3.3311,3.3272,2.9674,3.2584,3.2308,2.669,2.5711,2.6059,2.7623,2.7806,2.936,3.3098,3.4509,3.5099,3.6211,3.6332,3.5947,3.5495,3.5482,3.5508,3.5134,3.5534,3.5679,3.597,3.6495,3.6708,3.6629,3.6306,3.6462,3.6172,3.5303,3.3862,3.2953,3.4346,3.5738,3.6579,3.6631,3.6985,3.709,3.7011,3.6958,3.6932,3.6932,3.6945,3.7038,3.6958,3.6985,3.6998,3.7077,3.6985,3.6958,3.6932,3.6972,3.6945,3.6044,3.5966,3.3899,3.3939,3.3939,3.3965,3.4031,3.4269,3.4387,3.4361,3.4124,0.0,0.0,3.4018,3.4018,3.4018,3.4018,3.415,3.4374,3.4374,3.4532,3.4809,3.506,3.5192,3.5258,3.5548,3.5679,3.5679,3.5732,3.5877,3.6101,3.6101,3.6246,3.6523,3.655,3.6695,3.6972,3.6985,3.6866,3.6629,3.6523,3.6352,3.6115,3.6101,3.5996,3.5772,3.5759,3.5745,3.5679,3.5679,3.5212,3.5147,3.5139,3.4849,3.4783,3.3727,3.3649,3.3785,3.0367,2.7129,2.611,2.9105,2.9488,2.6099,2.9411,2.9683,2.5509,2.3275,2.3247,2.6292,2.6765,2.6872,2.7947,3.2145,3.5022,3.5513,3.5481,3.4875,3.4875,3.4875,3.4496,3.4295,3.3859,3.4462,3.5173,3.5693,3.5785,3.41,3.3854,3.3163,3.2414,3.038,2.8871,2.9019,2.9974,3.1765,3.5375,3.6181,3.6415,3.6481,3.6441,3.6374,3.5917,3.5917,3.5917,3.5563,3.5917,3.5511,3.5485,3.5537,3.5917,3.5917,3.5917,3.5904,3.5472,3.3668,3.2309,3.3069,3.3214,3.3359,3.3517,0.0,3.3952,3.3834,3.3425,3.3425,3.3425,3.3425,3.3425,3.3504,3.3636,3.3636,3.3807,3.4084,3.4242,3.4374,3.4519,3.4809,3.4941,3.4954,3.5244,3.5389,3.5389,3.5534,3.5679,3.5811,3.5811,3.589,3.6035,3.6035,3.6181,3.6457,3.6457,3.6326,3.6035,3.6035,3.597,3.5825,3.5811,3.5745,3.5614,3.5614,0.0,0.0,0.0,0.0,0.0,0.0,0.0,0.0,3.3214,0.0,2.997,2.6817,2.4379,2.3002,2.5331,2.6047,2.3751,2.3223,2.2941,2.2732,1.9263,1.9408,2.4469,2.5616,2.5895,2.5711,2.8069,3.1243,3.4323,3.2998,3.1957,3.197,3.2083,3.2258,3.1636,3.1697,3.2734,3.447,3.3656,3.1572,3.0956,3.0688,2.9971,2.7435,2.5003,2.3548,2.505,2.5059,2.6839,3.1315,3.3912,3.5666,3.6094,3.6108,3.5212,3.3384,3.2501,3.2071,3.2071,3.2071,3.2071,3.2059,3.2059,3.2059,3.2071,3.2071,3.1489,3.0051,2.8862,2.8589,3.2251,3.2489,3.2739,3.2976,3.3174,3.3253,3.2911,3.233,3.2568,3.2686,3.2673,3.2673,3.2792,3.3016,3.3069,3.3253,3.3543,3.3899,3.4084,3.415,3.4427,3.4559,3.4572,3.4809,3.4954,3.502,3.5244,3.5416,3.5534,3.5534,3.5561,3.5614,3.5614,3.5719,3.593,0.0,0.0,0.0,3.5587,3.5587,3.5534,3.5534,3.5495,3.5442,3.5389,0.0,3.5007,3.4717,3.444,3.4586,3.386,0.0,0.0,0.0,0.0,0.0,0.0,0.0,0.0,0.0,0.0,0.0,1.6501,1.5466,1.926,1.5725,1.5314,2.0776,2.282,2.3643,2.3485,2.449,2.7079,3.1671,2.9537,2.7671,2.8478,2.8748,2.8612,2.7604,2.8559,3.0478,3.3506,3.114,2.835,2.7382,2.7145,2.5489,2.0705,1.9271,1.8849,1.9894,2.0312,2.2063,2.6931,3.1786,3.4821,3.4899,3.4912,3.3111,2.9955,2.8205,2.7798,2.7777,2.7809,2.7788,2.7788,2.7819,2.7757,2.7809,2.7798,2.672,2.3468,2.4013,2.5096,3.2133,3.2172,3.2212,3.2251,3.2225,3.1513,3.1289,3.1421,3.1473,3.1487,3.1487,3.1487,3.15,3.1552,3.1803,3.2067,3.237,3.2924,3.3306,3.3543,3.3834,3.3979,3.3979,3.4005,3.4163,3.4414,3.4453,3.473,3.5218,3.5231,3.535,3.56,3.5614,3.5627,3.564,3.5152,3.4994,3.4782,3.5482,3.5495,3.5231,3.5231,3.5099,3.4849,3.4598,3.4453,3.4414,3.4124,3.3834,3.3115,3.3267,3.3158,3.3161,3.0334,2.7035,0.0,2.2012,0.0,0.0,0.0,0.0,0.0,0.0,0.0,0.0,1.284,1.0945,1.2398,1.5778,1.8169,1.8506,2.2752,2.5874,2.6299,2.5149,2.3866,2.4253,2.5015,2.4584,2.2024,2.4382,2.8012,3.2083,3.3011,2.9071,2.2803,2.2185,1.9269,1.1457,1.2266,1.4881,1.5112,1.5124,1.769,2.5029,3.0979,3.3472,3.2097,3.171,3.0329,2.5215,2.4346,2.4336,2.4336,2.4374,2.4355,2.4742,2.4336,2.4336,2.4374,2.3912,2.2575,1.9951,1.9127,2.0021,3.092,3.092,3.092,3.063,3.0181,2.9957,2.9944,3.0063,3.0063,3.0063,3.0049,2.9891,2.9904,3.0076,3.0366,3.0735,3.1196,3.1763,3.2278,3.27,3.3003,3.3306,3.3609,3.3623,3.3768,3.4058,3.4058,3.419,3.444,3.444,3.4506,3.4638,3.4638,3.3962,3.2246,3.2717,3.3227,3.2932,3.4235,3.4902,3.4915,3.4915,3.4783,3.4506,3.4374,3.4229,3.4058,3.3623,3.3253,3.295,3.1969,3.1605,3.1779,2.7583,2.3883,0.0,0.0,0.0,0.0,0.0,0.0,0.0,0.0,0.0,0.0,0.0,0.6935,0.7395,0.9076,1.0396,1.089,1.5854,1.9787,2.0833,1.8867,1.7933,1.909,1.9447,1.9108,1.7223,1.9484,2.217,2.4896,2.4964,2.2838,1.7618,1.4745,1.1055,0.6561,0.7803,1.0336,1.009,1.0114,1.1783,1.5138,2.1902,2.6591,2.7,2.6254,2.3782,1.9083,1.909,1.9951,1.9951,1.9951,1.9951,1.9951,1.9951,1.9951,1.9475,1.714,1.4068,1.2455,1.3775,1.5946,2.9707,2.9601,2.9047,2.8441,2.7861,2.8217,2.8414,2.848,2.848,2.848,2.8467,2.8164,2.8151,2.8388,2.8731,2.914,2.9601,3.0392,3.1012,3.1513,3.1618,3.2113,3.2594,3.2263,3.2443,3.2713,3.2713,3.2752,3.2816,3.2816,3.279,3.27,3.1891,3.0601,2.89,3.0257,3.0623,3.0745,3.2539,3.3858,3.4611,3.4625,3.4493,3.4203,3.4071,3.3886,3.3662,3.3042,3.2502,3.2463,3.045,2.9408,2.9206,2.4343,0.0,0.0,0.0,0.0,0.0,0.0,0.0,0.0,0.0,0.2007,0.6913,0.0,0.3359,0.0,0.385,0.4065,0.4121,0.9629,0.0,0.0,1.3555,1.2964,1.4373,1.4708,1.4396,1.3035,1.4821,1.6273,1.6962,1.6986,1.6075,1.2151,0.78,0.43,0.2779,0.4389,0.5228,0.5301,0.6134,0.6543,0.7351,1.2321,1.7746,2.0691,1.9993,1.7592,1.2574,1.3432,1.4701,1.4701,1.4695,1.4701,1.4684,1.4695,1.4254,1.2921,0.8987,0.5226,0.6487,0.9392,1.193,2.9008,2.8573,2.6463,2.554,2.5527,2.6054,2.645,2.67,2.67,2.67,2.6674,2.6384,2.6265,2.6318,2.6872,0.0,2.7254,2.8639,2.9416,2.9759,2.9695,2.9965,3.0265,2.972,2.9563,2.9816,2.9816,2.9936,3.0165,3.0177,3.0056,2.978,2.6817,2.5836,2.6418,2.7503,2.8092,2.8542,3.0721,3.2957,3.4799,3.4361,3.4203,3.3899,3.3385,3.3108,3.3042,3.2264,3.1823,3.1387,2.9391,2.6605,2.3136,0.0,0.0,0.0,0.0,0.0,0.0,0.0,0.0,0.0,0.0,0.0,0.0,0.0,0.0,0.0485,0.0267,0.0,0.0291,0.6791,0.0,0.0,0.0,1.1015,1.1021,1.2909,1.2982,1.1001,0.0,0.0,1.2442,1.2537,1.0845,0.729,0.3342,0.0379,0.0383,0.0,0.039,0.0,0.3944,0.6312,0.591,0.6707,0.9106,1.3567,1.4,1.2048,0.8088,0.7697,0.7292,0.77,0.7295,0.77,0.7295,0.769,0.6045,0.2774,0.0,0.1971,0.5565,0.6777,0.7199,2.6265,2.463,2.3549,2.3193,2.3391,2.3786,2.4116,2.438,2.438,2.438,2.4353,2.3892,2.3694,2.3694,2.3747,0.0,0.0,0.0,2.6669,2.7274,2.7715,2.7756,2.8109,2.8009,2.789,2.8527,2.8527,2.8503,2.8443,2.767,2.5791,2.2596,0.0,2.0183,2.0756,2.273,2.3919,2.3816,2.7654,3.0721,3.2526,3.3112,3.297,3.3359,3.3122,3.2673,3.1974,3.1289,3.0661,2.9631,2.68,2.3638,0.0,0.0,0.0,0.0,0.0,0.0,0.0,0.0,0.0,0.0,0.0,0.0,0.0,0.0,0.0,0.0,0.0,0.0,0.0,0.4107,0.0,0.0,0.0,0.0,0.0,0.0,0.0,0.6836,0.7202,0.7522,0.7739,0.6135,0.4138,0.2795,0.1072,0.0,0.0,0.0,0.0,0.0,0.1518,0.2655,0.2655,0.2654,0.4185,0.8455,0.6958,0.4663,0.2731,0.2732,0.2738,0.275,0.2755,0.276,0.2776,0.2702,0.1881,0.0,0.0,0.0,0.2284,0.2673,0.2686,2.3035,0.0,0.0,0.0,0.0,2.1426,2.1743,2.2006,2.2006,2.1954,2.1848,2.136,0.0,0.0,0.0,0.0,0.0,0.0,2.3956,2.4526,2.501,2.5216,2.58,2.5343,2.5245,2.5484,2.5416,2.528,2.4714,2.3262,2.008,1.5884,0.0,0.0,0.0,0.0,1.9237,1.967,2.4281,2.7823,3.0195,3.1491,3.2247,3.3267,3.2766,3.2001,3.092,3.001,2.8731,2.7685,2.4313,0.0,0.0,0.0,0.0,0.0,0.0,0.0,0.0,0.0,0.0,0.0,0.0,0.0,0.0,0.0,0.0,0.0,0.0,0.0,0.0,0.2008,0.3294,0.0,0.0,0.0,0.0,0.0,0.0,0.0,0.0,0.0,0.3709,0.1565,0.0,0.0,0.0,0.0,0.0,0.0,0.0,0.0,0.0,0.0,0.0,0.0,0.1096,0.4049,0.2223,0.0,0.0,0.0,0.0,0.0,0.0,0.0,0.0,0.0,0.0,0.0,0.0,0.0,0.0,0.0,0.0,0.0,0.0,0.0,0.0,1.8433,0.0,0.0,0.0,1.9633,1.9475,0.0,1.8921,0.0,0.0,0.0,0.0,1.9494,2.0338,0.0,0.0,2.1836,2.2228,2.2604,2.1516,2.0735,2.0946,2.0059,1.9596,1.9119,1.5558,0.0,0.0,0.0,0.0,0.0,0.0,1.5221,1.6499,2.1432,2.5148,2.7011,2.9993,3.2044,3.3754,3.2212,3.092,2.9983,2.8348,2.6977,2.5537,2.1806,0.0,0.0,0.0,0.0,0.0,0.0,0.0,0.0,0.0,0.0,0.0,0.0,0.0,0.0,0.0,0.0,0.0,0.0,0.0,0.0,0.0,0.0,0.0,0.0,0.0,0.0,0.0,0.0,0.0,0.0,0.0,0.0,0.0,0.0,0.0,0.0,0.0,0.0,0.0,0.0,0.0,0.0,0.0,0.0,0.0,0.0,0.0,0.0,0.0,0.0,0.0,0.0,0.0,0.0,0.0,0.0,0.0,0.0,0.0,0.0,0.0,0.0,0.0,0.0,0.0,0.0,0.0,0.0,0.0,0.0,0.0,0.0,0.0,1.693,1.6811,1.6534,0.0,0.0,0.0,0.0,0.0,0.0,0.0,0.0,1.7772,1.7998,1.8369,1.7998,1.7827,0.0,1.7536,1.5339,0.0,0.0,0.0,0.0,0.0,0.0,0.0,0.0,1.354,1.6686,1.9577,2.2707,2.6588,2.8981,3.1443,3.3267,3.2159,3.0511,2.8322,2.6766,2.4788,0.0,0.0,0.0,0.0,0.0,0.0,0.0,0.0,0.0,0.0,0.0,0.0,0.0,0.0,0.0,0.0,0.0,0.0,0.0,0.0,0.0,0.0,0.0,0.0,0.0,0.0,0.0,0.0,0.0,0.0,0.0,0.0,0.0,0.0,0.0,0.0,0.0,0.0,0.0,0.0,0.0,0.0,0.0,0.0,0.0,0.0,0.0,0.0,0.0,0.0,0.0,0.0,0.0,0.0,0.0,0.0,0.0,0.0,0.0,0.0,0.0,0.0,0.0,0.0,0.0,0.0,0.0,0.0,0.0,0.0,0.0,0.0,0.0,0.0,0.0,1.4702,1.4596,0.0,0.0,0.0,0.0,0.0,0.0,0.0,0.0,0.0,0.0,0.0,1.4452,1.4324,0.0,0.0,0.0,0.0,0.0,0.0,0.0,0.0,0.0,0.0,0.0,0.0,1.1069,1.4486,1.7791,2.0937,2.4728,2.7649,3.0129,3.2581,3.2067,3.0366,2.7861,0.0,0.0,0.0,0.0,0.0,0.0,0.0,0.0,0.0,0.0,0.0,0.0,0.0,0.0,0.0,0.0,0.0,0.0,0.0,0.0,0.0,0.0,0.0,0.0,0.0,0.0,0.0,0.0,0.0,0.0,0.0,0.0,0.0,0.0,0.0,0.0,0.0,0.0,0.0,0.0,0.0,0.0,0.0,0.0,0.0,0.0,0.0,0.0,0.0,0.0,0.0,0.0,0.0,0.0,0.0,0.0,0.0,0.0,0.0,0.0,0.0,0.0,0.0,0.0,0.0,0.0,0.0,0.0,0.0,0.0,0.0,0.0,0.0,0.0,0.0,0.0,0.0,0.0,1.2539,0.0,0.0,1.1567,0.0,0.0,0.0,0.0,0.0,0.0,0.0,0.0,0.0,0.0,0.0,0.0,0.0,0.0,0.0,0.0,0.0,0.0,0.0,0.0,0.0,0.0,0.7582,1.0115,1.6082,2.0159,2.1848,2.5998,2.8877,3.1306,3.1448,3.0405,2.8625,0.0,0.0,0.0,0.0,0.0,0.0,0.0,0.0,0.0,0.0,0.0,0.0,0.0,0.0,0.0,0.0,0.0,0.0,0.0,0.0,0.0,0.0,0.0,0.0,0.0,0.0,0.0,0.0,0.0,0.0,0.0,0.0,0.0,0.0,0.0,0.0,0.0,0.0,0.0,0.0,0.0,0.0,0.0,0.0,0.0,0.0,0.0,0.0,0.0,0.0,0.0,0.0,0.0,0.0,0.0,0.0,0.0,0.0,0.0,0.0,0.0,0.0,0.0,0.0,0.0,0.0,0.0,0.0,0.0,0.0,0.0,0.0,0.0,0.0,0.0,0.0,0.0,0.0,0.0,0.0,0.0,0.0,0.0,0.0,0.0,0.0,0.0,0.0,0.0,0.0,0.0,0.0,0.0,0.0,0.0,0.0,0.0,0.0,0.0,0.0,0.0,0.0,0.0,0.0,0.6423,0.7665,1.3369,1.7624,2.0451,2.4688,2.8308,3.0779,3.0488,2.9733,0.0,0.0,0.0,0.0,0.0,0.0,0.0,0.0,0.0,0.0,0.0,0.0,0.0,0.0,0.0,0.0,0.0,0.0,0.0,0.0,0.0,0.0,0.0,0.0,0.0,0.0,0.0,0.0,0.0,0.0,0.0,0.0,0.0,0.0,0.0,0.0,0.0,0.0,0.0,0.0,0.0,-0.2618,-0.2771,-0.1266,0.0,0.0,0.0,0.0,0.0,0.0,0.0,0.0,0.0,0.0,0.0,0.0,0.0,0.0,0.0,0.0,0.0,0.0,0.0,0.0,0.0,0.0,0.0,0.0,0.0,0.0,0.0,0.0,0.0,0.0,0.0,0.0,0.0,0.0,0.0,0.0,0.0,0.0,0.0,0.0,0.0,0.0,0.0,0.0,0.0,0.0,0.0,0.0,0.0,0.0,0.0,0.0,0.0,0.0,0.0,0.0,0.0,0.0,0.0,0.0,0.0,0.4504,0.6539,1.1764,1.5499,1.8145,2.1576,2.5127,2.7849,2.7901,2.7446,0.0,0.0,0.0,0.0,0.0,0.0,0.0,0.0,0.0,0.0,0.0,0.0,0.0,0.0,0.0,0.0,0.0,0.0,0.0,0.0,0.0,0.0,0.0,0.0,0.0,0.0,0.0,0.0,0.0,0.0,0.0,0.0,0.0,0.0,0.0,0.0,0.0,0.0,0.0,0.0,0.0,-0.4702,-0.4125,-0.182,0.0,0.0,0.0,0.0,0.0,0.0,0.0,0.0,0.0,0.0,0.0,0.0,0.0,0.0,0.0,0.0,0.0,0.0,0.0,0.0,0.0,0.0,0.0,0.0,0.0,0.0,0.0,0.0,0.0,0.0,0.0,0.0,0.0,0.0,0.0,0.0,0.0,0.0,0.0,0.0,0.0,0.0,0.0,0.0,0.0,0.0,0.0,0.0,0.0,0.0,0.0,0.0,0.0,0.0,0.0,0.0,0.0,0.0,0.0,0.0,0.0,0.2083,0.6066,1.0533,1.3421,1.5097,1.7634,2.0716,2.3041,2.4243,2.4465,0.0,0.0,0.0,0.0,0.0,0.0,0.0,0.0,0.0,0.0,0.0,0.0,0.0,0.0,0.0,0.0,0.0,0.0,0.0,0.0,0.0,0.0,0.0,0.0,0.0,0.0,0.0,0.0,0.0,0.0,0.0,0.0,0.0,0.0,0.0,0.0,0.0,0.0,0.0,0.0,0.0,-0.6287,-0.4204,-0.173,0.0,0.0,0.0,0.0,0.0,0.0,0.0,0.0,0.0,0.0,0.0,0.0,0.0,0.0,0.0,0.0,0.0,0.0,0.0,0.0,0.0,0.0,0.0,0.0,0.0,0.0,0.0,0.0,0.0,0.0,0.0,0.0,0.0,0.0,0.0,0.0,0.0,0.0,0.0,0.0,0.0,0.0,0.0,0.0,0.0,0.0,0.0,0.0,0.0,0.0,0.0,0.0,0.0,0.0,0.0,0.0,0.0,0.0,0.0,0.0,0.0,0.0,0.6004,0.7602,0.9966,1.3505,1.6035,1.8235,2.0697,2.2448,0.0,0.0,0.0,0.0,0.0,0.0,0.0,0.0,0.0,0.0,0.0,0.0,0.0,0.0,0.0,0.0,0.0,0.0,0.0,0.0,0.0,0.0,0.0,0.0,0.0,0.0,0.0,0.0,0.0,0.0,0.0,0.0,0.0,0.0,0.0,0.0,0.0,0.0,0.0,0.0,0.0,0.0,-0.6017,-0.4032,-0.1651,0.0,0.0,0.0,0.0,0.0,0.0,0.0,0.0,0.0,0.0,0.0,0.0,0.0,0.0,0.0,0.0,0.0,0.0,0.0,0.0,0.0,0.0,0.0,0.0,0.0,0.0,0.0,0.0,0.0,0.0,0.0,0.0,0.0,0.0,0.0,0.0,0.0,0.0,0.0,0.0,0.0,0.0,0.0,0.0,0.0,0.0,0.0,0.0,0.0,0.0,0.0,0.0,0.0,0.0,0.0,0.0,0.0,0.0,0.0,0.0,0.0,0.1151,0.36,0.5351,0.8714,1.2569,1.428,1.5684,1.7421,1.8859,1.9156,0.0,0.0,0.0,0.0,0.0,0.0,0.0,0.0,0.0,0.0,0.0,0.0,0.0,0.0,0.0,0.0,0.0,0.0,0.0,0.0,0.0,0.0,0.0,0.0,0.0,0.0,0.0,0.0,0.0,0.0,0.0,0.0,0.0,0.0,0.0,0.0,0.0,0.0,0.0,0.0,0.0,0.0,-0.4052,-0.1551,0.0,0.0,0.0,0.0,0.0,0.0,0.0,0.0,0.0,0.0,0.0,0.0,0.0,0.0,0.0,0.0,0.0,0.0,0.0,0.0,0.0,0.0,0.0,0.0,0.0,0.0,0.0,0.0,0.0,0.0,0.0,0.0,0.0,0.0,0.0,0.0,0.0,0.0,0.0,0.0,0.0,0.0,0.0,0.0,0.0,0.0,0.0,0.0,0.0,0.0,0.0,0.0,0.0,0.0,0.0,0.0,0.0,0.0,0.0,0.0,0.0,0.0,0.0,0.42,0.8193,1.1611,1.173,1.2389,1.3524,1.4685,1.523,0.0,0.0,0.0,0.0,0.0,0.0,0.0,0.0,0.0,0.0,0.0,0.0,0.0,0.0,0.0,0.0,0.0,0.0,0.0,0.0,0.0,0.0,0.0,0.0,0.0,0.0,0.0,0.0,0.0,0.0,0.0,0.0,0.0,0.0,0.0,0.0,0.0,0.0,0.0,0.0,0.0,-0.7219,-0.4254,-0.1685,0.0,0.0,0.0,0.0,-0.0495,-0.0241,0.0,0.0,0.0,0.0,0.0,0.0,0.0,0.0,0.0,0.0,0.0,0.0,0.0,0.0,0.0,0.0,0.0,0.0,0.0,0.0,0.0,0.0,0.0,0.0,0.0,0.0,0.0,0.0,0.0,0.0,0.0,0.0,0.0,0.0,0.0,0.0,0.0,0.0,0.0,0.0,0.0,0.0,0.0,0.0,0.0,0.0,0.0,0.0,0.0,0.0,0.0,0.0,0.0,0.0,0.0,0.0,0.0,0.4138,0.6657,0.7347,0.7426,0.8488,1.0416,1.2132,1.2494,0.0,0.0,0.0,0.0,0.0,0.0,0.0,0.0,0.0,0.0,0.0,0.0,0.0,0.0,0.0,0.0,0.0,0.0,0.0,0.0,0.0,0.0,0.0,0.0,0.0,0.0,0.0,0.0,0.0,0.0,0.0,0.0,0.0,0.0,0.0,0.0,0.0,0.0,0.0,0.0,0.0,-0.7068,-0.63,-0.3409,0.0,0.0,0.0,0.0,-0.2701,-0.1106,0.0,0.0,0.0,0.0,0.0,0.0,0.0,0.0,0.0,0.0,0.0,0.0,0.0,0.0,0.0,0.0,0.0,0.0,0.0,0.0,0.0,0.0,0.0,0.0,0.0,0.0,0.0,0.0,0.0,0.0,0.0,0.0,0.0,0.0,0.0,0.0,0.0,0.0,0.0,0.0,0.0,0.0,0.0,0.0,0.0,0.0,0.0,0.0,0.0,0.0,0.0,0.0,0.0,0.0,0.0,0.0,0.0,0.2018,0.3272,0.3051,0.3112,0.4627,0.7419,0.9938,1.045,0.0,0.0,0.0,0.0,0.0,0.0,0.0,0.0,0.0,0.0,0.0,0.0,0.0,0.0,0.0,0.0,0.0,0.0,0.0,0.0,0.0,0.0,0.0,0.0,0.0,0.0,0.0,0.0,0.0,0.0,0.0,0.0,0.0,0.0,0.0,0.0,0.0,0.0,0.0,0.0,-0.8301,-0.8074,-0.7536,0.0,0.0,0.0,0.0,0.0,0.0,-0.3273,-0.1394,0.0,0.0,0.0,0.0,0.0,0.0,0.0,0.0,0.0,0.0,0.0,0.0,0.0,0.0,0.0,0.0,0.0,0.0,0.0,0.0,0.0,0.0,0.0,0.0,0.0,0.0,0.0,0.0,0.0,0.0,0.0,0.0,0.0,0.0,0.0,0.0,0.0,0.0,0.0,0.0,0.0,0.0,0.0,0.0,0.0,0.0,0.0,0.0,0.0,0.0,0.0,0.0,0.0,0.0,0.0,0.0,0.0,0.0,0.0,0.0,0.1928,0.5565,0.7774,0.8117,0.6251,0.0,0.0,0.0,0.0,0.0,0.0,0.0,0.0,0.0,0.0,0.0,0.0,0.0,0.0,0.0,0.0,0.0,0.0,0.0,0.0,0.0,0.0,0.0,0.0,0.0,0.0,0.0,0.0,0.0,0.0,0.0,0.0,0.0,0.0,0.0,0.0,0.0,0.0,0.0,-0.892,-0.9088,0.0,0.0,0.0,0.0,0.0,0.0,0.0,0.0,-0.278,0.0,0.0,0.0,0.0,0.0,0.0,0.0,0.0,0.0,0.0,0.0,0.0,0.0,0.0,0.0,0.0,0.0,0.0,0.0,0.0,0.0,0.0,0.0,0.0,0.0,0.0,0.0,0.0,0.0,0.0,0.0,0.0,0.0,0.0,0.0,0.0,0.0,0.0,0.0,0.0,0.0,0.0,0.0,0.0,0.0,0.0,0.0,0.0,0.0,0.0,0.0,0.0,0.0,0.0,0.0,0.0,0.0,0.0,0.0,0.0,0.1928,0.5565,0.565,0.4203,0.1402,0.0,0.0,0.0,0.0,0.0,0.0,0.0,0.0,0.0,0.0,0.0,0.0,0.0,0.0,0.0,0.0,0.0,0.0,0.0,0.0,0.0,0.0,0.0,0.0,0.0,0.0,0.0,0.0,0.0,0.0,0.0,0.0,0.0,0.0,0.0,0.0,0.0,0.0,-0.9893,-0.8969,0.0,0.0,0.0,0.0,0.0,0.0,0.0,0.0,-0.4117,0.0,0.0,0.0,0.0,0.0,0.0,0.0,0.0,0.0,0.0,0.0,0.0,0.0,0.0,0.0,0.0,0.0,0.0,0.0,0.0,0.0,0.0,0.0,0.0,0.0,0.0,0.0,0.0,0.0,0.0,0.0,0.0,0.0,0.0,0.0,0.0,0.0,0.0,0.0,0.0,0.0,0.0,0.0,0.0,0.0,0.0,0.0,0.0,0.0,0.0,0.0,0.0,0.0,0.0,0.0,0.0,0.0,0.0,0.0,0.0,0.0,0.0768,0.2596,0.2447,0.1587,0.0,0.0,0.0,0.0,0.0,0.0,0.0,0.0,0.0,0.0,0.0,0.0,0.0,0.0,0.0,0.0,0.0,0.0,0.0,0.0,0.0,0.0,0.0,0.0,0.0,0.0,0.0,0.0,0.0,0.0,0.0,0.0,0.0,0.0,0.0,0.0,0.0,0.0,0.0,0.0,0.0,0.0,0.0,0.0,0.0,0.0,0.0,0.0,0.0,0.0,0.0,0.0,0.0,0.0,0.0,0.0,0.0,0.0,0.0,0.0,0.0,0.0,0.0,0.0,0.0,0.0,0.0,0.0,0.0,0.0,0.0,0.0,0.0,0.0,0.0,0.0,0.0,0.0,0.0,0.0,0.0,0.0,0.0,0.0,0.0,0.0,0.0,0.0,0.0,0.0,0.0,0.0,0.0,0.0,0.0,0.0,0.0,0.0,0.0,0.0,0.0,0.0,0.0,0.0,0.0,0.0,0.0,0.0,0.0,0.0,0.0,0.0,0.0,0.0,0.0,0.0,0.0,0.0,0.0,0.0,0.0,0.0,0.0,0.0,0.0,0.0,0.0,0.0,0.0,0.0,0.0,0.0,0.0,0.0,0.0,0.0,0.0,0.0,0.0,0.0,0.0,0.0,0.0,0.0,0.0,0.0,0.0,0.0,0.0,0.0,0.0,0.0,0.0,0.0,0.0,0.0,0.0,0.0,0.0,0.0,0.0,0.0,0.0,-1.1366,0.0,0.0,0.0,0.0,0.0,0.0,0.0,0.0,0.0,0.0,0.0,0.0,0.0,0.0,0.0,0.0,0.0,0.0,0.0,0.0,0.0,0.0,0.0,0.0,0.0,0.0,0.0,0.0,0.0,0.0,0.0,0.0,0.0,0.0,0.0,0.0,0.0,0.0,0.0,0.0,0.0,0.0,0.0,0.0,0.0,0.0,0.0,0.0,0.0,0.0,0.0,0.0,0.0,0.0,0.0,0.0,0.0,0.0,0.0,0.0,0.0,0.0,0.0,0.0,0.0,0.0,0.0,0.0,0.0,0.0,0.0,0.0,0.0,0.0,0.0,0.0,0.0,0.0,0.0,0.0,0.0,0.0,0.0,0.0,0.0,0.0,0.0,0.0,0.0,0.0,0.0,0.0,0.0,0.0,0.0,0.0,0.0,0.0,0.0,0.0,0.0,0.0,0.0,0.0,0.0,0.0,0.0,0.0,0.0,0.0,0.0,0.0,0.0,0.0,0.0,0.0,0.0,0.0,0.0,0.0,0.0,0.0,0.0,0.0,0.0,0.0,0.0,0.0,0.0,0.0,0.0,0.0,0.0,0.0,0.0,0.0,0.0,0.0,0.0,0.0,0.0,0.0,0.0,0.0,0.0,0.0,0.0,0.0,0.0,0.0,0.0,0.0,0.0,0.0,0.0,0.0,0.0,0.0,0.0,0.0,0.0,0.0,0.0,0.0,0.0,0.0,0.0,0.0,0.0,0.0,0.0,0.0,0.0,0.0,0.0,0.0,0.0,0.0,0.0,0.0,0.0,0.0,0.0,0.0,0.0,0.0,0.0,0.0,0.0,0.0,0.0,0.0,0.0,0.0,0.0,0.0,0.0,0.0,0.0,0.0,0.0,0.0,0.0,0.0,0.0,0.0,0.0,0.0,0.0,0.0,0.0,0.0,0.0,0.0,0.0,0.0,0.0,0.0,0.0,0.0,0.0,0.0,0.0,0.0,0.0,0.0,0.0,0.0,0.0,0.0,0.0,0.0,0.0,0.0,0.0,0.0,0.0,0.0,0.0,0.0,0.0,0.0,0.0,0.0,0.0,0.0,0.0,0.0,0.0,0.0,0.0,0.0,0.0,0.0,0.0,0.0,0.0,0.0,0.0,0.0,0.0,0.0,0.0,0.0,0.0,0.0,0.0,0.0,0.0,0.0,0.0,0.0,0.0,0.0,0.0,0.0,0.0,0.0,0.0,0.0,0.0,0.0,0.0,0.0,0.0,0.0,0.0,0.0,0.0,0.0,0.0,0.0,0.0,0.0,0.0,0.0,0.0,0.0,0.0,0.0,0.0,0.0,0.0,0.0,0.0,0.0,0.0,0.0,0.0,0.0,0.0,0.0,0.0,0.0,0.0,0.0,0.0,0.0,0.0,0.0,0.0,0.0,0.0,0.0,0.0,0.0,0.0,0.0,0.0,0.0,0.0,0.0,0.0,0.0,0.0,0.0,0.0,0.0,0.0,0.0,0.0,0.0,0.0,0.0,0.0,0.0,0.0,0.0,0.0,0.0,0.0,0.0,0.0,0.0,0.0,0.0,0.0,0.0,0.0,0.0,0.0,0.0,0.0,0.0,0.0,0.0,0.0,0.0,0.0,0.0,0.0,0.0,0.0,0.0,0.0,0.0,0.0,0.0,0.0,0.0,0.0,0.0,0.0,0.0,0.0,0.0,0.0,0.0,0.0,0.0,0.0,0.0,0.0,0.0,0.0,0.0,0.0,0.0,0.0,0.0,0.0,0.0,0.0,0.0,0.0,0.0,0.0,0.0,0.0,0.0,0.0,0.0,0.0,0.0,0.0,0.0,0.0,0.0,0.0,0.0,0.0,0.0,0.0,0.0,0.0,0.0,0.0,0.0,0.0,0.0,0.0,0.0,0.0,0.0,0.0,0.0,0.0,0.0,0.0,0.0,0.0,0.0,0.0,0.0,0.0,0.0,0.0,0.0,0.0,0.0,0.0,0.0,0.0,0.0,0.0,0.0,0.0,0.0,0.0,0.0,0.0,0.0,0.0,0.0,0.0,0.0,0.0,0.0,0.0,0.0,0.0,0.0,0.0,0.0,0.0,0.0,0.0,0.0,0.0,0.0,0.0,0.0,0.0,0.0,0.0,0.0,0.0,0.0,0.0,0.0,0.0,0.0,0.0,0.0,0.0,0.0,0.0,0.0,0.0,0.0,0.0,0.0,0.0,0.0,0.0,0.0,0.0,0.0,0.0,0.0,0.0,0.0,0.0,0.0,0.0,0.0,0.0,0.0,0.0,0.0,0.0,0.0,0.0,0.0,0.0,0.0,0.0,0.0,0.0,0.0,0.0,0.0,0.0,0.0,0.0,0.0,0.0,0.0,0.0,0.0,0.0,0.0,0.0,0.0,0.0,0.0,0.0,0.0,0.0,0.0,0.0,0.0,0.0,0.0,0.0,0.0,0.0,0.0,0.0,0.0,0.0,0.0,0.0,0.0,0.0,0.0,0.0,0.0,0.0,0.0,0.0,0.0,0.0,0.0,0.0,0.0,0.0,0.0,0.0,0.0,0.0,0.0,0.0,0.0,0.0,0.0,0.0,0.0,0.0,0.0,0.0,0.0,0.0,0.0,0.0,0.0,0.0,0.0,0.0,0.0,0.0,0.0,0.0,0.0,0.0,0.0,0.0,0.0,0.0,0.0,0.0,0.0,0.0,0.0,0.0,0.0,0.0,0.0,0.0,0.0,0.0,0.0,0.0,0.0,0.0,0.0,0.0,0.0,0.0,0.0,0.0,0.0,0.0,0.0,0.0,0.0,0.0,0.0,0.0,0.0,0.0,0.0,0.0,0.0,0.0,0.0,0.0,0.0,0.0,0.0,0.0,0.0,0.0,0.0,0.0,0.0,0.0,0.0,0.0,0.0,0.0,0.0,0.0,0.0,0.0,0.0,0.0,0.0,0.0,0.0,0.0,0.0,0.0,0.0,0.0,0.0,0.0,0.0,0.0,0.0,0.0,0.0,0.0,0.0,0.0,0.0,0.0,0.0,0.0,0.0,0.0,0.0,0.0,0.0,0.0,0.0,0.0,0.0,0.0,0.0,0.0,0.0,0.0,0.0,0.0,0.0,0.0,0.0,0.0,0.0,0.0,0.0,0.0,0.0,0.0,0.0,0.0,0.0,0.0,0.0,0.0,0.0,0.0,0.0,0.0,0.0,0.0,0.0,0.0,0.0,0.0,0.0,0.0,0.0,0.0,0.0,0.0,0.0,0.0,0.0,0.0,0.0,0.0,0.0,0.0,0.0,0.0,0.0,0.0,0.0,0.0,0.0,0.0,0.0,0.0,0.0,0.0,0.0,0.0,0.0,0.0,0.0,0.0,0.0,0.0,0.0,0.0,0.0,0.0,0.0,0.0,0.0,0.0,0.0,0.0,0.0,0.0,0.0,0.0,0.0,0.0,0.0,0.0,0.0,0.0,0.0,0.0,0.0,0.0,0.0,0.0,0.0,0.0,0.0,0.0,0.0,0.0,0.0,0.0,0.0,0.0,0.0,0.0,0.0,0.0,0.0,0.0,0.0,0.0,0.0,0.0,0.0,0.0,0.0,0.0,0.0,0.0,0.0,0.0,0.0,0.0,0.0,0.0,0.0,0.0,0.0,0.0,0.0,0.0,0.0,0.0,0.0,0.0,0.0,0.0,0.0,0.0,0.0,0.0,0.0,0.0,0.0,0.0,0.0,0.0,0.0,0.0,0.0,0.0,0.0,0.0,0.0,0.0,0.0,0.0,0.0,0.0,0.0,0.0,0.0,0.0,0.0,0.0,0.0,0.0,0.0,0.0,0.0,0.0,0.0,0.0,0.0,0.0,0.0,0.0,0.0,0.0,0.0,0.0,0.0,0.0,0.0,0.0,0.0,0.0,0.0,0.0,0.0,0.0,0.0,0.0,0.0,0.0,0.0,0.0,0.0,0.0,0.0,0.0,0.0,0.0,0.0,0.0,0.0,0.0,0.0,0.0,0.0,0.0,0.0,0.0,0.0,0.0,0.0,0.0,0.0,0.0,0.0,0.0,0.0,0.0,0.0,0.0,0.0,0.0,0.0,0.0,0.0,0.0,0.0,0.0,0.0,0.0,0.0,0.0,0.0,0.0,0.0,0.0,0.0,0.0,0.0,0.0,0.0,0.0,0.0,0.0,0.0,0.0,0.0,0.0,0.0,0.0,0.0,0.0,0.0,0.0,0.0,0.0,0.0,0.0,0.0,0.0,0.0,0.0,0.0,0.0,0.0,0.0,0.0,0.0,0.0,0.0,0.0,0.0,0.0,0.0,0.0,0.0,0.0,0.0,0.0,0.0,0.0,0.0,0.0,0.0,0.0,0.0,0.0,0.0,0.0,0.0,0.0,0.0,0.0,0.0,0.0,0.0,0.0,0.0,0.0,0.0,0.0,0.0,0.0,0.0,0.0,0.0,0.0,0.0,0.0,0.0,0.0,0.0,0.0,0.0,0.0,0.0,0.0,0.0,0.0,0.0,0.0,0.0,0.0,0.0,0.0,0.0,0.0,0.0,0.0,0.0,0.0,0.0,0.0,0.0,0.0,0.0,0.0,0.0,0.0,0.0,0.0,0.0,0.0,0.0,0.0,0.0,0.0,0.0,0.0,0.0,0.0,0.0,0.0,0.0,0.0,0.0,0.0,0.0,0.0,0.0,0.0,0.0,0.0,0.0,0.0,0.0,0.0,0.0,0.0,0.0,0.0,0.0,0.0,0.0,0.0,0.0,0.0,0.0,0.0,0.0,0.0,0.0,0.0,0.0,0.0,0.0,0.0,0.0,0.0,0.0,0.0,0.0,0.0,0.0,0.0,0.0,0.0,0.0,0.0,0.0,0.0,0.0,0.0,0.0,0.0,0.0,0.0,0.0,0.0,0.0,0.0,0.0,0.0,0.0,0.0,0.0,0.0,0.0,0.0,0.0,0.0,0.0,0.0,0.0,0.0,0.0,0.0,0.0,0.0,0.0,0.0,0.0,0.0,0.0,0.0,0.0,0.0,0.0,0.0,0.0,0.0,0.0,0.0,0.0,0.0,0.0,0.0,0.0,0.0,0.0,0.0,0.0,0.0,0.0,0.0,0.0,0.0,0.0,0.0,0.0,0.0,0.0,0.0,0.0,0.0,0.0,0.0,0.0,0.0,0.0,0.0,0.0,0.0,0.0,0.0,0.0,0.0,0.0,0.0,0.0,0.0,0.0,0.0,0.0,0.0,0.0,0.0,0.0,0.0,0.0,0.0,0.0,0.0,0.0,0.0,0.0,0.0,0.0,0.0,0.0,0.0,0.0,0.0,0.0,0.0,0.0,0.0,0.0,0.0,0.0,0.0,0.0,0.0,0.0,0.0,0.0,0.0,0.0,0.0,0.0,0.0,0.0,0.0,0.0,0.0,0.0,0.0,0.0,0.0,0.0,0.0,0.0,0.0,0.0,0.0,0.0,0.0,0.0,0.0,0.0,0.0,0.0,0.0,0.0,0.0,0.0,0.0,0.0,0.0,0.0,0.0,0.0,0.0,0.0,0.0,0.0,0.0,0.0,0.0,0.0,0.0,0.0,0.0,0.0,0.0,0.0,0.0,0.0,0.0,0.0,0.0,0.0,0.0,0.0,0.0,0.0,0.0,0.0,0.0,0.0,0.0,0.0,0.0,0.0,0.0,0.0,0.0,0.0,0.0,0.0,0.0,0.0,0.0,0.0,0.0,0.0,0.0,0.0,0.0,0.0,0.0,0.0,0.0,0.0,0.0,0.0,0.0,0.0,0.0,0.0,0.0,0.0,0.0,0.0,0.0,0.0,0.0,0.0,0.0,0.0,0.0,0.0,0.0,0.0,0.0,0.0,0.0,0.0,0.0,0.0,0.0,0.0,0.0,0.0,0.0,0.0,0.0,0.0,0.0,0.0,0.0,0.0,0.0,0.0,0.0,0.0,0.0,0.0,0.0,0.0,0.0,0.0,0.0,0.0,0.0,0.0,0.0,0.0,0.0,0.0,0.0,0.0,0.0,0.0,0.0,0.0,0.0,0.0,0.0,0.0,0.0,0.0,0.0,0.0,0.0,0.0,0.0,0.0,0.0,0.0,0.0,0.0,0.0,0.0,0.0,0.0,0.0,0.0,0.0,0.0,0.0,0.0,0.0,0.0,0.0,0.0,0.0,0.0,0.0,0.0,0.0,0.0,0.0,0.0,0.0,0.0,0.0,0.0,0.0,0.0,0.0,0.0,0.0,0.0,0.0,0.0,0.0,0.0,0.0,0.0,0.0,0.0,0.0,0.0,0.0,0.0,0.0,0.0,0.0,0.0,0.0,0.0,0.0,0.0,0.0,0.0,0.0,0.0,0.0,0.0,0.0,0.0,0.0,0.0,0.0,0.0,0.0,0.0,0.0,0.0,0.0,0.0,0.0,0.0,0.0,0.0,0.0,0.0,0.0,0.0,0.0,0.0,0.0,0.0,0.0,0.0,0.0,0.0,0.0,0.0,0.0,0.0,0.0,0.0,0.0,0.0,0.0,0.0,0.0,0.0,0.0,0.0,0.0,0.0,0.0,0.0,0.0,0.0,0.0,0.0,0.0,0.0,0.0,0.0,0.0,0.0,0.0,0.0,0.0,0.0,0.0,0.0,0.0,0.0,0.0,0.0,0.0,0.0,0.0,0.0,0.0,0.0,0.0,0.0,0.0,0.0,0.0,0.0,0.0,0.0,0.0,0.0,0.0,0.0,0.0,0.0,0.0,0.0,0.0,0.0,0.0,0.0,0.0,0.0,0.0,0.0,0.0,0.0,0.0,0.0,0.0,0.0,0.0,0.0,0.0,0.0,0.0,0.0,0.0,0.0,0.0,0.0,0.0,0.0,0.0,0.0,0.0,0.0,0.0,0.0,0.0,0.0,0.0,0.0,0.0,0.0,0.0,0.0,0.0,0.0,0.0,0.0,0.0,0.0,0.0,0.0,0.0,0.0,0.0,0.0,0.0,0.0,0.0,0.0,0.0,0.0,0.0,0.0,0.0,0.0,0.0,0.0,0.0,0.0,0.0,0.0,0.0,0.0,0.0,0.0,0.0,0.0,0.0,0.0,0.0,0.0,0.0,0.0,0.0,0.0,0.0,0.0,0.0,0.0,0.0,0.0,0.0,0.0,0.0,0.0,0.0,0.0,0.0,0.0,0.0,0.0,0.0,0.0,0.0,0.0,0.0,0.0,0.0,0.0,0.0,0.0,0.0,0.0,0.0,0.0,0.0,0.0,0.0,0.0,0.0,0.0,0.0,0.0,0.0,0.0,0.0,0.0,0.0,0.0,0.0,0.0,0.0,0.0,0.0,0.0,0.0,0.0,0.0,0.0,0.0,0.0,0.0,0.0,0.0,-0.0393,-0.0393,-0.0393,-0.0518,-0.0502,0.0,0.0,0.0,0.0,0.0,0.0,0.0,0.0,0.0,0.0,0.0,0.0,0.0,0.0,0.0,0.0,0.0,0.0,0.0,0.0,0.0,0.0,0.0,0.0,0.0,0.0,0.0,0.0,0.0,0.0,0.0,0.0,0.0,0.0,0.0,0.0,0.0,0.0,0.0,0.0,0.0,0.0,0.0,0.0,0.0,0.0,0.0,0.0,0.0,0.0,0.0,0.0,0.0,0.0,0.0,0.0,0.0,0.0,0.0,0.0,0.0,0.0,0.0,0.0,0.0,0.0,0.0,0.0,0.0,0.0,0.0,0.0,0.0,0.0,0.0,0.0,0.0,0.0,0.0,0.0,0.0,0.0,0.0,0.0,0.0,0.0,0.0,0.0,0.0,0.0,0.0,0.0,0.0,0.0,0.0,0.0,0.0,0.0,0.0,0.0,0.0,0.0,0.0,0.0,0.0,0.0,0.0,0.0,0.0,0.0,0.0,0.0,0.0,0.0,-0.1249,0.0,0.0,0.0,0.0,0.0,0.0,0.0,0.0,0.0,0.0,0.0,0.0,0.0,0.0,0.0,0.0,0.0,0.0,0.0,0.0,0.0,0.0,0.0,0.0,0.0,0.0,0.0,0.0,0.0,0.0,0.0,0.0,0.0,0.0,0.0,0.0,0.0,0.0,0.0,0.0,0.0,0.0,0.0,0.0,0.0,0.0,0.0,0.0,0.0,0.0,0.0,0.0,0.0,0.0,0.0,0.0,0.0,0.0,0.0,0.0,0.0,0.0,0.0,0.0,0.0,0.0,0.0,0.0,0.0,0.0,0.0,0.0,0.0,0.0,0.0,0.0,0.0,0.0,0.0,0.0,0.0,0.0,0.0,0.0,0.0,0.0,0.0,0.0,0.0,0.0,0.0,0.0,0.0,0.0,0.0,0.0,0.0,0.0,0.0,0.0,0.0,0.0,0.0,0.0,0.0,0.0,0.0,0.0,0.0,0.0,0.0,0.0,0.0,0.0,0.0,0.0,0.0,0.0,0.0,0.0,0.0,0.0,0.0,0.0,0.0,0.0,0.0,0.0,0.0,0.0,0.0,0.0,0.0,0.0,0.0,0.0,0.0,0.0,0.0,0.0,0.0,0.0,0.0,0.0,0.0,0.0,0.0,0.0,0.0,0.0,0.0,0.0,0.0,0.0,0.0,0.0,0.0,0.0,0.0,0.0,0.0,0.0,0.0,0.0,0.0,0.0,0.0,0.0,0.0,0.0,0.0,0.0,0.0,0.0,0.0,0.0,0.0,0.0,0.0,0.0,0.0,0.0,0.0,0.0,0.0,0.0,0.0,0.0,0.0,0.0,0.0,0.0,0.0,0.0,0.0,0.0,0.0,0.0,0.0,0.0,0.0,0.0,0.0,0.0,0.0,0.0,0.0,0.0,0.0,0.0,0.0,0.0,0.0,0.0,0.0,0.0,0.0,0.0,0.0,0.0,0.0,0.0,0.0,0.0,0.0,0.0,0.0,0.0,0.0,0.0,0.0,0.0,0.0,0.0,0.0,0.0,0.0,0.0,0.0,0.0,0.0,0.0,0.0,0.0,0.0,0.0,0.0,0.0,0.0,0.0,0.0,0.0,0.0,0.0,0.0,0.0,0.0,0.0,0.0,0.0,0.0,0.0,0.0,0.0,0.0,0.0,0.0,0.0,0.0,0.0,0.0,0.0,0.0,0.0,0.0,0.0,0.0,0.0,0.0,0.0,0.0,0.0,0.0,0.0,0.0,0.0,0.0,0.0,0.0,0.0,0.0,0.0,0.0,0.0,0.0,0.0,0.0,0.0,0.0,0.0,0.0,0.0,0.0,0.0,0.0,0.0,0.0,0.0,0.0,0.0,0.0,0.0,0.0,0.0,0.0,0.0,0.0,0.0,0.0,0.0,0.0,0.0,0.0,0.0,0.0,0.0,0.0,0.0,0.0,0.0,0.0,0.0,0.0,0.0,0.0,0.0,0.0,0.0,0.0,0.0,0.0,0.0,0.0,0.0,0.0,0.0,0.0,0.0,0.0,0.0,0.0,0.0,0.0,0.0,0.0,0.0,0.0,0.0,0.0,0.0,0.0,0.0,0.0,0.0,0.0,0.0,0.0,0.0,0.0,0.0,0.0,0.0,0.0,0.0,0.0,0.0,0.0,0.0,0.0,0.0,0.0,0.0,0.0,0.0,0.0,0.0,0.0,0.0,0.0,0.0,0.0,0.0,0.0,0.0,0.0,0.0,0.0,0.0,0.0,0.0,0.0,0.0,0.0,0.0,0.0,0.0,0.0,0.0,0.0,0.0,0.0,0.0,0.0,0.0,0.0,0.0,0.0,0.0,0.0,0.0,0.0,0.0,0.0,0.0,0.0,0.0,0.0,0.0,0.0,0.0,0.0,0.0,0.0,0.0,0.0,0.0,0.0,0.0,0.0,0.0,0.0,0.0,0.0,0.0,0.0,0.0,0.0,0.0,0.0,0.0,0.0,0.0,0.0,0.0,0.0,0.0,0.0,0.0,0.0,0.0,0.0,0.0,0.0,0.0,0.0,0.0,0.0,0.0,0.0,0.0,0.0,0.0,0.0,0.0,0.0,0.0,0.0,0.0,0.0,0.0,0.0,0.0,0.0,0.0,0.0,0.0,0.0,0.0,0.0,0.0,0.0,0.0,0.0,0.0,0.0,0.0,0.0,0.0,0.0,0.0,0.0,0.0,0.0,0.0,0.0,0.0,0.0,0.0,0.0,0.0,0.0,0.0,0.0,0.0,0.0,0.0,0.0,0.0,0.0,0.0,0.0,0.0,0.0,0.0,0.0,0.0,0.0,0.0,0.0,0.0,0.0,0.0,0.0,0.0,0.0,0.0,0.0,0.0,0.0,0.0,0.0,0.0,0.0,0.0,0.0,0.0,0.0,0.0,0.0,0.0,0.0,0.0,0.0,0.0,0.0,0.0,0.0,0.0,0.0,0.0,0.0,0.0,0.0,0.0,0.0,0.0,0.0,0.0,0.0,0.0,0.0,0.0,0.0,0.0,0.0,0.0,0.0,0.0,0.0,0.0,0.0,0.0,0.0,0.0,0.0,0.0,0.0,0.0,0.0,0.0,0.0,0.0,0.0,0.0,0.0,0.0,0.0,0.0,0.0,0.0,0.0,0.0,0.0,0.0,0.0,0.0,0.0,0.0,0.0,0.0,0.0,0.0,0.0,0.0,0.0,0.0,0.0,0.0,0.0,0.0,0.0,0.0,0.0,0.0,0.0,0.0,0.0,0.0,0.0,0.0,0.0,0.0,0.0,0.0,0.0,0.0,0.0,0.0,0.0,0.0,0.0,0.0,0.0,0.0,0.0,0.0,0.0,0.0,0.0,0.0,0.0,0.0,0.0,0.0,0.0,0.0,0.0,0.0,0.0,0.0,0.0,0.0,0.0,0.0,0.0,0.0,0.0,0.0,0.0,0.0,0.0,0.0,0.0,0.0,0.0,0.0,0.0,0.0,0.0,0.0,0.0,0.0,0.0,0.0,0.0,0.0,0.0,0.0,0.0,0.0,0.0,0.0,0.0,0.0,0.0,0.0,0.0,0.0,0.0,0.0,0.0,0.0,0.0,0.0,0.0,0.0,0.0,0.0,0.0,0.0,0.0,0.0,0.0,0.0,0.0,0.0,0.0,0.0,0.0,0.0,0.0,0.0,0.0,0.0,0.0,0.0,0.0,0.0,0.0,0.0,0.0,0.0,0.0,0.0,0.0,0.0,0.0,0.0,0.0,0.0,0.0,0.0,0.0,0.0,0.0,0.0,0.0,0.0,0.0,0.0,0.0,0.0,0.0,0.0,0.0,0.0,0.0,0.0,0.0,0.0,0.0,0.0,0.0,0.0,0.0,0.0,0.0,0.0,0.0,0.0,0.0,0.0,0.0,0.0,0.0,0.0,0.0,0.0,0.0,0.0,0.0,0.0,0.0,0.0,0.0,0.0,0.0,0.0,0.0,0.0,0.0,0.0,0.0,0.0,0.0,0.0,0.0,0.0,0.0,0.0,0.0,0.0,0.0,0.0,0.0,0.0,0.0,0.0,0.0,0.0,0.0,0.0,0.0,0.0,0.0,0.0,0.0,0.0,0.0,0.0,0.0,0.0,0.0,0.0,0.0,0.0,0.0,0.0,0.0,0.0,0.0,0.0,0.0,0.0,0.0,0.0,0.0,0.0,0.0,0.0,0.0,0.0,0.0,0.0,0.0,0.0,0.0,0.0,0.0,0.0,0.0,0.0,0.0,0.0,0.0,0.0,0.0,0.0,0.0,0.0,0.0,0.0,0.0,0.0,0.0,0.0,0.0,0.0,0.0,0.0,0.0,0.0,0.0,0.0,0.0,0.0,0.0,0.0,0.0,0.0,0.0,0.0,0.0,0.0,0.0,0.0,0.0,0.0,0.0,0.0,0.0,0.0,0.0,0.0,0.0,0.0,0.0,0.0,0.0,0.0,0.0,0.0,0.0,0.0,0.0,0.0,0.0,0.0,0.0,0.0,0.0,0.0,0.0,0.0,0.0,0.0,0.0,0.0,0.0,0.0,0.0,0.0,0.0,0.0,0.0,0.0,0.0,0.0,0.0,0.0,0.0,0.0,0.0,0.0,0.0,0.0,0.0,0.0,0.0,0.0,0.0,0.0,0.0,0.0,0.0,0.0,0.0,0.0,0.0,0.0,0.0,0.0,0.0,0.0,0.0,0.0,0.0,0.0,0.0,0.0,0.0,0.0,0.0,0.0,0.0,0.0,0.0,0.0,0.0,0.0,0.0,0.0,0.0,0.0,0.0,0.0,0.0,0.0,0.0,0.0,0.0,0.0,0.0,0.0,0.0,0.0,0.0,0.0]}]]]